GFSSW_500_temp_021.txt.gz
Temp
-10 -10 -10 -10 -11 -11 -10 -10 -11 -11 -10 -10 -10 -11 -11 -12 -12 -11 -11 -12 -12 -10 -11 -10 -11 -11 -11 -11 -11 -11 -10 -10 -9 -9 -10 -10 -11 -11 -11 -11 -11 -11 -11 -11 -12
-10 -10 -10 -11 -11 -11 -11 -11 -10 -11 -11 -10 -10 -11 -11 -11 -12 -11 -12 -12 -12 -11 -11 -11 -11 -11 -11 -11 -11 -11 -11 -10 -10 -11 -11 -11 -11 -11 -11 -11 -10 -11 -12 -12 -12
-10 -10 -10 -10 -10 -10 -10 -10 -11 -11 -10 -10 -10 -11 -11 -10 -10 -11 -12 -12 -12 -11 -12 -12 -12 -11 -11 -11 -11 -11 -9 -10 -11 -11 -11 -12 -11 -11 -11 -10 -10 -11 -11 -12 -12
-10 -10 -10 -10 -10 -10 -10 -10 -10 -10 -11 -10 -10 -10 -10 -10 -10 -10 -11 -12 -12 -12 -12 -12 -12 -12 -11 -11 -11 -11 -10 -11 -11 -12 -12 -12 -11 -11 -10 -10 -10 -12 -12 -12 -12
-10 -10 -10 -10 -10 -10 -10 -10 -10 -10 -10 -10 -10 -10 -10 -10 -9 -11 -10 -11 -12 -12 -12 -12 -13 -13 -12 -12 -12 -10 -10 -11 -11 -11 -12 -11 -11 -11 -10 -11 -12 -12 -12 -12 -12
-10 -10 -10 -10 -10 -10 -10 -10 -10 -10 -10 -10 -10 -10 -10 -9 -11 -11 -11 -11 -12 -12 -13 -13 -12 -13 -13 -12 -12 -11 -11 -11 -12 -12 -12 -11 -11 -10 -10 -11 -12 -12 -12 -12 -12
-10 -10 -10 -9 -9 -9 -9 -9 -9 -9 -9 -10 -10 -10 -9 -9 -11 -11 -11 -11 -11 -12 -12 -13 -13 -13 -13 -12 -12 -12 -11 -12 -12 -12 -11 -12 -9 -9 -11 -11 -11 -11 -12 -11 -11
-10 -10 -9 -9 -9 -9 -9 -9 -9 -9 -9 -9 -9 -9 -8 -10 -10 -11 -11 -11 -12 -12 -12 -13 -13 -13 -13 -12 -12 -12 -12 -11 -11 -12 -12 -12 -7 -11 -11 -11 -11 -12 -12 -11 -10
-10 -9 -9 -9 -9 -9 -9 -9 -8 -9 -9 -9 -9 -9 -8 -9 -10 -11 -11 -11 -12 -11 -12 -13 -12 -12 -12 -12 -12 -12 -11 -10 -11 -11 -12 -12 -9 -11 -11 -11 -11 -12 -11 -11 -10
-9 -9 -9 -9 -9 -8 -8 -8 -8 -8 -9 -9 -9 -9 -9 -9 -9 -10 -11 -11 -12 -12 -12 -12 -12 -12 -11 -11 -8 -9 -9 -10 -10 -11 -12 -12 -10 -11 -11 -11 -11 -12 -11 -10 -10
-9 -9 -9 -9 -9 -9 -8 -9 -8 -8 -8 -8 -9 -9 -9 -10 -9 -10 -11 -11 -12 -12 -12 -12 -12 -10 -10 -10 -11 -11 -11 -11 -11 -11 -12 -11 -11 -11 -12 -12 -11 -11 -11 -10 -10
-9 -9 -9 -9 -9 -9 -9 -10 -11 -10 -9 -10 -10 -9 -11 -11 -9 -11 -10 -11 -12 -11 -12 -12 -11 -9 -11 -12 -12 -12 -11 -12 -12 -12 -12 -12 -11 -12 -12 -12 -11 -11 -10 -10 -10
-10 -10 -10 -12 -13 -14 -15 -17 -17 -17 -13 -15 -16 -13 -13 -12 -10 -11 -11 -11 -11 -12 -12 -12 -9 -12 -12 -12 -12 -11 -11 -12 -12 -13 -13 -12 -11 -11 -11 -12 -11 -11 -10 -10 -10
-11 -13 -16 -18 -20 -20 -20 -20 -20 -20 -19 -19 -19 -18 -17 -14 -13 -13 -12 -12 -12 -11 -13 -12 -11 -12 -12 -12 -12 -12 -12 -13 -13 -13 -12 -13 -11 -11 -11 -11 -11 -10 -10 -11 -11
-16 -18 -20 -21 -21 -22 -22 -22 -22 -22 -22 -21 -21 -20 -20 -18 -17 -15 -15 -15 -13 -13 -13 -11 -10 -11 -11 -11 -12 -11 -13 -13 -13 -12 -12 -11 -11 -9 -11 -11 -10 -10 -11 -11 -11
-20 -21 -22 -22 -22 -22 -22 -23 -23 -23 -22 -23 -23 -22 -22 -21 -21 -19 -17 -17 -16 -15 -14 -13 -12 -12 -11 -12 -12 -12 -13 -12 -13 -13 -10 -9 -10 -8 -10 -11 -10 -11 -11 -11 -11
-22 -22 -23 -23 -23 -23 -23 -24 -24 -23 -24 -24 -24 -23 -24 -23 -23 -22 -20 -18 -17 -16 -14 -13 -12 -12 -12 -12 -12 -12 -13 -12 -13 -12 -9 -11 -11 -9 -11 -10 -10 -11 -10 -11 -11
-23 -24 -24 -24 -24 -25 -25 -25 -25 -25 -25 -25 -24 -24 -25 -23 -23 -22 -22 -20 -18 -17 -17 -14 -13 -12 -11 -11 -11 -11 -12 -11 -12 -12 -12 -12 -10 -9 -11 -11 -10 -10 -11 -11 -12
-24 -25 -25 -26 -26 -27 -26 -27 -27 -26 -26 -25 -25 -25 -25 -24 -22 -22 -22 -21 -19 -19 -16 -15 -12 -12 -12 -12 -12 -11 -11 -12 -12 -12 -12 -11 -11 -10 -11 -10 -10 -11 -11 -12 -12
-25 -25 -26 -26 -27 -27 -27 -27 -27 -26 -26 -26 -25 -25 -25 -24 -23 -22 -22 -22 -21 -19 -16 -15 -13 -12 -12 -13 -12 -11 -12 -12 -12 -12 -11 -11 -10 -10 -10 -10 -10 -11 -11 -12 -12
-25 -25 -26 -26 -26 -26 -26 -27 -26 -26 -26 -26 -26 -25 -25 -24 -23 -22 -22 -21 -21 -19 -16 -16 -13 -13 -14 -11 -11 -11 -10 -11 -12 -12 -11 -9 -10 -10 -10 -11 -11 -11 -12 -11 -11
-25 -25 -26 -26 -27 -27 -27 -27 -26 -26 -26 -26 -27 -26 -25 -24 -24 -22 -22 -21 -20 -19 -17 -17 -14 -14 -12 -12 -12 -12 -12 -11 -11 -10 -11 -10 -10 -10 -11 -11 -12 -11 -11 -11 -11
-25 -25 -26 -27 -27 -27 -27 -26 -26 -26 -26 -26 -26 -26 -25 -25 -24 -23 -22 -21 -20 -20 -18 -16 -15 -14 -15 -14 -13 -12 -11 -11 -12 -12 -11 -10 -9 -11 -11 -12 -12 -12 -11 -11 -11
-25 -25 -25 -27 -27 -27 -27 -27 -27 -26 -26 -26 -26 -26 -26 -25 -25 -24 -22 -21 -21 -20 -19 -17 -15 -14 -13 -13 -12 -11 -11 -11 -11 -11 -10 -10 -11 -11 -11 -12 -12 -12 -11 -11 -11
-25 -25 -25 -26 -26 -27 -27 -26 -26 -26 -26 -26 -26 -26 -26 -25 -25 -24 -23 -21 -20 -20 -20 -17 -16 -14 -13 -13 -12 -11 -11 -11 -10 -10 -10 -10 -11 -11 -12 -12 -11 -11 -11 -12 -11
-25 -24 -25 -25 -26 -26 -26 -26 -26 -26 -26 -26 -26 -26 -26 -25 -25 -25 -24 -22 -21 -20 -20 -18 -17 -14 -14 -13 -12 -11 -11 -11 -11 -11 -10 -11 -11 -11 -13 -12 -12 -12 -11 -12 -11
-25 -25 -25 -25 -25 -26 -26 -26 -26 -26 -26 -26 -26 -26 -25 -25 -25 -24 -24 -23 -22 -21 -20 -18 -17 -15 -15 -14 -13 -12 -11 -11 -11 -11 -10 -11 -12 -12 -11 -13 -12 -12 -12 -12 -11

GFSSW_500_temp_024.txt.gz
Temp
-10 -10 -11 -11 -11 -11 -11 -11 -10 -11 -11 -10 -11 -11 -11 -11 -11 -11 -11 -12 -11 -11 -12 -11 -11 -11 -11 -11 -11 -10 -10 -10 -10 -10 -10 -10 -11 -11 -11 -11 -11 -11 -11 -11 -11
-11 -11 -11 -11 -11 -11 -11 -11 -11 -11 -10 -10 -11 -10 -11 -11 -11 -11 -12 -12 -12 -11 -12 -12 -11 -11 -10 -10 -10 -10 -9 -9 -10 -11 -11 -11 -10 -11 -11 -11 -11 -11 -11 -12 -12
-11 -10 -10 -10 -10 -10 -11 -11 -11 -11 -11 -11 -10 -11 -11 -11 -11 -11 -11 -12 -12 -12 -12 -12 -12 -11 -11 -11 -11 -10 -9 -10 -10 -11 -11 -11 -11 -11 -11 -10 -11 -11 -11 -12 -12
-11 -11 -10 -10 -10 -10 -10 -10 -10 -10 -10 -10 -10 -10 -11 -11 -11 -10 -11 -12 -12 -12 -12 -12 -12 -12 -11 -11 -11 -11 -10 -11 -11 -11 -11 -11 -11 -11 -10 -10 -10 -11 -12 -12 -12
-10 -10 -10 -10 -10 -10 -10 -10 -10 -10 -10 -10 -10 -10 -10 -10 -10 -11 -11 -12 -12 -12 -12 -12 -12 -11 -11 -11 -11 -10 -11 -11 -11 -11 -11 -11 -11 -10 -10 -10 -11 -11 -12 -12 -12
-10 -10 -10 -10 -10 -10 -10 -9 -9 -10 -10 -10 -10 -10 -10 -10 -10 -10 -10 -11 -11 -12 -11 -12 -12 -12 -11 -11 -10 -10 -11 -11 -11 -11 -12 -11 -11 -10 -9 -10 -11 -12 -12 -11 -11
-10 -10 -10 -10 -10 -9 -9 -9 -9 -9 -9 -9 -10 -10 -10 -9 -10 -10 -10 -10 -10 -11 -12 -12 -12 -12 -12 -11 -10 -11 -11 -12 -10 -11 -10 -11 -10 -10 -10 -10 -11 -11 -11 -11 -11
-10 -10 -10 -10 -10 -10 -10 -10 -9 -9 -9 -9 -9 -9 -9 -10 -10 -10 -11 -10 -11 -10 -11 -12 -12 -12 -12 -11 -10 -11 -11 -11 -11 -10 -11 -12 -8 -9 -11 -11 -11 -11 -11 -11 -11
-11 -10 -10 -10 -10 -10 -10 -9 -9 -9 -9 -9 -9 -9 -8 -9 -10 -11 -11 -11 -11 -11 -11 -11 -12 -12 -12 -11 -11 -10 -8 -9 -12 -12 -12 -11 -8 -10 -11 -10 -11 -10 -11 -11 -11
-10 -10 -10 -10 -10 -10 -9 -9 -9 -9 -9 -9 -9 -9 -9 -9 -9 -10 -10 -11 -11 -11 -11 -11 -11 -11 -11 -10 -8 -9 -10 -10 -11 -13 -11 -11 -9 -11 -12 -11 -10 -11 -11 -11 -10
-11 -10 -10 -10 -10 -10 -10 -9 -9 -9 -9 -9 -9 -9 -9 -9 -8 -9 -9 -10 -11 -11 -11 -11 -12 -10 -9 -9 -10 -11 -11 -11 -11 -12 -12 -12 -11 -11 -12 -11 -10 -11 -11 -10 -11
-10 -10 -10 -10 -10 -10 -9 -10 -10 -10 -9 -10 -10 -9 -9 -9 -8 -9 -9 -9 -10 -11 -12 -12 -11 -8 -11 -11 -11 -11 -11 -11 -12 -12 -12 -12 -11 -11 -12 -11 -10 -11 -10 -10 -11
-10 -10 -11 -11 -12 -12 -14 -15 -15 -14 -12 -14 -13 -12 -12 -12 -10 -11 -11 -10 -10 -11 -11 -12 -8 -12 -11 -11 -11 -10 -11 -11 -12 -12 -13 -12 -11 -10 -11 -11 -10 -10 -10 -10 -11
-11 -12 -13 -15 -17 -19 -19 -20 -20 -20 -18 -18 -18 -18 -16 -16 -14 -13 -13 -13 -12 -11 -12 -12 -10 -11 -12 -11 -11 -10 -11 -12 -12 -13 -12 -13 -9 -10 -10 -10 -9 -11 -10 -10 -11
-13 -16 -18 -20 -22 -22 -22 -22 -22 -22 -22 -22 -21 -21 -20 -19 -18 -17 -16 -15 -13 -13 -15 -10 -11 -11 -11 -8 -11 -10 -12 -12 -13 -13 -12 -11 -12 -9 -10 -9 -10 -10 -10 -10 -11
-18 -20 -22 -23 -23 -23 -23 -23 -23 -23 -23 -24 -23 -23 -23 -22 -21 -20 -19 -18 -16 -16 -16 -13 -13 -12 -9 -11 -11 -12 -12 -12 -12 -12 -11 -11 -11 -10 -9 -11 -10 -10 -10 -11 -10
-20 -23 -24 -24 -24 -24 -25 -25 -25 -25 -25 -26 -25 -24 -24 -24 -22 -22 -21 -20 -19 -19 -16 -15 -14 -12 -12 -12 -12 -12 -12 -12 -12 -11 -10 -11 -11 -10 -10 -11 -11 -10 -11 -10 -10
-23 -24 -24 -25 -25 -26 -26 -26 -26 -26 -26 -26 -25 -25 -25 -26 -24 -23 -22 -22 -20 -20 -19 -18 -16 -13 -12 -11 -11 -10 -10 -11 -10 -10 -10 -12 -10 -11 -11 -10 -10 -10 -9 -10 -11
-24 -24 -25 -25 -26 -26 -26 -26 -26 -26 -26 -26 -26 -26 -26 -26 -24 -23 -23 -22 -22 -22 -21 -20 -17 -15 -13 -12 -12 -10 -11 -11 -12 -11 -12 -13 -10 -11 -11 -10 -10 -10 -11 -11 -11
-24 -24 -25 -25 -26 -26 -26 -26 -26 -26 -26 -26 -26 -26 -26 -26 -25 -25 -23 -22 -22 -22 -21 -20 -18 -18 -14 -13 -13 -11 -12 -11 -11 -11 -12 -12 -10 -10 -11 -10 -10 -10 -11 -11 -11
-24 -25 -25 -26 -27 -27 -27 -26 -26 -26 -26 -26 -26 -26 -26 -25 -24 -25 -23 -22 -22 -22 -21 -21 -18 -19 -17 -15 -12 -12 -11 -11 -11 -11 -12 -12 -11 -11 -11 -10 -11 -11 -11 -11 -11
-24 -25 -25 -26 -26 -27 -27 -26 -26 -26 -26 -26 -26 -26 -26 -25 -25 -24 -23 -22 -22 -22 -21 -21 -19 -18 -18 -13 -13 -13 -11 -11 -10 -10 -12 -11 -11 -11 -11 -11 -11 -11 -11 -11 -11
-24 -24 -25 -26 -26 -27 -27 -26 -26 -27 -26 -26 -26 -26 -25 -25 -25 -24 -24 -22 -21 -22 -21 -20 -20 -18 -15 -18 -15 -13 -12 -11 -11 -12 -11 -11 -11 -11 -11 -11 -11 -11 -11 -11 -12
-24 -24 -25 -25 -26 -26 -26 -26 -26 -26 -26 -26 -26 -26 -25 -25 -25 -25 -24 -23 -22 -21 -21 -20 -20 -18 -17 -17 -14 -13 -12 -12 -12 -12 -11 -11 -12 -12 -12 -12 -12 -12 -11 -12 -12
-24 -24 -25 -25 -25 -26 -26 -26 -26 -26 -26 -26 -26 -26 -26 -25 -25 -24 -23 -23 -22 -21 -21 -20 -20 -19 -17 -17 -15 -14 -13 -13 -12 -12 -11 -11 -11 -12 -12 -12 -12 -12 -12 -12 -11
-24 -24 -25 -25 -25 -25 -25 -26 -26 -26 -26 -26 -26 -26 -26 -25 -25 -24 -23 -23 -22 -21 -21 -20 -19 -18 -17 -16 -15 -14 -13 -13 -12 -12 -11 -11 -12 -12 -12 -12 -12 -12 -12 -12 -11
-23 -24 -24 -24 -25 -25 -25 -25 -25 -26 -26 -26 -26 -26 -25 -25 -25 -24 -23 -23 -22 -22 -20 -20 -19 -19 -17 -17 -16 -14 -13 -13 -12 -12 -12 -11 -12 -12 -12 -12 -12 -12 -12 -12 -12

GFSSW_500_temp_027.txt.gz
Temp
-10 -10 -10 -10 -10 -10 -10 -10 -10 -10 -10 -10 -10 -10 -11 -11 -10 -11 -10 -11 -10 -10 -11 -11 -11 -11 -11 -10 -10 -10 -9 -9 -9 -9 -10 -10 -11 -11 -11 -10 -11 -10 -11 -11 -11
-11 -11 -11 -11 -11 -10 -10 -10 -10 -10 -11 -11 -10 -10 -11 -11 -11 -11 -11 -11 -11 -11 -11 -11 -11 -12 -11 -11 -11 -10 -9 -10 -10 -10 -11 -10 -11 -11 -11 -11 -11 -10 -10 -12 -11
-10 -10 -10 -10 -11 -11 -11 -11 -11 -11 -11 -11 -11 -11 -11 -10 -11 -11 -11 -11 -12 -12 -12 -12 -12 -11 -11 -10 -10 -10 -9 -10 -11 -11 -11 -11 -11 -11 -11 -11 -12 -12 -10 -11 -11
-10 -10 -10 -10 -10 -10 -10 -10 -10 -10 -10 -10 -11 -11 -10 -11 -10 -9 -10 -11 -12 -12 -12 -12 -12 -11 -11 -10 -11 -11 -10 -11 -10 -11 -11 -11 -11 -11 -12 -11 -11 -10 -10 -10 -11
-11 -11 -10 -10 -10 -10 -10 -10 -10 -10 -10 -10 -10 -10 -10 -10 -10 -10 -10 -11 -11 -12 -12 -12 -12 -12 -11 -11 -11 -10 -10 -11 -10 -10 -11 -11 -10 -11 -10 -11 -11 -10 -10 -10 -11
-11 -11 -10 -10 -10 -10 -10 -10 -10 -10 -10 -10 -10 -10 -10 -10 -10 -10 -10 -11 -11 -12 -11 -12 -12 -12 -11 -11 -11 -11 -11 -11 -11 -11 -11 -11 -10 -11 -10 -11 -10 -10 -10 -11 -12
-11 -11 -10 -10 -10 -10 -10 -10 -10 -10 -10 -10 -10 -10 -10 -10 -10 -10 -10 -10 -11 -11 -11 -11 -11 -12 -11 -10 -11 -12 -12 -11 -10 -11 -10 -11 -9 -10 -10 -10 -10 -10 -10 -11 -12
-11 -11 -11 -11 -11 -10 -10 -10 -10 -10 -10 -9 -9 -9 -9 -10 -10 -10 -10 -10 -10 -10 -11 -11 -11 -11 -11 -11 -11 -11 -11 -10 -9 -10 -11 -13 -8 -9 -10 -11 -10 -11 -10 -11 -11
-11 -11 -11 -11 -11 -11 -11 -10 -10 -10 -10 -10 -10 -9 -9 -9 -9 -10 -10 -10 -10 -10 -10 -11 -11 -11 -12 -11 -12 -10 -9 -8 -10 -11 -12 -13 -8 -9 -10 -10 -11 -11 -11 -11 -11
-12 -11 -11 -11 -11 -11 -10 -10 -10 -10 -10 -10 -10 -10 -10 -9 -9 -9 -9 -10 -10 -10 -10 -10 -11 -11 -11 -11 -9 -8 -9 -10 -9 -10 -13 -13 -11 -11 -12 -10 -11 -11 -12 -10 -10
-11 -11 -11 -11 -10 -10 -10 -10 -10 -10 -10 -10 -10 -9 -9 -9 -9 -9 -9 -9 -10 -10 -10 -11 -12 -10 -9 -9 -10 -10 -11 -10 -10 -10 -13 -11 -12 -12 -12 -10 -11 -11 -11 -11 -10
-11 -11 -11 -10 -10 -10 -10 -10 -10 -10 -10 -11 -10 -10 -9 -10 -9 -9 -10 -9 -9 -10 -11 -12 -10 -8 -10 -10 -11 -11 -11 -10 -10 -11 -13 -12 -13 -12 -11 -10 -10 -10 -10 -9 -9
-11 -11 -10 -11 -11 -12 -13 -14 -13 -13 -11 -12 -14 -12 -12 -12 -11 -10 -11 -10 -10 -10 -11 -12 -8 -11 -10 -10 -10 -10 -10 -10 -10 -11 -13 -13 -12 -9 -10 -10 -9 -9 -9 -9 -9
-11 -11 -12 -15 -15 -18 -18 -19 -20 -20 -15 -18 -16 -16 -16 -16 -14 -13 -13 -12 -11 -11 -12 -11 -9 -11 -11 -11 -10 -10 -10 -10 -11 -11 -11 -12 -10 -9 -10 -9 -9 -9 -9 -10 -10
-12 -15 -18 -19 -21 -22 -22 -22 -22 -21 -21 -23 -22 -21 -21 -20 -19 -17 -16 -15 -14 -13 -14 -9 -10 -10 -11 -9 -11 -9 -12 -12 -11 -11 -11 -11 -11 -8 -10 -9 -10 -10 -10 -10 -10
-18 -20 -22 -22 -23 -24 -24 -24 -23 -24 -23 -24 -24 -23 -23 -23 -23 -21 -20 -18 -17 -17 -15 -11 -12 -11 -10 -11 -12 -11 -12 -13 -13 -11 -11 -9 -11 -7 -8 -10 -10 -10 -10 -10 -10
-21 -23 -23 -24 -24 -24 -25 -25 -24 -24 -25 -25 -24 -24 -24 -24 -24 -24 -23 -23 -22 -21 -18 -12 -14 -12 -12 -12 -12 -12 -12 -13 -13 -12 -8 -10 -11 -7 -9 -10 -9 -10 -9 -10 -11
-23 -24 -24 -24 -25 -25 -26 -25 -25 -25 -26 -26 -25 -25 -24 -25 -24 -24 -23 -24 -24 -21 -21 -18 -18 -13 -11 -10 -10 -11 -12 -10 -9 -10 -10 -11 -9 -8 -10 -9 -10 -10 -11 -10 -10
-23 -24 -24 -25 -25 -26 -26 -25 -24 -26 -25 -25 -25 -25 -26 -25 -25 -24 -24 -24 -23 -22 -21 -21 -20 -16 -15 -12 -12 -11 -14 -9 -13 -12 -12 -11 -11 -11 -10 -11 -10 -10 -10 -9 -10
-24 -24 -24 -25 -26 -26 -26 -26 -26 -25 -25 -25 -25 -25 -25 -25 -24 -24 -24 -23 -23 -22 -21 -21 -20 -18 -17 -15 -14 -14 -10 -14 -12 -11 -12 -12 -11 -12 -11 -11 -10 -10 -10 -10 -11
-23 -24 -24 -25 -25 -26 -26 -26 -26 -26 -26 -25 -25 -25 -25 -25 -25 -25 -25 -25 -23 -23 -21 -21 -20 -19 -19 -18 -15 -14 -15 -13 -12 -13 -12 -12 -11 -12 -10 -11 -10 -11 -10 -11 -12
-24 -24 -24 -24 -25 -25 -26 -26 -26 -26 -26 -26 -25 -25 -25 -25 -25 -26 -25 -25 -23 -22 -22 -22 -21 -19 -19 -18 -18 -15 -15 -13 -11 -10 -13 -12 -12 -11 -11 -11 -10 -11 -11 -11 -12
-23 -23 -24 -24 -25 -25 -25 -25 -26 -26 -26 -26 -25 -25 -25 -25 -24 -24 -24 -24 -23 -22 -22 -21 -20 -18 -18 -16 -18 -17 -16 -14 -12 -14 -13 -12 -12 -11 -11 -11 -11 -11 -11 -11 -12
-22 -23 -23 -24 -25 -25 -25 -25 -25 -25 -26 -26 -25 -25 -24 -24 -24 -24 -24 -23 -23 -22 -22 -21 -20 -17 -16 -17 -17 -17 -16 -15 -13 -14 -13 -13 -12 -12 -11 -12 -11 -11 -11 -12 -12
-22 -23 -23 -23 -24 -24 -24 -25 -25 -25 -26 -25 -25 -25 -25 -25 -24 -24 -24 -23 -23 -22 -22 -21 -20 -18 -16 -16 -16 -16 -16 -15 -15 -14 -13 -13 -13 -13 -12 -13 -12 -11 -12 -12 -12
-23 -23 -23 -23 -23 -24 -24 -24 -25 -25 -25 -25 -25 -25 -25 -25 -24 -24 -24 -23 -22 -22 -22 -21 -20 -19 -19 -16 -16 -16 -16 -15 -15 -15 -14 -13 -13 -13 -13 -13 -12 -12 -12 -12 -12
-22 -23 -23 -23 -23 -23 -23 -24 -24 -24 -24 -24 -25 -25 -25 -24 -24 -24 -24 -23 -22 -22 -21 -21 -20 -19 -19 -17 -16 -17 -16 -15 -15 -15 -15 -14 -13 -13 -12 -12 -12 -12 -12 -13 -12

GFSSW_500_temp_030.txt.gz
Temp
-11 -11 -10 -10 -10 -10 -10 -10 -10 -10 -10 -10 -10 -10 -10 -10 -10 -11 -11 -10 -10 -10 -10 -10 -10 -10 -10 -10 -10 -11 -10 -9 -9 -9 -9 -10 -10 -10 -10 -11 -11 -10 -9 -9 -9
-11 -11 -11 -11 -10 -10 -10 -10 -9 -9 -9 -9 -9 -10 -10 -10 -10 -10 -11 -11 -10 -11 -11 -10 -10 -11 -11 -11 -11 -10 -10 -9 -9 -10 -10 -10 -10 -10 -10 -10 -10 -10 -11 -10 -11
-10 -10 -10 -10 -11 -11 -11 -10 -10 -10 -10 -9 -9 -10 -10 -10 -10 -10 -10 -10 -11 -11 -11 -11 -11 -11 -11 -11 -11 -11 -9 -10 -10 -10 -10 -10 -10 -10 -10 -10 -10 -10 -10 -11 -10
-11 -11 -11 -11 -11 -11 -11 -11 -10 -11 -10 -10 -10 -10 -10 -10 -10 -9 -10 -10 -10 -11 -11 -11 -11 -11 -11 -11 -11 -11 -10 -10 -10 -10 -11 -10 -10 -10 -10 -10 -10 -10 -11 -11 -10
-11 -11 -11 -11 -11 -11 -11 -11 -11 -11 -11 -10 -10 -10 -10 -10 -10 -10 -10 -10 -10 -11 -11 -12 -12 -12 -11 -12 -12 -10 -10 -11 -10 -10 -10 -10 -10 -11 -10 -10 -10 -10 -10 -10 -10
-11 -11 -11 -11 -11 -11 -11 -11 -10 -11 -11 -11 -11 -10 -10 -10 -10 -11 -10 -10 -10 -10 -11 -11 -12 -12 -11 -11 -12 -11 -12 -11 -11 -11 -11 -11 -10 -10 -10 -10 -10 -10 -9 -10 -11
-11 -11 -11 -11 -11 -11 -11 -11 -11 -10 -10 -10 -10 -10 -10 -10 -10 -10 -10 -10 -10 -10 -11 -10 -11 -12 -11 -11 -11 -12 -12 -11 -11 -11 -10 -12 -10 -10 -9 -10 -10 -10 -10 -10 -11
-12 -12 -12 -11 -11 -11 -11 -11 -11 -10 -10 -10 -10 -10 -10 -10 -10 -10 -10 -10 -10 -10 -10 -11 -11 -11 -11 -11 -12 -12 -13 -10 -9 -11 -9 -12 -10 -9 -10 -11 -10 -11 -11 -11 -11
-12 -12 -12 -12 -11 -11 -11 -11 -11 -11 -10 -10 -10 -10 -10 -10 -10 -10 -10 -10 -10 -10 -10 -10 -11 -11 -12 -12 -12 -11 -10 -10 -9 -9 -11 -12 -11 -8 -10 -11 -11 -10 -10 -10 -10
-12 -12 -12 -12 -12 -11 -11 -11 -11 -11 -11 -10 -11 -10 -10 -9 -10 -10 -10 -10 -10 -10 -10 -10 -11 -11 -11 -11 -9 -9 -10 -8 -9 -10 -11 -12 -12 -9 -10 -12 -11 -11 -11 -10 -10
-12 -12 -11 -11 -11 -11 -11 -11 -10 -10 -10 -10 -11 -10 -10 -10 -10 -10 -10 -10 -10 -10 -10 -11 -11 -10 -9 -10 -10 -11 -10 -10 -10 -11 -10 -12 -11 -9 -10 -12 -11 -12 -9 -9 -10
-11 -11 -11 -11 -10 -10 -10 -11 -11 -11 -10 -10 -11 -11 -10 -11 -10 -10 -10 -10 -10 -10 -10 -12 -10 -9 -10 -10 -11 -11 -10 -10 -10 -11 -12 -13 -12 -10 -10 -9 -11 -11 -10 -9 -10
-11 -11 -11 -11 -11 -12 -13 -15 -15 -14 -11 -12 -14 -12 -13 -12 -11 -11 -11 -11 -10 -10 -10 -11 -9 -11 -11 -11 -10 -10 -9 -10 -10 -12 -11 -12 -13 -10 -9 -9 -10 -10 -10 -9 -9
-11 -11 -13 -15 -18 -21 -22 -22 -21 -21 -18 -19 -18 -16 -15 -15 -13 -14 -13 -13 -12 -11 -12 -11 -10 -10 -11 -11 -10 -10 -10 -11 -10 -11 -9 -13 -11 -8 -8 -9 -9 -10 -9 -10 -9
-13 -15 -18 -22 -23 -24 -24 -24 -24 -22 -21 -23 -22 -23 -22 -21 -19 -19 -16 -16 -14 -14 -15 -10 -10 -11 -11 -9 -11 -9 -13 -12 -11 -11 -11 -12 -11 -6 -9 -9 -10 -10 -10 -10 -9
-17 -19 -22 -23 -23 -24 -24 -24 -24 -23 -23 -23 -23 -21 -22 -22 -21 -19 -20 -20 -18 -17 -16 -11 -13 -12 -10 -10 -12 -11 -12 -13 -12 -12 -14 -8 -10 -6 -8 -9 -10 -10 -9 -9 -9
-19 -21 -23 -23 -24 -25 -25 -25 -24 -23 -24 -24 -24 -24 -23 -22 -22 -21 -22 -22 -21 -21 -18 -13 -15 -12 -12 -11 -12 -12 -12 -12 -13 -12 -8 -9 -10 -7 -8 -9 -10 -9 -9 -9 -9
-20 -22 -23 -23 -24 -25 -25 -25 -24 -24 -24 -24 -24 -23 -23 -23 -24 -24 -23 -23 -22 -22 -21 -18 -18 -15 -12 -10 -11 -13 -12 -12 -10 -9 -8 -9 -9 -8 -10 -10 -10 -9 -9 -9 -9
-21 -22 -22 -24 -24 -24 -24 -24 -25 -25 -25 -24 -24 -24 -24 -24 -23 -24 -24 -23 -23 -22 -22 -20 -20 -16 -16 -14 -14 -14 -16 -10 -13 -13 -12 -10 -10 -9 -11 -10 -10 -9 -10 -9 -9
-21 -22 -22 -23 -24 -24 -24 -24 -24 -26 -25 -24 -24 -24 -24 -23 -23 -24 -23 -23 -23 -23 -22 -21 -20 -19 -16 -16 -14 -16 -14 -14 -14 -13 -13 -10 -10 -11 -11 -10 -10 -10 -10 -10 -10
-21 -22 -22 -23 -24 -24 -24 -24 -25 -25 -26 -25 -25 -25 -24 -24 -24 -23 -23 -23 -23 -23 -23 -22 -21 -20 -19 -19 -16 -16 -15 -16 -14 -14 -12 -12 -11 -11 -11 -11 -10 -10 -10 -9 -11
-21 -22 -23 -23 -23 -23 -24 -24 -25 -26 -26 -25 -25 -25 -24 -24 -24 -23 -24 -23 -23 -23 -23 -23 -21 -20 -20 -20 -20 -18 -16 -16 -15 -13 -13 -13 -11 -11 -11 -10 -11 -10 -10 -10 -11
-21 -22 -22 -23 -23 -23 -24 -24 -24 -25 -25 -25 -25 -25 -25 -24 -24 -23 -23 -22 -23 -23 -23 -23 -21 -20 -20 -19 -19 -18 -17 -16 -16 -15 -14 -12 -12 -12 -11 -10 -11 -10 -10 -11 -11
-21 -21 -22 -23 -23 -23 -23 -24 -24 -24 -24 -24 -25 -25 -25 -24 -24 -24 -23 -23 -23 -23 -22 -22 -21 -21 -20 -19 -19 -18 -17 -16 -16 -15 -14 -12 -12 -11 -11 -11 -11 -11 -10 -11 -11
-21 -21 -22 -22 -23 -23 -23 -23 -24 -24 -24 -24 -24 -24 -24 -24 -24 -23 -23 -23 -23 -22 -22 -21 -21 -21 -20 -18 -18 -17 -17 -17 -15 -14 -14 -12 -13 -12 -11 -11 -11 -11 -11 -11 -11
-21 -21 -22 -22 -22 -23 -23 -23 -23 -24 -24 -24 -24 -24 -24 -24 -23 -23 -23 -23 -23 -22 -21 -21 -21 -21 -20 -18 -17 -17 -16 -16 -15 -15 -13 -13 -12 -12 -11 -12 -11 -11 -11 -11 -12
-20 -21 -20 -21 -22 -23 -23 -23 -23 -23 -24 -24 -24 -24 -24 -24 -24 -23 -23 -23 -22 -21 -21 -21 -21 -20 -19 -18 -17 -17 -15 -16 -15 -15 -13 -13 -13 -12 -12 -12 -12 -12 -11 -12 -13

GFSSW_500_temp_033.txt.gz
Temp
-11 -11 -11 -10 -10 -10 -10 -10 -10 -10 -10 -10 -10 -11 -10 -10 -10 -9 -9 -11 -11 -11 -10 -10 -10 -11 -10 -10 -10 -10 -8 -8 -8 -9 -8 -10 -9 -8 -10 -10 -10 -9 -10 -10 -10
-10 -11 -11 -11 -11 -11 -10 -10 -10 -9 -9 -9 -10 -10 -10 -10 -10 -10 -10 -11 -11 -12 -11 -11 -11 -11 -10 -10 -10 -10 -8 -8 -9 -9 -10 -10 -10 -10 -10 -9 -10 -10 -10 -10 -10
-10 -10 -11 -11 -11 -11 -11 -11 -10 -10 -10 -10 -9 -9 -9 -9 -10 -11 -11 -10 -11 -11 -11 -11 -12 -11 -10 -10 -10 -10 -9 -9 -8 -10 -11 -11 -11 -9 -10 -9 -10 -9 -10 -10 -10
-11 -11 -11 -11 -11 -11 -11 -11 -11 -11 -10 -10 -10 -10 -9 -9 -9 -9 -9 -10 -10 -11 -11 -11 -11 -11 -11 -10 -11 -10 -9 -10 -9 -10 -10 -11 -11 -10 -10 -9 -9 -9 -10 -9 -10
-11 -11 -11 -11 -11 -11 -11 -11 -11 -11 -11 -11 -10 -10 -10 -9 -9 -10 -10 -10 -10 -10 -10 -11 -11 -12 -11 -11 -11 -11 -10 -11 -11 -11 -11 -10 -11 -10 -10 -11 -10 -10 -11 -11 -10
-11 -11 -11 -11 -11 -11 -11 -11 -11 -11 -11 -11 -11 -10 -10 -10 -10 -11 -10 -9 -9 -10 -10 -11 -11 -11 -11 -12 -11 -11 -12 -11 -12 -11 -11 -11 -11 -11 -10 -10 -10 -10 -10 -10 -10
-11 -11 -11 -11 -11 -11 -11 -11 -11 -11 -11 -11 -11 -11 -10 -10 -10 -10 -10 -10 -10 -10 -10 -11 -11 -11 -11 -11 -11 -12 -12 -11 -10 -10 -10 -12 -10 -8 -10 -10 -10 -10 -9 -10 -10
-12 -12 -12 -12 -12 -12 -12 -12 -11 -11 -11 -11 -11 -11 -10 -11 -10 -10 -10 -10 -10 -10 -10 -11 -11 -11 -11 -10 -11 -11 -12 -10 -9 -10 -10 -12 -7 -9 -10 -10 -10 -10 -10 -9 -9
-12 -12 -12 -12 -12 -12 -12 -12 -11 -11 -11 -11 -11 -11 -10 -11 -11 -11 -10 -10 -10 -10 -11 -11 -11 -11 -11 -11 -11 -11 -10 -10 -8 -9 -10 -11 -9 -10 -10 -10 -10 -10 -10 -10 -9
-12 -12 -12 -12 -12 -11 -11 -11 -11 -11 -11 -11 -11 -11 -11 -11 -10 -11 -10 -10 -10 -10 -11 -11 -11 -11 -11 -10 -9 -9 -10 -8 -8 -10 -11 -11 -11 -9 -10 -10 -10 -10 -9 -9 -8
-12 -12 -11 -11 -11 -10 -10 -10 -10 -10 -11 -11 -11 -11 -11 -11 -11 -11 -11 -11 -10 -10 -10 -11 -11 -10 -9 -10 -10 -10 -10 -10 -10 -11 -11 -11 -12 -10 -9 -10 -10 -9 -9 -9 -10
-11 -11 -11 -11 -11 -11 -11 -12 -12 -11 -11 -14 -11 -12 -12 -13 -11 -11 -11 -11 -11 -11 -11 -11 -10 -9 -10 -10 -11 -11 -10 -10 -10 -11 -11 -10 -12 -10 -9 -9 -10 -9 -8 -9 -9
-11 -11 -12 -12 -13 -14 -16 -19 -20 -22 -17 -18 -17 -14 -14 -13 -12 -12 -12 -12 -12 -11 -11 -11 -10 -10 -10 -11 -11 -10 -10 -10 -10 -12 -10 -10 -13 -10 -8 -8 -8 -9 -9 -10 -9
-12 -13 -14 -16 -18 -20 -22 -23 -24 -24 -22 -22 -21 -21 -20 -16 -15 -15 -14 -14 -13 -13 -14 -11 -10 -10 -10 -10 -10 -10 -11 -11 -11 -12 -9 -13 -12 -9 -8 -8 -9 -9 -9 -9 -9
-14 -15 -17 -18 -20 -22 -23 -24 -24 -24 -23 -22 -22 -22 -22 -22 -21 -18 -16 -15 -15 -15 -15 -11 -11 -12 -11 -10 -10 -9 -11 -12 -12 -12 -12 -11 -12 -6 -9 -8 -8 -9 -9 -9 -9
-16 -17 -19 -20 -22 -22 -24 -24 -24 -23 -23 -23 -24 -24 -23 -22 -22 -21 -21 -19 -18 -19 -15 -12 -13 -14 -12 -11 -11 -11 -11 -13 -13 -12 -12 -9 -11 -5 -8 -8 -8 -9 -9 -9 -9
-17 -18 -19 -21 -22 -22 -23 -23 -24 -23 -24 -24 -24 -23 -23 -23 -23 -23 -22 -21 -21 -21 -18 -16 -16 -15 -13 -12 -12 -11 -13 -13 -13 -12 -8 -9 -10 -7 -8 -9 -10 -9 -9 -9 -8
-18 -19 -20 -21 -21 -22 -23 -23 -23 -24 -24 -24 -24 -23 -23 -23 -22 -23 -23 -22 -22 -21 -22 -19 -18 -15 -14 -14 -13 -12 -13 -13 -11 -10 -8 -10 -8 -7 -9 -10 -11 -10 -8 -8 -8
-18 -20 -20 -21 -22 -22 -23 -23 -23 -25 -25 -24 -24 -23 -23 -24 -23 -23 -24 -23 -23 -22 -22 -22 -20 -19 -18 -15 -16 -14 -13 -11 -13 -13 -12 -9 -9 -9 -9 -9 -11 -9 -9 -8 -9
-18 -20 -20 -21 -22 -22 -23 -23 -24 -24 -25 -25 -25 -24 -23 -24 -23 -23 -23 -23 -23 -23 -22 -22 -20 -21 -20 -16 -15 -16 -13 -14 -14 -13 -12 -9 -9 -9 -10 -10 -10 -10 -9 -9 -10
-18 -19 -20 -21 -22 -22 -23 -23 -24 -24 -24 -25 -25 -24 -24 -24 -23 -23 -23 -23 -23 -23 -23 -22 -22 -20 -20 -20 -18 -16 -16 -15 -14 -15 -13 -10 -8 -10 -11 -11 -11 -10 -10 -10 -10
-19 -19 -20 -20 -22 -22 -23 -23 -24 -24 -24 -25 -24 -24 -24 -24 -24 -24 -23 -23 -22 -22 -23 -22 -22 -21 -21 -20 -20 -18 -17 -17 -16 -14 -14 -12 -9 -11 -11 -12 -11 -11 -10 -10 -10
-19 -19 -20 -21 -21 -22 -23 -23 -24 -24 -24 -24 -24 -24 -24 -24 -23 -23 -23 -23 -23 -23 -22 -23 -22 -22 -21 -20 -19 -19 -17 -17 -17 -17 -15 -12 -10 -12 -12 -12 -12 -11 -10 -10 -10
-19 -19 -20 -21 -21 -22 -23 -23 -24 -24 -24 -24 -24 -24 -24 -23 -24 -23 -23 -23 -23 -23 -23 -22 -23 -22 -21 -21 -19 -19 -18 -17 -17 -16 -13 -10 -11 -13 -12 -12 -12 -11 -10 -10 -10
-19 -19 -19 -20 -21 -22 -22 -23 -23 -23 -24 -24 -24 -24 -24 -23 -23 -23 -23 -23 -23 -23 -23 -23 -22 -22 -22 -21 -20 -19 -19 -17 -17 -14 -12 -12 -12 -12 -12 -12 -11 -10 -10 -10 -10
-19 -19 -20 -20 -21 -21 -22 -23 -23 -23 -23 -24 -24 -24 -24 -23 -23 -23 -23 -23 -23 -23 -22 -22 -22 -21 -21 -21 -20 -19 -19 -18 -16 -14 -10 -12 -12 -12 -12 -10 -11 -10 -11 -11 -10
-19 -19 -19 -19 -20 -21 -22 -23 -23 -23 -24 -23 -23 -23 -24 -23 -23 -23 -23 -23 -23 -22 -22 -22 -21 -21 -20 -20 -20 -19 -18 -18 -17 -15 -12 -13 -12 -13 -13 -10 -12 -11 -11 -11 -11

GFSSW_500_temp_036.txt.gz
Temp
-11 -11 -11 -11 -11 -11 -10 -9 -9 -9 -9 -9 -9 -9 -10 -10 -10 -10 -9 -10 -10 -10 -10 -10 -10 -10 -10 -10 -10 -10 -8 -8 -8 -8 -9 -11 -8 -10 -10 -10 -10 -9 -10 -10 -9
-11 -11 -11 -11 -11 -11 -11 -11 -10 -10 -9 -9 -9 -9 -9 -9 -10 -10 -10 -10 -10 -10 -10 -11 -11 -11 -10 -10 -10 -10 -9 -9 -9 -9 -9 -11 -8 -10 -10 -10 -9 -10 -9 -10 -10
-11 -11 -11 -11 -11 -11 -11 -11 -11 -11 -10 -10 -9 -9 -9 -9 -10 -10 -10 -10 -11 -11 -10 -10 -11 -11 -10 -10 -9 -9 -8 -9 -9 -9 -10 -10 -10 -9 -10 -10 -10 -10 -9 -9 -10
-11 -11 -11 -11 -11 -11 -11 -11 -11 -11 -11 -11 -10 -10 -9 -9 -9 -9 -10 -10 -10 -11 -11 -11 -11 -11 -10 -10 -10 -11 -10 -10 -10 -10 -11 -10 -11 -10 -10 -9 -10 -10 -10 -9 -9
-12 -12 -11 -12 -12 -11 -11 -11 -11 -11 -11 -11 -11 -11 -11 -10 -9 -10 -10 -10 -10 -11 -12 -11 -11 -11 -11 -11 -12 -10 -10 -10 -10 -10 -10 -10 -10 -10 -10 -10 -10 -10 -10 -10 -10
-12 -12 -12 -12 -12 -12 -12 -12 -11 -11 -11 -11 -11 -11 -11 -11 -11 -11 -10 -9 -10 -11 -11 -11 -11 -11 -11 -11 -11 -10 -11 -10 -11 -10 -10 -10 -10 -9 -9 -10 -9 -10 -10 -10 -10
-12 -12 -12 -12 -12 -12 -12 -12 -11 -11 -12 -11 -11 -11 -11 -11 -10 -11 -11 -11 -10 -11 -11 -11 -12 -12 -11 -11 -10 -10 -11 -11 -10 -10 -10 -11 -9 -8 -8 -10 -11 -11 -10 -10 -10
-12 -12 -12 -12 -12 -12 -12 -12 -12 -12 -11 -11 -11 -11 -11 -11 -11 -11 -11 -11 -11 -11 -11 -11 -12 -12 -11 -11 -11 -11 -11 -10 -8 -10 -10 -12 -6 -8 -10 -10 -10 -11 -11 -10 -10
-13 -12 -12 -12 -12 -12 -12 -12 -12 -11 -11 -11 -11 -11 -11 -11 -11 -11 -11 -11 -11 -11 -11 -12 -12 -12 -12 -11 -11 -11 -9 -9 -8 -11 -11 -12 -6 -9 -10 -11 -10 -10 -10 -9 -9
-13 -12 -12 -12 -12 -11 -11 -11 -11 -11 -11 -11 -11 -11 -11 -11 -11 -11 -11 -11 -11 -11 -11 -11 -11 -11 -11 -11 -10 -10 -9 -9 -9 -10 -11 -11 -8 -9 -10 -10 -11 -10 -9 -9 -9
-13 -12 -12 -11 -11 -11 -11 -11 -11 -11 -11 -11 -10 -11 -11 -11 -11 -11 -11 -11 -11 -11 -11 -11 -11 -10 -10 -11 -10 -11 -10 -10 -10 -11 -11 -11 -10 -9 -10 -10 -10 -9 -9 -9 -9
-13 -12 -12 -11 -11 -11 -11 -12 -13 -13 -13 -19 -16 -15 -12 -14 -11 -11 -12 -12 -12 -11 -11 -11 -10 -10 -11 -11 -11 -11 -11 -10 -10 -11 -11 -11 -11 -9 -9 -9 -10 -9 -9 -8 -8
-13 -13 -13 -12 -12 -13 -14 -14 -18 -21 -23 -24 -23 -22 -20 -18 -16 -16 -15 -14 -13 -13 -12 -12 -11 -11 -11 -11 -11 -10 -11 -10 -11 -11 -11 -12 -10 -9 -9 -9 -9 -9 -9 -8 -9
-13 -14 -15 -14 -15 -17 -19 -21 -22 -23 -24 -24 -23 -23 -23 -22 -21 -19 -17 -15 -14 -14 -13 -12 -11 -11 -11 -11 -11 -10 -11 -11 -11 -11 -10 -12 -9 -10 -8 -8 -8 -8 -8 -8 -8
-15 -15 -16 -16 -17 -18 -20 -21 -22 -23 -23 -23 -23 -23 -24 -23 -23 -23 -21 -19 -17 -16 -15 -12 -12 -13 -12 -11 -11 -10 -11 -11 -11 -11 -11 -10 -12 -6 -8 -8 -8 -8 -8 -9 -9
-16 -16 -17 -18 -18 -19 -21 -21 -22 -22 -22 -23 -23 -23 -24 -23 -23 -22 -22 -22 -20 -19 -15 -13 -15 -15 -13 -13 -12 -11 -11 -11 -11 -11 -11 -10 -10 -6 -8 -8 -8 -8 -9 -10 -9
-16 -17 -17 -18 -19 -20 -21 -21 -22 -23 -24 -23 -23 -23 -23 -23 -23 -22 -22 -22 -22 -21 -19 -18 -18 -16 -14 -14 -13 -12 -12 -12 -11 -11 -9 -10 -10 -6 -8 -8 -9 -9 -9 -9 -8
-17 -17 -18 -18 -19 -20 -21 -22 -22 -23 -24 -24 -24 -24 -24 -23 -23 -22 -22 -23 -21 -21 -21 -20 -19 -16 -16 -16 -15 -14 -13 -12 -11 -10 -9 -10 -8 -7 -8 -8 -10 -10 -9 -9 -8
-18 -18 -18 -18 -19 -20 -21 -22 -23 -23 -24 -24 -24 -24 -25 -24 -23 -24 -23 -23 -23 -22 -22 -22 -21 -19 -18 -17 -16 -15 -13 -13 -12 -12 -11 -9 -8 -8 -8 -9 -10 -11 -9 -9 -9
-18 -18 -18 -19 -19 -20 -22 -22 -23 -23 -24 -24 -25 -24 -24 -24 -24 -24 -24 -23 -23 -23 -22 -22 -21 -21 -21 -20 -17 -16 -16 -16 -14 -13 -11 -9 -8 -7 -8 -9 -10 -11 -10 -9 -9
-18 -18 -18 -18 -19 -20 -22 -23 -23 -24 -24 -24 -24 -24 -24 -24 -24 -23 -23 -23 -23 -23 -23 -22 -22 -21 -21 -21 -19 -17 -17 -17 -17 -14 -12 -9 -8 -8 -10 -10 -11 -11 -10 -10 -9
-18 -18 -18 -19 -19 -20 -22 -23 -23 -23 -24 -24 -24 -24 -24 -24 -24 -24 -24 -23 -23 -23 -23 -22 -21 -21 -21 -21 -20 -20 -18 -18 -17 -13 -11 -9 -8 -8 -10 -11 -11 -11 -10 -10 -10
-18 -19 -18 -19 -19 -20 -22 -23 -24 -23 -23 -24 -24 -24 -24 -24 -23 -23 -23 -23 -23 -23 -23 -23 -22 -22 -22 -22 -21 -20 -20 -19 -17 -15 -10 -10 -8 -12 -11 -11 -11 -11 -10 -10 -9
-18 -19 -19 -19 -19 -20 -21 -23 -23 -23 -23 -23 -23 -24 -24 -24 -24 -23 -23 -23 -23 -23 -23 -23 -23 -22 -22 -22 -22 -21 -21 -19 -18 -15 -11 -9 -9 -11 -12 -11 -10 -11 -11 -10 -10
-18 -18 -18 -19 -20 -20 -21 -21 -23 -22 -23 -23 -24 -24 -24 -23 -23 -23 -23 -22 -23 -23 -23 -23 -22 -22 -22 -22 -22 -21 -20 -20 -18 -16 -12 -10 -10 -13 -12 -13 -12 -12 -11 -10 -11
-18 -19 -19 -19 -20 -20 -20 -21 -22 -23 -22 -23 -23 -24 -24 -23 -24 -23 -23 -23 -23 -23 -22 -22 -22 -22 -22 -22 -22 -21 -20 -20 -19 -17 -13 -12 -11 -13 -13 -12 -12 -11 -12 -12 -11
-18 -18 -19 -19 -20 -20 -20 -20 -22 -22 -23 -22 -23 -23 -23 -23 -24 -23 -23 -23 -22 -22 -22 -22 -22 -21 -21 -21 -21 -20 -20 -20 -19 -18 -14 -12 -12 -13 -12 -11 -11 -10 -13 -12 -12

GFSSW_500_temp_042.txt.gz
Temp
-12 -12 -12 -12 -12 -11 -11 -11 -11 -11 -11 -11 -11 -10 -10 -10 -10 -10 -10 -11 -12 -12 -12 -12 -11 -11 -10 -9 -9 -9 -8 -8 -8 -8 -8 -9 -9 -9 -9 -8 -8 -8 -8 -8 -8
-12 -12 -12 -12 -12 -12 -11 -11 -11 -11 -11 -11 -10 -11 -11 -10 -10 -10 -10 -10 -11 -11 -12 -12 -12 -11 -11 -10 -9 -9 -8 -8 -8 -9 -9 -10 -9 -9 -9 -9 -9 -8 -8 -8 -8
-12 -12 -12 -12 -12 -12 -12 -11 -11 -11 -11 -11 -11 -11 -10 -10 -10 -10 -10 -10 -10 -10 -11 -12 -12 -11 -11 -11 -10 -10 -8 -9 -9 -9 -10 -11 -10 -10 -9 -10 -10 -9 -8 -8 -8
-12 -12 -12 -12 -12 -12 -12 -12 -11 -11 -11 -11 -11 -11 -11 -10 -11 -11 -11 -11 -11 -10 -10 -11 -12 -12 -11 -11 -11 -11 -10 -10 -9 -10 -11 -11 -10 -9 -9 -9 -10 -10 -9 -9 -9
-12 -12 -12 -12 -12 -12 -12 -12 -12 -12 -12 -11 -11 -11 -11 -11 -11 -11 -11 -11 -11 -11 -11 -11 -11 -12 -12 -11 -11 -11 -11 -10 -10 -11 -12 -11 -10 -9 -8 -9 -9 -9 -9 -9 -9
-12 -12 -12 -12 -12 -12 -12 -12 -12 -12 -12 -12 -12 -12 -12 -12 -11 -11 -11 -11 -11 -11 -11 -11 -11 -12 -12 -12 -12 -11 -11 -11 -11 -11 -11 -11 -10 -9 -8 -9 -9 -9 -10 -10 -9
-12 -12 -12 -12 -12 -12 -12 -12 -12 -12 -12 -12 -12 -12 -12 -12 -12 -12 -11 -11 -11 -11 -11 -11 -11 -12 -12 -11 -12 -12 -12 -11 -11 -11 -11 -12 -10 -9 -9 -10 -9 -9 -9 -9 -9
-13 -12 -12 -12 -12 -12 -12 -12 -12 -12 -12 -12 -12 -12 -12 -12 -12 -12 -12 -12 -11 -11 -11 -12 -12 -12 -11 -12 -12 -12 -12 -12 -11 -11 -11 -11 -8 -9 -10 -10 -10 -10 -10 -10 -9
-13 -13 -13 -13 -13 -13 -13 -13 -12 -12 -12 -12 -12 -12 -12 -12 -12 -12 -11 -12 -12 -12 -11 -12 -12 -12 -12 -11 -12 -12 -11 -11 -11 -11 -12 -11 -8 -9 -10 -10 -10 -10 -10 -10 -10
-14 -14 -14 -14 -13 -13 -13 -13 -13 -12 -12 -12 -12 -12 -12 -11 -11 -11 -11 -11 -11 -12 -12 -12 -12 -12 -12 -12 -11 -11 -11 -11 -11 -11 -12 -11 -9 -10 -11 -11 -10 -10 -9 -9 -9
-14 -14 -14 -14 -14 -13 -13 -13 -13 -13 -12 -12 -12 -12 -12 -12 -11 -11 -11 -11 -11 -12 -12 -12 -12 -12 -12 -12 -12 -12 -11 -11 -11 -11 -11 -11 -10 -11 -11 -10 -9 -9 -9 -8 -8
-15 -14 -14 -14 -14 -13 -13 -13 -13 -13 -13 -13 -14 -14 -14 -14 -15 -18 -17 -15 -13 -13 -13 -13 -12 -12 -12 -13 -12 -12 -12 -11 -12 -12 -11 -11 -10 -10 -10 -9 -9 -9 -8 -8 -8
-15 -15 -14 -14 -14 -14 -13 -14 -14 -14 -14 -15 -16 -16 -19 -20 -21 -22 -21 -21 -20 -19 -16 -16 -13 -13 -13 -13 -13 -13 -12 -12 -12 -12 -11 -11 -10 -10 -9 -9 -9 -8 -8 -8 -8
-15 -15 -15 -14 -14 -14 -14 -15 -15 -16 -16 -17 -18 -21 -22 -22 -23 -23 -23 -22 -22 -23 -22 -20 -17 -16 -16 -14 -13 -13 -13 -12 -12 -12 -11 -12 -10 -10 -9 -9 -8 -8 -9 -9 -8
-14 -14 -15 -15 -15 -15 -16 -16 -16 -17 -17 -18 -21 -22 -23 -23 -23 -23 -23 -23 -23 -23 -24 -22 -20 -19 -18 -16 -15 -13 -13 -13 -12 -12 -12 -11 -11 -7 -9 -8 -9 -9 -9 -9 -9
-15 -15 -15 -15 -15 -16 -16 -17 -17 -18 -19 -20 -22 -23 -23 -24 -24 -24 -23 -23 -23 -23 -23 -23 -22 -22 -21 -19 -17 -15 -15 -14 -13 -13 -12 -11 -12 -8 -9 -9 -9 -9 -9 -9 -9
-15 -15 -15 -15 -16 -16 -17 -18 -18 -18 -19 -21 -22 -23 -24 -24 -24 -24 -24 -23 -23 -23 -22 -23 -23 -23 -21 -21 -20 -17 -15 -15 -14 -13 -11 -11 -12 -9 -9 -9 -9 -9 -9 -9 -10
-15 -15 -16 -16 -16 -17 -18 -18 -19 -19 -20 -22 -23 -23 -24 -24 -25 -25 -24 -24 -23 -23 -23 -23 -22 -23 -22 -21 -20 -18 -17 -15 -13 -13 -11 -11 -10 -9 -9 -10 -9 -9 -9 -9 -10
-15 -16 -16 -17 -17 -18 -18 -19 -19 -19 -20 -22 -23 -23 -24 -24 -25 -24 -24 -24 -24 -23 -23 -22 -22 -22 -23 -21 -21 -20 -18 -16 -16 -14 -12 -11 -10 -9 -9 -9 -10 -11 -11 -10 -9
-15 -16 -17 -17 -17 -18 -19 -19 -19 -19 -21 -22 -23 -23 -24 -24 -24 -24 -24 -24 -24 -24 -24 -23 -22 -22 -22 -22 -21 -20 -19 -18 -17 -15 -12 -11 -10 -9 -9 -9 -11 -11 -11 -10 -9
-16 -16 -17 -17 -18 -19 -19 -20 -20 -20 -21 -22 -23 -23 -24 -24 -24 -24 -24 -24 -24 -24 -24 -23 -23 -22 -22 -22 -22 -21 -20 -19 -18 -16 -13 -11 -10 -10 -10 -9 -9 -10 -10 -10 -10
-16 -16 -17 -17 -18 -19 -19 -19 -20 -21 -21 -22 -23 -23 -24 -24 -24 -24 -24 -24 -24 -24 -24 -23 -23 -23 -23 -23 -23 -22 -21 -20 -18 -15 -13 -11 -11 -10 -10 -9 -9 -10 -10 -10 -10
-17 -17 -17 -17 -18 -19 -20 -20 -20 -20 -21 -22 -23 -23 -23 -24 -23 -24 -24 -24 -24 -24 -24 -24 -23 -23 -23 -23 -23 -22 -22 -21 -19 -17 -13 -12 -10 -11 -11 -10 -9 -10 -11 -10 -11
-17 -17 -17 -17 -18 -18 -20 -20 -21 -21 -22 -22 -23 -23 -23 -23 -24 -24 -24 -24 -24 -24 -23 -23 -23 -23 -23 -23 -23 -22 -22 -21 -21 -17 -14 -11 -10 -11 -12 -11 -9 -10 -11 -10 -11
-17 -17 -17 -18 -18 -18 -19 -20 -20 -21 -22 -22 -23 -23 -23 -22 -23 -24 -24 -24 -24 -23 -23 -23 -23 -23 -22 -22 -22 -22 -21 -21 -20 -17 -15 -12 -11 -10 -13 -12 -10 -12 -11 -12 -11
-18 -18 -18 -18 -19 -19 -20 -20 -21 -21 -21 -23 -23 -23 -23 -23 -23 -23 -23 -23 -23 -23 -22 -22 -22 -23 -22 -22 -22 -21 -21 -21 -20 -19 -14 -12 -11 -10 -13 -12 -11 -13 -11 -12 -11
-18 -18 -19 -18 -19 -19 -20 -20 -21 -21 -22 -22 -22 -22 -22 -22 -22 -23 -23 -23 -23 -23 -22 -22 -22 -22 -22 -22 -21 -21 -22 -22 -20 -18 -15 -13 -13 -14 -13 -12 -13 -13 -12 -12 -11

GFSSW_500_temp_045.txt.gz
Temp
-13 -12 -12 -12 -12 -12 -11 -11 -11 -11 -11 -11 -11 -11 -11 -10 -10 -10 -11 -11 -11 -11 -11 -12 -12 -11 -10 -10 -10 -10 -9 -8 -8 -8 -8 -9 -9 -9 -8 -8 -8 -8 -8 -8 -8
-12 -12 -12 -12 -12 -12 -12 -12 -11 -11 -11 -11 -11 -11 -11 -11 -11 -11 -10 -10 -11 -11 -11 -12 -12 -11 -11 -10 -10 -9 -9 -8 -8 -9 -9 -9 -9 -9 -9 -9 -9 -8 -8 -8 -8
-12 -12 -12 -12 -12 -12 -12 -12 -11 -11 -11 -11 -11 -11 -11 -11 -11 -11 -11 -11 -10 -10 -11 -11 -12 -12 -11 -11 -10 -10 -8 -9 -9 -9 -9 -9 -9 -9 -9 -9 -9 -9 -8 -9 -9
-13 -13 -13 -13 -12 -12 -12 -12 -12 -12 -11 -11 -11 -11 -11 -11 -11 -11 -11 -11 -11 -11 -11 -11 -11 -11 -11 -10 -11 -10 -10 -10 -10 -10 -10 -10 -10 -10 -9 -10 -10 -9 -9 -9 -9
-13 -13 -13 -13 -13 -13 -12 -12 -12 -12 -12 -12 -12 -11 -11 -11 -11 -11 -11 -11 -11 -11 -11 -11 -11 -11 -11 -11 -11 -10 -10 -10 -11 -11 -11 -12 -10 -10 -10 -10 -10 -10 -10 -9 -9
-13 -13 -13 -13 -13 -13 -13 -13 -12 -12 -12 -12 -12 -12 -12 -12 -12 -12 -12 -12 -12 -12 -11 -11 -11 -11 -11 -11 -11 -11 -11 -10 -11 -11 -12 -12 -10 -11 -10 -10 -10 -10 -10 -10 -9
-13 -13 -13 -14 -13 -13 -13 -13 -13 -13 -13 -13 -12 -12 -12 -12 -12 -12 -12 -12 -12 -12 -12 -12 -12 -12 -11 -11 -11 -11 -11 -11 -11 -11 -12 -12 -10 -8 -10 -10 -10 -10 -10 -10 -10
-14 -14 -13 -13 -13 -13 -13 -13 -13 -13 -13 -13 -13 -12 -12 -12 -12 -12 -12 -12 -12 -12 -12 -12 -12 -12 -12 -11 -11 -11 -12 -11 -10 -11 -11 -12 -9 -8 -11 -10 -9 -9 -9 -10 -10
-14 -14 -14 -14 -14 -14 -13 -13 -13 -13 -12 -12 -12 -12 -12 -12 -12 -12 -12 -12 -12 -12 -12 -12 -12 -12 -12 -12 -12 -12 -11 -11 -11 -11 -11 -12 -9 -10 -11 -10 -10 -10 -10 -10 -10
-15 -15 -14 -14 -14 -14 -14 -13 -13 -12 -12 -12 -13 -13 -12 -12 -12 -12 -12 -12 -12 -12 -12 -12 -12 -12 -12 -12 -12 -11 -11 -11 -11 -11 -12 -12 -10 -11 -11 -11 -10 -10 -9 -9 -9
-14 -14 -15 -14 -14 -14 -14 -13 -13 -13 -13 -13 -13 -13 -12 -12 -12 -12 -12 -12 -12 -12 -11 -11 -12 -12 -12 -12 -12 -13 -12 -12 -12 -12 -12 -12 -11 -11 -12 -11 -10 -10 -9 -9 -9
-14 -14 -14 -14 -14 -14 -14 -14 -14 -14 -14 -13 -13 -13 -13 -13 -13 -14 -14 -14 -14 -15 -13 -12 -11 -13 -12 -12 -12 -13 -13 -12 -12 -12 -12 -12 -11 -11 -10 -10 -10 -10 -9 -9 -9
-14 -14 -14 -14 -14 -14 -14 -14 -13 -13 -14 -14 -14 -14 -14 -14 -14 -17 -18 -19 -20 -21 -21 -20 -15 -15 -14 -14 -13 -13 -13 -13 -12 -12 -12 -12 -11 -10 -10 -10 -10 -9 -9 -9 -9
-14 -14 -14 -14 -14 -14 -14 -14 -14 -14 -14 -15 -15 -15 -16 -17 -18 -21 -21 -22 -22 -23 -22 -22 -21 -20 -19 -17 -16 -15 -14 -13 -13 -13 -12 -12 -11 -10 -10 -9 -9 -9 -9 -9 -9
-14 -14 -14 -14 -14 -15 -15 -15 -15 -15 -16 -16 -16 -17 -17 -18 -20 -22 -22 -23 -23 -23 -23 -22 -22 -23 -23 -21 -20 -18 -16 -15 -14 -13 -13 -12 -12 -9 -10 -9 -9 -9 -10 -10 -9
-14 -14 -14 -14 -15 -15 -15 -15 -16 -16 -17 -17 -18 -18 -18 -22 -23 -22 -23 -23 -23 -23 -23 -22 -23 -23 -23 -23 -23 -20 -19 -17 -16 -15 -13 -12 -12 -9 -10 -10 -10 -10 -10 -9 -9
-14 -14 -14 -15 -15 -15 -16 -16 -16 -17 -18 -18 -19 -19 -21 -22 -23 -23 -24 -24 -24 -23 -23 -23 -23 -22 -23 -24 -23 -23 -20 -19 -17 -15 -13 -13 -12 -10 -11 -10 -10 -10 -10 -10 -9
-15 -15 -15 -15 -15 -16 -16 -16 -17 -18 -19 -19 -19 -21 -22 -23 -24 -23 -24 -24 -24 -24 -23 -22 -23 -22 -23 -23 -23 -23 -22 -20 -18 -16 -13 -14 -12 -11 -10 -12 -10 -10 -10 -10 -9
-15 -15 -15 -15 -16 -16 -16 -17 -18 -18 -19 -19 -20 -22 -23 -23 -24 -23 -24 -24 -24 -24 -24 -23 -23 -22 -22 -23 -24 -23 -23 -21 -20 -18 -15 -13 -12 -11 -10 -11 -12 -10 -10 -9 -9
-16 -16 -16 -16 -16 -17 -17 -18 -18 -19 -19 -20 -21 -22 -23 -23 -24 -24 -24 -24 -24 -24 -24 -23 -23 -23 -22 -22 -23 -23 -22 -22 -22 -19 -15 -12 -12 -11 -11 -11 -12 -11 -10 -10 -10
-16 -16 -16 -17 -17 -17 -17 -18 -19 -19 -20 -20 -22 -22 -23 -23 -24 -24 -24 -24 -24 -24 -24 -24 -23 -23 -22 -22 -24 -24 -23 -23 -22 -19 -17 -13 -12 -12 -12 -11 -10 -11 -10 -11 -10
-16 -16 -16 -17 -17 -17 -18 -18 -19 -20 -20 -20 -22 -22 -23 -23 -23 -24 -24 -24 -24 -24 -24 -24 -23 -23 -23 -23 -23 -22 -23 -23 -22 -19 -17 -14 -13 -12 -11 -11 -11 -10 -11 -11 -10
-16 -17 -17 -17 -18 -18 -18 -18 -19 -20 -20 -21 -22 -22 -23 -22 -23 -24 -24 -24 -24 -24 -24 -24 -23 -23 -23 -23 -23 -23 -23 -23 -22 -20 -16 -14 -13 -13 -12 -11 -11 -10 -11 -11 -10
-17 -17 -17 -17 -18 -18 -19 -19 -20 -20 -20 -21 -22 -22 -22 -22 -23 -24 -24 -24 -24 -24 -24 -23 -23 -24 -23 -23 -23 -23 -22 -22 -22 -19 -18 -14 -14 -13 -13 -12 -11 -11 -11 -11 -11
-17 -17 -17 -17 -18 -18 -18 -19 -20 -20 -20 -21 -22 -22 -22 -22 -23 -23 -23 -23 -24 -24 -23 -23 -23 -23 -23 -23 -22 -22 -22 -22 -21 -21 -18 -16 -14 -15 -15 -13 -11 -11 -11 -11 -11
-17 -17 -17 -17 -18 -19 -18 -19 -20 -20 -20 -21 -22 -22 -22 -22 -22 -22 -23 -23 -23 -23 -23 -22 -22 -22 -23 -23 -23 -22 -22 -22 -20 -20 -18 -17 -15 -13 -15 -13 -12 -12 -12 -11 -11
-17 -17 -17 -17 -18 -19 -19 -19 -20 -20 -21 -21 -21 -22 -22 -22 -21 -22 -22 -22 -22 -23 -22 -22 -22 -22 -22 -22 -22 -21 -22 -22 -21 -20 -19 -16 -15 -15 -15 -13 -13 -12 -12 -12 -12

GFSSW_500_temp_048.txt.gz
Temp
-13 -13 -13 -13 -13 -12 -12 -11 -11 -11 -11 -11 -11 -11 -11 -11 -11 -10 -10 -11 -10 -10 -11 -11 -11 -11 -10 -10 -10 -10 -9 -8 -8 -8 -8 -9 -9 -9 -9 -9 -9 -9 -8 -8 -8
-13 -13 -13 -12 -12 -12 -12 -12 -12 -12 -11 -11 -11 -11 -11 -11 -11 -11 -11 -11 -10 -10 -11 -11 -11 -11 -11 -11 -10 -10 -9 -8 -9 -9 -8 -9 -9 -10 -10 -9 -10 -10 -9 -9 -8
-13 -13 -13 -13 -13 -13 -12 -12 -12 -12 -12 -11 -11 -11 -11 -11 -11 -11 -11 -11 -11 -11 -11 -11 -11 -12 -11 -11 -10 -10 -9 -9 -9 -9 -9 -10 -9 -10 -10 -9 -9 -9 -10 -9 -9
-13 -13 -13 -13 -13 -13 -13 -12 -12 -12 -12 -12 -12 -12 -11 -12 -11 -11 -12 -12 -11 -11 -11 -11 -11 -11 -11 -11 -11 -10 -9 -10 -10 -10 -10 -10 -12 -10 -10 -10 -9 -9 -9 -9 -9
-13 -13 -13 -13 -13 -13 -13 -13 -13 -12 -12 -12 -12 -12 -11 -11 -11 -11 -11 -11 -11 -11 -11 -11 -11 -11 -11 -11 -11 -10 -10 -10 -11 -11 -10 -11 -11 -11 -10 -10 -9 -9 -9 -9 -9
-13 -14 -14 -14 -14 -13 -13 -13 -13 -13 -13 -13 -12 -12 -12 -11 -11 -11 -11 -11 -11 -11 -11 -11 -11 -11 -11 -11 -11 -11 -10 -10 -10 -10 -11 -12 -12 -12 -9 -10 -10 -10 -9 -10 -10
-14 -14 -14 -14 -14 -14 -14 -13 -13 -13 -13 -13 -13 -13 -12 -12 -12 -12 -11 -11 -11 -12 -12 -12 -12 -12 -11 -11 -11 -11 -11 -11 -10 -10 -11 -11 -11 -10 -9 -10 -10 -10 -10 -10 -10
-14 -14 -14 -14 -14 -14 -14 -14 -13 -13 -13 -13 -13 -13 -13 -13 -12 -12 -12 -12 -12 -12 -12 -12 -12 -12 -12 -12 -11 -12 -12 -11 -9 -10 -10 -12 -10 -9 -10 -10 -10 -11 -11 -10 -10
-14 -15 -15 -14 -14 -14 -14 -14 -13 -13 -13 -13 -13 -13 -13 -12 -12 -12 -12 -12 -12 -13 -12 -12 -12 -12 -12 -12 -12 -12 -11 -11 -11 -11 -11 -12 -9 -9 -11 -12 -10 -11 -11 -11 -11
-14 -14 -15 -15 -14 -14 -14 -13 -13 -13 -13 -12 -12 -12 -13 -13 -12 -12 -12 -12 -12 -12 -12 -12 -13 -12 -12 -12 -12 -12 -12 -12 -12 -11 -13 -11 -9 -10 -11 -12 -10 -10 -11 -11 -11
-14 -14 -14 -15 -14 -14 -14 -13 -13 -13 -13 -13 -13 -13 -14 -14 -13 -13 -12 -12 -12 -12 -12 -12 -12 -12 -13 -13 -12 -12 -12 -12 -12 -12 -12 -11 -10 -10 -11 -11 -12 -11 -10 -10 -10
-14 -14 -14 -14 -14 -14 -14 -14 -14 -14 -14 -14 -14 -14 -13 -13 -13 -13 -13 -13 -13 -13 -12 -12 -12 -13 -12 -12 -13 -13 -12 -12 -12 -12 -12 -12 -10 -11 -11 -10 -10 -10 -10 -10 -10
-13 -14 -14 -14 -14 -14 -14 -14 -14 -14 -14 -14 -14 -14 -14 -14 -14 -14 -14 -14 -14 -14 -15 -14 -16 -17 -15 -14 -13 -14 -13 -12 -12 -12 -12 -12 -11 -11 -11 -10 -10 -10 -10 -10 -10
-13 -14 -14 -14 -14 -14 -14 -14 -14 -14 -14 -14 -14 -15 -15 -15 -15 -16 -16 -16 -17 -18 -19 -18 -20 -21 -21 -20 -19 -16 -15 -14 -14 -14 -12 -13 -11 -12 -11 -11 -11 -10 -10 -10 -10
-14 -14 -14 -14 -14 -14 -14 -15 -15 -15 -15 -15 -16 -16 -16 -16 -16 -18 -18 -18 -20 -20 -21 -20 -22 -23 -23 -22 -22 -20 -19 -18 -17 -15 -13 -12 -13 -11 -11 -11 -10 -10 -10 -10 -10
-14 -14 -14 -14 -14 -14 -14 -15 -15 -15 -16 -16 -17 -17 -17 -18 -18 -19 -21 -21 -22 -22 -22 -22 -23 -23 -22 -22 -22 -24 -23 -23 -22 -21 -19 -12 -15 -11 -11 -11 -11 -11 -10 -10 -10
-15 -14 -14 -14 -14 -14 -15 -15 -15 -16 -16 -17 -17 -18 -18 -19 -20 -21 -22 -22 -23 -22 -24 -23 -24 -23 -22 -22 -23 -24 -23 -23 -22 -21 -19 -13 -18 -12 -12 -11 -11 -11 -10 -10 -10
-15 -15 -15 -15 -15 -15 -15 -15 -16 -17 -17 -18 -18 -19 -19 -20 -22 -22 -23 -23 -23 -23 -23 -23 -23 -23 -22 -22 -23 -23 -23 -23 -21 -20 -20 -19 -19 -11 -12 -12 -11 -11 -11 -10 -10
-15 -15 -15 -15 -15 -15 -15 -16 -16 -17 -18 -18 -19 -19 -20 -22 -22 -22 -23 -23 -23 -23 -23 -23 -23 -23 -22 -22 -22 -23 -24 -23 -21 -20 -20 -19 -19 -13 -12 -13 -13 -12 -11 -10 -10
-16 -16 -16 -16 -16 -16 -16 -16 -17 -18 -18 -19 -19 -20 -21 -22 -22 -22 -23 -23 -23 -23 -24 -23 -23 -23 -22 -22 -22 -23 -23 -23 -23 -21 -20 -18 -17 -12 -12 -12 -14 -12 -11 -10 -10
-16 -16 -16 -16 -16 -16 -17 -17 -17 -18 -19 -19 -20 -20 -22 -22 -22 -23 -23 -24 -24 -24 -24 -23 -23 -23 -23 -22 -22 -23 -24 -23 -22 -22 -20 -18 -18 -17 -13 -12 -12 -12 -11 -10 -10
-16 -16 -16 -17 -17 -17 -17 -17 -18 -18 -19 -20 -20 -21 -22 -22 -22 -23 -23 -24 -24 -24 -24 -23 -23 -23 -23 -23 -22 -22 -23 -23 -23 -22 -20 -19 -18 -17 -14 -12 -12 -12 -11 -11 -10
-16 -16 -17 -17 -17 -17 -17 -18 -18 -19 -19 -20 -20 -21 -22 -22 -21 -22 -23 -23 -24 -24 -24 -23 -23 -23 -24 -22 -22 -23 -23 -22 -22 -22 -21 -20 -19 -17 -15 -14 -13 -12 -12 -11 -11
-16 -16 -17 -17 -17 -17 -17 -18 -19 -19 -20 -20 -21 -21 -21 -22 -22 -21 -23 -23 -23 -24 -24 -23 -23 -23 -23 -22 -23 -22 -22 -22 -23 -22 -22 -21 -20 -20 -18 -15 -13 -13 -12 -11 -11
-16 -17 -16 -17 -17 -17 -18 -18 -19 -19 -20 -21 -21 -21 -21 -21 -21 -21 -22 -22 -23 -23 -22 -22 -22 -23 -23 -22 -22 -22 -22 -22 -22 -22 -23 -22 -21 -20 -17 -14 -13 -13 -12 -11 -10
-16 -16 -17 -17 -17 -17 -17 -18 -19 -19 -20 -21 -21 -22 -22 -21 -21 -21 -22 -21 -22 -22 -22 -22 -22 -22 -22 -22 -22 -22 -22 -22 -22 -22 -22 -21 -20 -19 -16 -15 -13 -13 -12 -12 -11
-16 -17 -17 -17 -17 -18 -18 -18 -19 -20 -20 -21 -21 -21 -21 -21 -21 -21 -21 -21 -21 -22 -22 -22 -23 -23 -22 -23 -22 -22 -22 -22 -22 -22 -21 -21 -20 -18 -16 -15 -14 -13 -12 -12 -11

GFSSW_500_temp_051.txt.gz
Temp
-13 -13 -13 -13 -13 -13 -13 -13 -13 -12 -12 -11 -11 -11 -11 -11 -11 -11 -11 -11 -10 -10 -10 -11 -11 -11 -11 -10 -10 -10 -9 -8 -8 -9 -8 -9 -9 -9 -8 -8 -8 -8 -9 -9 -8
-13 -13 -13 -13 -13 -13 -13 -13 -13 -13 -12 -12 -12 -11 -11 -11 -11 -11 -11 -11 -11 -10 -10 -11 -11 -11 -10 -11 -11 -11 -10 -9 -9 -9 -9 -9 -9 -9 -10 -10 -9 -9 -8 -8 -8
-13 -13 -13 -13 -13 -13 -13 -13 -13 -12 -12 -12 -12 -12 -12 -12 -11 -10 -11 -11 -11 -11 -11 -10 -11 -11 -11 -11 -10 -10 -9 -10 -9 -10 -10 -9 -9 -10 -9 -10 -9 -10 -10 -9 -9
-13 -13 -13 -13 -13 -13 -13 -13 -13 -13 -12 -12 -12 -12 -12 -12 -11 -11 -11 -11 -11 -11 -11 -11 -11 -11 -11 -10 -11 -11 -10 -10 -10 -11 -10 -9 -9 -10 -10 -10 -10 -11 -10 -9 -10
-13 -13 -13 -13 -13 -13 -13 -13 -13 -13 -12 -12 -12 -12 -12 -12 -11 -11 -11 -11 -11 -11 -11 -11 -11 -10 -10 -11 -11 -10 -10 -10 -11 -10 -11 -10 -9 -10 -10 -10 -9 -10 -11 -10 -9
-13 -13 -14 -14 -14 -14 -14 -14 -13 -13 -12 -12 -12 -12 -12 -12 -12 -12 -12 -12 -11 -11 -11 -11 -11 -11 -10 -10 -10 -11 -11 -10 -11 -10 -11 -11 -9 -11 -10 -10 -10 -10 -10 -10 -10
-13 -14 -14 -14 -14 -14 -13 -13 -13 -13 -13 -13 -13 -13 -12 -12 -12 -11 -11 -11 -11 -11 -11 -11 -11 -12 -11 -11 -11 -11 -11 -11 -10 -10 -10 -11 -10 -10 -9 -10 -11 -11 -10 -10 -10
-14 -14 -14 -14 -14 -14 -14 -14 -14 -14 -13 -13 -13 -13 -12 -12 -12 -12 -11 -11 -11 -11 -11 -11 -12 -12 -12 -12 -12 -11 -11 -10 -9 -10 -10 -11 -10 -9 -9 -10 -11 -11 -11 -11 -10
-14 -14 -14 -14 -14 -14 -14 -14 -14 -14 -13 -13 -13 -13 -12 -13 -12 -12 -12 -12 -12 -12 -12 -12 -11 -12 -12 -12 -12 -12 -11 -11 -10 -11 -11 -13 -10 -9 -10 -11 -11 -11 -12 -11 -11
-14 -14 -14 -14 -14 -14 -14 -14 -13 -13 -13 -13 -13 -13 -13 -12 -12 -12 -13 -13 -13 -12 -12 -12 -13 -12 -12 -13 -12 -12 -12 -12 -12 -11 -13 -13 -11 -9 -9 -11 -12 -12 -11 -11 -11
-13 -13 -14 -14 -14 -14 -14 -14 -13 -13 -13 -13 -13 -14 -13 -13 -13 -13 -13 -13 -13 -13 -13 -13 -13 -13 -13 -13 -13 -13 -13 -12 -12 -12 -15 -14 -12 -9 -9 -10 -11 -11 -11 -11 -11
-13 -13 -13 -13 -14 -14 -14 -14 -14 -14 -14 -14 -14 -14 -14 -14 -14 -14 -13 -13 -13 -13 -13 -13 -13 -13 -13 -13 -12 -13 -13 -12 -12 -12 -17 -13 -12 -10 -10 -10 -10 -10 -11 -12 -11
-14 -13 -13 -13 -13 -13 -13 -14 -14 -14 -14 -14 -14 -14 -14 -14 -14 -14 -14 -14 -14 -14 -14 -14 -14 -15 -14 -13 -12 -13 -12 -12 -12 -13 -16 -12 -12 -11 -11 -11 -10 -10 -11 -11 -11
-14 -14 -14 -13 -14 -14 -14 -14 -14 -14 -14 -14 -15 -15 -14 -14 -14 -14 -15 -15 -15 -15 -15 -15 -16 -17 -16 -16 -16 -15 -15 -14 -13 -14 -13 -12 -13 -12 -11 -11 -11 -10 -11 -11 -11
-15 -14 -14 -14 -14 -14 -14 -14 -14 -14 -15 -15 -15 -15 -15 -15 -15 -16 -16 -16 -16 -17 -17 -18 -19 -22 -22 -22 -22 -22 -21 -21 -21 -17 -16 -17 -15 -12 -13 -11 -11 -11 -11 -11 -11
-15 -15 -15 -14 -14 -14 -14 -14 -14 -14 -15 -15 -15 -15 -15 -16 -17 -17 -17 -19 -19 -21 -23 -23 -22 -23 -23 -22 -22 -22 -22 -22 -22 -21 -21 -17 -17 -12 -13 -16 -15 -12 -12 -11 -11
-16 -15 -15 -15 -15 -15 -14 -14 -14 -15 -15 -16 -16 -16 -17 -17 -18 -18 -20 -21 -23 -23 -23 -23 -22 -22 -21 -22 -23 -23 -22 -22 -22 -21 -20 -20 -19 -18 -16 -17 -15 -15 -12 -11 -11
-16 -16 -15 -15 -15 -15 -15 -15 -15 -15 -16 -16 -17 -17 -17 -18 -18 -20 -21 -23 -23 -23 -24 -23 -22 -22 -22 -22 -22 -21 -21 -22 -22 -21 -19 -20 -19 -18 -16 -17 -16 -14 -12 -11 -11
-16 -16 -15 -16 -16 -15 -15 -15 -15 -16 -16 -17 -17 -18 -19 -19 -21 -21 -23 -23 -23 -24 -23 -23 -22 -23 -23 -22 -22 -21 -21 -22 -22 -22 -20 -19 -19 -18 -17 -17 -16 -13 -12 -11 -11
-16 -16 -16 -16 -16 -16 -16 -16 -16 -16 -17 -17 -18 -18 -19 -19 -21 -21 -23 -23 -23 -24 -24 -23 -22 -23 -23 -22 -22 -21 -22 -21 -22 -21 -21 -20 -18 -18 -18 -17 -17 -15 -13 -12 -11
-16 -16 -16 -16 -16 -16 -16 -16 -16 -17 -17 -18 -19 -19 -19 -20 -21 -21 -21 -23 -23 -23 -23 -23 -23 -22 -24 -23 -22 -21 -21 -22 -22 -22 -21 -20 -18 -17 -17 -17 -17 -17 -13 -12 -11
-15 -15 -16 -16 -16 -16 -17 -17 -17 -17 -18 -19 -19 -20 -20 -21 -21 -21 -21 -22 -23 -23 -23 -23 -23 -23 -23 -23 -22 -21 -22 -21 -21 -22 -20 -21 -18 -17 -17 -17 -17 -17 -13 -12 -11
-15 -15 -16 -16 -17 -17 -17 -17 -17 -17 -18 -19 -20 -20 -21 -21 -20 -20 -21 -21 -22 -23 -23 -23 -23 -22 -22 -22 -21 -22 -22 -23 -22 -22 -20 -20 -18 -16 -17 -17 -17 -18 -13 -12 -11
-15 -15 -16 -16 -17 -17 -17 -17 -18 -18 -18 -19 -20 -20 -21 -21 -20 -20 -21 -21 -21 -22 -22 -22 -22 -22 -22 -23 -22 -22 -21 -22 -22 -21 -20 -20 -19 -18 -16 -18 -18 -18 -13 -12 -12
-15 -15 -16 -16 -16 -17 -17 -17 -18 -19 -19 -20 -20 -20 -20 -21 -20 -20 -20 -21 -21 -21 -21 -21 -22 -22 -22 -23 -23 -23 -23 -23 -23 -22 -22 -21 -20 -20 -18 -17 -18 -17 -13 -12 -12
-15 -15 -16 -16 -16 -17 -17 -18 -18 -19 -19 -20 -20 -21 -21 -21 -20 -20 -20 -20 -21 -21 -22 -22 -22 -22 -23 -22 -22 -23 -23 -23 -23 -23 -21 -22 -21 -21 -20 -19 -19 -16 -14 -13 -12
-15 -15 -16 -16 -16 -17 -17 -17 -18 -19 -20 -20 -21 -21 -21 -21 -20 -20 -20 -20 -21 -21 -21 -21 -21 -21 -21 -21 -21 -21 -22 -23 -23 -22 -22 -21 -21 -21 -21 -20 -20 -16 -15 -13 -12

GFSSW_500_temp_054.txt.gz
Temp
-13 -13 -13 -13 -13 -13 -13 -13 -13 -13 -13 -12 -12 -11 -11 -11 -11 -11 -10 -10 -10 -10 -11 -11 -10 -11 -11 -11 -11 -11 -10 -9 -8 -8 -8 -9 -9 -9 -9 -8 -8 -10 -10 -9 -9
-13 -13 -13 -13 -13 -13 -13 -13 -13 -13 -13 -13 -12 -12 -12 -11 -11 -10 -10 -10 -10 -11 -11 -11 -10 -10 -10 -10 -10 -11 -10 -10 -9 -10 -9 -9 -9 -9 -10 -10 -9 -8 -9 -9 -9
-13 -13 -13 -13 -13 -13 -13 -13 -13 -13 -13 -13 -12 -12 -12 -12 -11 -10 -11 -11 -11 -11 -11 -10 -11 -11 -10 -10 -10 -10 -9 -10 -10 -9 -10 -10 -9 -8 -9 -9 -10 -10 -10 -9 -9
-13 -13 -13 -13 -13 -13 -13 -13 -13 -13 -13 -13 -13 -12 -12 -12 -11 -12 -11 -11 -11 -11 -11 -11 -11 -11 -10 -10 -11 -10 -10 -10 -10 -10 -10 -11 -10 -10 -10 -9 -9 -11 -10 -9 -9
-13 -13 -13 -13 -13 -14 -13 -13 -13 -13 -13 -13 -13 -12 -12 -12 -12 -12 -12 -12 -11 -11 -11 -11 -11 -11 -10 -11 -11 -10 -10 -10 -10 -10 -11 -11 -11 -10 -9 -10 -10 -9 -10 -11 -11
-13 -13 -13 -14 -14 -14 -14 -14 -13 -13 -13 -13 -13 -13 -12 -12 -12 -12 -12 -11 -11 -12 -11 -11 -11 -11 -10 -10 -10 -11 -10 -10 -10 -10 -10 -11 -11 -11 -8 -10 -10 -10 -10 -10 -9
-13 -13 -13 -14 -14 -14 -14 -14 -14 -13 -13 -13 -13 -13 -13 -13 -12 -12 -12 -12 -12 -12 -12 -12 -11 -11 -11 -11 -11 -11 -11 -11 -10 -9 -9 -11 -11 -9 -9 -9 -10 -10 -10 -11 -11
-13 -13 -13 -14 -14 -14 -14 -14 -14 -14 -13 -13 -13 -13 -12 -12 -12 -12 -12 -11 -11 -12 -12 -11 -11 -12 -12 -12 -12 -11 -11 -10 -9 -11 -9 -12 -9 -9 -10 -10 -10 -10 -10 -11 -11
-13 -13 -14 -14 -14 -14 -14 -14 -14 -14 -13 -13 -13 -13 -12 -12 -12 -12 -12 -11 -11 -11 -11 -11 -11 -11 -12 -12 -12 -12 -11 -11 -10 -11 -11 -13 -11 -9 -10 -10 -10 -10 -11 -11 -11
-13 -13 -14 -13 -13 -14 -14 -13 -13 -13 -13 -13 -13 -13 -13 -12 -12 -12 -12 -12 -12 -12 -12 -12 -12 -12 -12 -12 -11 -12 -12 -12 -11 -11 -12 -13 -13 -9 -9 -10 -10 -11 -11 -11 -11
-14 -14 -14 -13 -13 -13 -13 -13 -13 -13 -13 -13 -13 -13 -13 -13 -13 -13 -13 -13 -13 -13 -13 -13 -13 -13 -13 -13 -12 -12 -12 -11 -11 -11 -13 -15 -15 -10 -10 -10 -10 -10 -10 -10 -11
-14 -14 -14 -14 -13 -13 -13 -13 -13 -13 -14 -14 -14 -14 -13 -13 -13 -13 -13 -13 -13 -13 -14 -14 -13 -13 -13 -13 -13 -13 -13 -11 -11 -12 -13 -12 -13 -10 -10 -10 -11 -11 -10 -10 -10
-15 -15 -14 -14 -14 -14 -13 -13 -13 -13 -13 -14 -14 -14 -14 -14 -14 -14 -14 -14 -14 -14 -14 -14 -14 -14 -14 -14 -13 -13 -14 -13 -13 -13 -13 -12 -12 -12 -10 -11 -12 -14 -10 -10 -11
-16 -15 -15 -14 -14 -14 -14 -14 -13 -13 -13 -13 -14 -15 -14 -14 -14 -14 -14 -14 -14 -14 -14 -14 -14 -14 -14 -14 -16 -15 -15 -15 -14 -14 -13 -15 -14 -12 -12 -12 -11 -11 -11 -10 -10
-16 -16 -15 -15 -14 -14 -14 -14 -14 -14 -14 -14 -14 -14 -15 -15 -15 -14 -14 -14 -14 -14 -15 -16 -17 -19 -18 -18 -20 -20 -20 -20 -20 -19 -17 -15 -16 -11 -12 -11 -12 -12 -12 -12 -11
-16 -16 -16 -15 -15 -15 -15 -15 -14 -14 -14 -14 -15 -14 -15 -15 -15 -15 -15 -15 -16 -18 -21 -21 -21 -22 -22 -21 -21 -21 -21 -21 -21 -21 -20 -14 -19 -12 -12 -12 -13 -14 -13 -13 -12
-16 -16 -16 -15 -15 -15 -15 -15 -15 -15 -15 -15 -15 -16 -16 -16 -16 -16 -17 -18 -21 -21 -22 -22 -22 -22 -22 -21 -21 -22 -21 -20 -20 -20 -20 -18 -20 -17 -13 -14 -14 -15 -15 -15 -15
-15 -15 -15 -16 -15 -15 -15 -15 -15 -15 -16 -16 -16 -16 -16 -18 -18 -19 -21 -21 -21 -21 -21 -22 -22 -22 -22 -22 -21 -21 -22 -21 -21 -20 -20 -20 -20 -19 -16 -16 -16 -16 -15 -15 -15
-15 -15 -15 -15 -16 -16 -16 -15 -15 -16 -16 -16 -17 -17 -18 -18 -19 -20 -22 -22 -22 -21 -21 -22 -22 -22 -23 -22 -22 -21 -21 -21 -22 -21 -20 -20 -20 -19 -18 -16 -17 -16 -16 -16 -16
-14 -15 -15 -15 -15 -16 -16 -16 -16 -16 -16 -17 -17 -17 -18 -19 -19 -20 -22 -22 -21 -22 -22 -21 -22 -23 -22 -22 -21 -22 -21 -21 -21 -21 -21 -21 -21 -19 -18 -19 -18 -17 -15 -16 -16
-14 -15 -15 -15 -15 -16 -16 -16 -16 -16 -17 -17 -18 -18 -18 -19 -20 -20 -20 -20 -20 -21 -22 -23 -22 -22 -22 -22 -21 -22 -21 -21 -21 -21 -20 -20 -19 -19 -18 -18 -17 -17 -16 -16 -16
-14 -14 -14 -15 -15 -16 -16 -16 -16 -17 -17 -18 -18 -18 -19 -19 -20 -20 -20 -20 -20 -21 -21 -22 -21 -21 -22 -22 -21 -22 -21 -22 -20 -20 -21 -21 -18 -20 -18 -18 -17 -16 -16 -16 -15
-14 -14 -14 -15 -15 -15 -16 -16 -17 -17 -17 -18 -19 -19 -19 -20 -20 -20 -20 -20 -20 -20 -20 -21 -21 -21 -22 -22 -21 -21 -21 -21 -21 -21 -20 -21 -18 -19 -18 -17 -17 -16 -16 -15 -15
-14 -14 -15 -15 -15 -16 -16 -16 -17 -17 -17 -18 -19 -19 -20 -20 -20 -19 -20 -20 -20 -20 -20 -21 -21 -22 -22 -22 -21 -21 -22 -21 -21 -21 -21 -21 -21 -20 -17 -17 -17 -16 -16 -16 -14
-15 -15 -15 -15 -15 -16 -16 -16 -17 -17 -18 -18 -19 -20 -20 -20 -20 -20 -20 -20 -20 -20 -21 -21 -21 -22 -21 -22 -21 -22 -22 -21 -21 -21 -21 -21 -21 -21 -20 -19 -17 -16 -17 -17 -14
-15 -15 -15 -16 -16 -16 -16 -16 -17 -18 -18 -19 -20 -20 -20 -20 -20 -20 -20 -20 -20 -20 -20 -21 -21 -21 -20 -21 -21 -21 -21 -20 -20 -21 -21 -21 -21 -21 -21 -19 -18 -18 -18 -18 -15
-15 -15 -15 -16 -16 -16 -16 -16 -17 -18 -19 -19 -20 -20 -21 -20 -20 -20 -20 -20 -20 -21 -21 -21 -21 -21 -21 -20 -20 -20 -21 -20 -19 -19 -21 -21 -21 -21 -21 -20 -20 -19 -20 -16 -14

GFSSW_500_temp_057.txt.gz
Temp
-12 -12 -12 -13 -13 -13 -13 -13 -13 -14 -13 -13 -13 -12 -12 -12 -11 -11 -10 -10 -10 -11 -11 -11 -11 -11 -11 -12 -12 -12 -10 -9 -9 -9 -9 -8 -9 -9 -8 -8 -9 -9 -9 -9 -9
-12 -13 -13 -13 -13 -13 -13 -13 -13 -13 -13 -13 -13 -13 -12 -12 -11 -11 -11 -11 -11 -11 -11 -11 -11 -11 -11 -11 -12 -11 -9 -10 -10 -10 -9 -9 -9 -9 -9 -9 -10 -9 -10 -9 -9
-12 -12 -13 -13 -14 -13 -13 -13 -13 -13 -13 -13 -13 -13 -13 -12 -11 -12 -12 -11 -11 -11 -11 -11 -11 -11 -11 -11 -11 -11 -9 -10 -10 -10 -10 -10 -10 -9 -9 -9 -10 -9 -10 -10 -10
-13 -13 -13 -13 -14 -14 -14 -14 -14 -13 -13 -13 -13 -13 -13 -12 -12 -12 -12 -12 -12 -11 -11 -11 -11 -11 -11 -11 -11 -10 -10 -10 -10 -10 -10 -10 -11 -11 -10 -9 -9 -10 -9 -10 -10
-13 -13 -13 -13 -14 -14 -14 -14 -14 -14 -14 -13 -13 -13 -13 -12 -13 -12 -12 -12 -12 -12 -11 -11 -11 -11 -11 -11 -10 -10 -10 -10 -10 -10 -10 -11 -11 -11 -10 -10 -9 -9 -10 -9 -10
-13 -13 -13 -13 -14 -14 -14 -14 -14 -14 -14 -14 -14 -13 -13 -12 -13 -13 -12 -12 -12 -12 -12 -12 -12 -11 -10 -11 -11 -10 -10 -9 -10 -10 -10 -10 -10 -11 -10 -10 -9 -11 -11 -10 -10
-13 -13 -13 -13 -14 -14 -14 -14 -14 -14 -14 -14 -14 -13 -13 -13 -12 -12 -12 -12 -12 -12 -12 -12 -12 -12 -11 -11 -12 -11 -10 -9 -10 -10 -10 -11 -11 -10 -10 -10 -10 -10 -11 -11 -11
-13 -13 -13 -13 -13 -14 -14 -14 -14 -14 -14 -14 -13 -13 -13 -13 -13 -13 -13 -12 -12 -12 -12 -12 -12 -12 -12 -12 -12 -11 -11 -10 -11 -11 -11 -13 -10 -10 -10 -10 -11 -10 -11 -12 -11
-14 -14 -14 -13 -13 -13 -14 -14 -14 -14 -14 -13 -13 -13 -12 -13 -13 -13 -13 -12 -12 -12 -12 -12 -12 -12 -12 -12 -12 -12 -11 -11 -11 -12 -12 -13 -11 -10 -10 -11 -11 -11 -10 -11 -11
-14 -14 -14 -14 -14 -13 -13 -13 -13 -14 -13 -13 -13 -13 -13 -13 -13 -13 -13 -13 -13 -13 -13 -12 -12 -12 -12 -12 -12 -13 -12 -12 -11 -12 -14 -14 -12 -10 -11 -11 -11 -11 -10 -10 -11
-15 -15 -14 -14 -14 -13 -13 -13 -13 -13 -13 -13 -13 -13 -13 -13 -13 -13 -13 -13 -13 -13 -13 -13 -13 -13 -13 -13 -12 -12 -12 -12 -12 -12 -12 -12 -11 -9 -10 -10 -11 -11 -11 -11 -11
-15 -15 -15 -14 -14 -14 -14 -13 -13 -13 -13 -14 -13 -14 -14 -14 -14 -14 -14 -14 -13 -13 -13 -13 -13 -13 -13 -13 -13 -13 -13 -12 -12 -13 -13 -13 -12 -11 -10 -10 -10 -10 -10 -11 -11
-16 -15 -15 -14 -14 -14 -14 -14 -13 -13 -13 -13 -14 -14 -14 -14 -14 -14 -14 -14 -14 -14 -14 -14 -14 -14 -14 -14 -14 -14 -14 -13 -13 -14 -13 -13 -12 -11 -11 -11 -11 -11 -10 -10 -11
-15 -16 -15 -15 -14 -14 -14 -14 -14 -13 -13 -13 -14 -14 -14 -14 -14 -14 -14 -14 -15 -14 -14 -14 -14 -14 -14 -14 -16 -14 -16 -15 -15 -15 -14 -16 -11 -12 -11 -11 -11 -11 -12 -11 -11
-15 -15 -15 -15 -15 -15 -14 -14 -14 -14 -14 -14 -14 -14 -14 -15 -15 -14 -14 -14 -14 -14 -14 -15 -15 -15 -14 -15 -17 -15 -18 -17 -16 -16 -15 -14 -14 -11 -12 -11 -11 -12 -12 -12 -12
-15 -15 -15 -15 -15 -15 -15 -15 -15 -14 -14 -14 -15 -14 -14 -14 -15 -15 -15 -15 -15 -15 -15 -16 -19 -20 -19 -19 -20 -19 -20 -19 -19 -20 -19 -16 -19 -14 -13 -12 -12 -12 -12 -13 -12
-14 -15 -15 -15 -15 -15 -15 -15 -15 -15 -15 -15 -15 -16 -16 -16 -16 -16 -16 -17 -17 -17 -17 -19 -20 -21 -20 -20 -21 -21 -21 -21 -21 -20 -20 -20 -21 -18 -14 -14 -13 -13 -13 -14 -14
-14 -14 -14 -15 -15 -15 -15 -15 -16 -16 -16 -16 -16 -16 -17 -17 -17 -18 -18 -19 -20 -19 -19 -19 -19 -21 -21 -21 -21 -21 -22 -22 -21 -21 -20 -20 -20 -19 -18 -16 -15 -14 -14 -15 -15
-14 -14 -14 -14 -15 -15 -16 -16 -16 -15 -16 -16 -16 -16 -16 -17 -18 -18 -18 -20 -19 -19 -19 -19 -19 -21 -22 -22 -22 -21 -21 -22 -21 -20 -21 -20 -19 -19 -19 -19 -19 -16 -14 -15 -16
-13 -14 -14 -14 -15 -15 -15 -16 -16 -16 -16 -16 -16 -17 -17 -18 -18 -18 -19 -20 -19 -19 -19 -20 -19 -21 -21 -22 -22 -21 -21 -21 -21 -21 -21 -20 -19 -20 -20 -20 -20 -19 -16 -16 -16
-13 -13 -14 -14 -14 -15 -15 -16 -16 -16 -16 -17 -17 -17 -18 -18 -19 -19 -19 -20 -19 -20 -20 -20 -20 -20 -21 -21 -21 -21 -21 -21 -21 -21 -21 -20 -20 -20 -20 -20 -19 -19 -18 -17 -16
-14 -14 -14 -14 -14 -15 -15 -15 -16 -16 -17 -17 -17 -18 -19 -19 -19 -19 -20 -20 -20 -20 -19 -20 -20 -20 -21 -21 -21 -22 -21 -21 -21 -21 -21 -21 -20 -20 -20 -20 -19 -18 -17 -17 -16
-14 -14 -14 -14 -15 -15 -15 -15 -16 -16 -16 -17 -18 -18 -19 -19 -20 -20 -20 -20 -20 -20 -19 -19 -20 -20 -20 -21 -21 -21 -21 -22 -22 -21 -21 -21 -20 -21 -20 -21 -19 -19 -18 -16 -16
-14 -14 -14 -15 -15 -15 -16 -16 -16 -16 -17 -17 -18 -19 -19 -20 -20 -20 -20 -20 -20 -20 -20 -19 -20 -21 -21 -21 -21 -21 -21 -21 -22 -21 -21 -21 -21 -21 -21 -21 -18 -17 -18 -17 -16
-15 -15 -15 -15 -15 -16 -16 -16 -16 -16 -17 -17 -18 -19 -20 -20 -20 -20 -20 -20 -20 -20 -20 -20 -20 -20 -21 -20 -20 -20 -20 -20 -21 -21 -21 -20 -21 -21 -21 -20 -19 -17 -17 -17 -16
-15 -15 -15 -15 -16 -16 -16 -16 -16 -17 -17 -18 -18 -19 -20 -20 -20 -20 -21 -20 -20 -21 -21 -20 -20 -20 -21 -20 -20 -20 -21 -21 -21 -21 -21 -21 -21 -20 -19 -19 -19 -18 -17 -17 -17
-15 -16 -16 -16 -16 -16 -16 -16 -17 -17 -18 -18 -18 -19 -20 -20 -21 -21 -21 -21 -20 -21 -21 -21 -21 -20 -20 -20 -20 -20 -20 -20 -20 -21 -21 -20 -20 -20 -20 -20 -20 -19 -18 -17 -16

GFSSW_500_temp_060.txt.gz
Temp
-12 -12 -12 -13 -13 -13 -13 -13 -13 -13 -13 -13 -14 -14 -13 -13 -13 -12 -12 -12 -12 -12 -12 -12 -12 -12 -12 -12 -11 -11 -8 -8 -8 -9 -10 -9 -8 -9 -9 -9 -10 -10 -9 -9 -9
-12 -12 -12 -12 -13 -13 -13 -13 -13 -13 -13 -13 -13 -14 -14 -13 -13 -12 -12 -12 -12 -11 -11 -11 -11 -11 -12 -12 -12 -11 -9 -8 -9 -11 -11 -11 -9 -9 -9 -9 -10 -10 -9 -9 -9
-12 -12 -12 -12 -13 -13 -13 -13 -13 -14 -14 -14 -13 -13 -13 -14 -13 -13 -12 -12 -12 -11 -11 -11 -11 -11 -11 -12 -11 -11 -10 -10 -10 -11 -12 -11 -10 -10 -9 -9 -9 -10 -9 -9 -9
-13 -13 -13 -13 -13 -13 -13 -13 -14 -14 -14 -14 -14 -14 -13 -13 -13 -13 -13 -13 -12 -12 -12 -11 -11 -11 -11 -11 -12 -11 -10 -10 -10 -11 -11 -12 -12 -11 -10 -9 -9 -9 -10 -9 -9
-13 -13 -13 -13 -13 -14 -14 -14 -14 -14 -14 -14 -14 -14 -14 -14 -13 -13 -13 -13 -13 -13 -12 -12 -12 -12 -12 -11 -11 -10 -10 -10 -10 -10 -11 -12 -12 -12 -11 -10 -10 -9 -9 -9 -9
-14 -13 -13 -13 -13 -13 -14 -14 -14 -14 -14 -14 -14 -14 -14 -14 -14 -13 -13 -13 -13 -12 -12 -12 -12 -12 -12 -12 -12 -11 -11 -11 -11 -10 -11 -11 -11 -12 -9 -11 -11 -10 -10 -10 -10
-14 -14 -14 -13 -13 -13 -13 -13 -14 -14 -14 -14 -14 -14 -14 -14 -14 -14 -13 -13 -13 -13 -13 -12 -12 -12 -12 -13 -12 -11 -11 -11 -11 -11 -11 -12 -11 -11 -10 -11 -11 -11 -11 -12 -11
-14 -14 -14 -14 -14 -13 -13 -13 -13 -13 -14 -14 -14 -14 -14 -14 -14 -14 -14 -13 -13 -13 -13 -13 -12 -12 -12 -12 -12 -12 -11 -11 -12 -12 -12 -13 -9 -10 -11 -11 -12 -11 -11 -12 -12
-15 -14 -14 -14 -14 -14 -13 -13 -13 -13 -13 -13 -13 -13 -13 -14 -14 -13 -13 -13 -13 -13 -13 -13 -13 -13 -12 -12 -12 -12 -11 -12 -12 -13 -13 -12 -9 -10 -11 -11 -11 -12 -12 -12 -12
-16 -15 -14 -14 -14 -14 -14 -13 -13 -13 -13 -13 -13 -14 -14 -14 -14 -13 -13 -13 -13 -13 -13 -13 -13 -13 -13 -13 -13 -12 -11 -11 -12 -13 -12 -12 -10 -10 -10 -10 -10 -10 -10 -11 -11
-15 -15 -15 -14 -14 -14 -14 -14 -14 -13 -13 -13 -13 -14 -14 -14 -14 -14 -14 -14 -14 -14 -14 -13 -13 -13 -13 -13 -12 -12 -12 -12 -12 -12 -12 -12 -10 -10 -10 -10 -10 -10 -10 -10 -10
-15 -15 -15 -14 -14 -14 -14 -14 -14 -14 -13 -13 -13 -13 -14 -14 -14 -14 -14 -14 -14 -14 -14 -14 -14 -14 -13 -14 -13 -13 -13 -13 -13 -12 -12 -12 -10 -10 -11 -11 -11 -10 -10 -10 -11
-14 -15 -15 -15 -14 -14 -14 -14 -14 -14 -14 -13 -13 -14 -14 -14 -14 -14 -15 -14 -14 -14 -14 -14 -14 -14 -14 -14 -14 -14 -14 -13 -13 -13 -13 -13 -11 -11 -11 -10 -11 -11 -11 -11 -11
-14 -14 -14 -15 -15 -14 -14 -14 -14 -14 -14 -14 -14 -14 -15 -15 -14 -14 -15 -15 -15 -15 -15 -15 -14 -15 -15 -15 -14 -15 -15 -15 -14 -14 -13 -14 -11 -11 -11 -11 -11 -11 -11 -11 -11
-14 -14 -14 -14 -14 -14 -14 -15 -14 -14 -15 -15 -15 -15 -15 -15 -15 -14 -14 -15 -15 -15 -14 -15 -15 -16 -15 -15 -15 -15 -16 -16 -16 -15 -15 -14 -15 -11 -12 -11 -12 -12 -11 -11 -11
-14 -14 -14 -14 -14 -15 -15 -15 -15 -15 -15 -15 -15 -15 -15 -15 -15 -15 -15 -15 -15 -15 -15 -16 -16 -15 -16 -16 -17 -18 -17 -16 -16 -16 -15 -16 -18 -11 -12 -12 -12 -13 -13 -12 -12
-13 -14 -14 -14 -14 -15 -15 -15 -15 -15 -16 -16 -16 -16 -16 -15 -16 -16 -16 -16 -15 -15 -16 -17 -18 -19 -19 -19 -19 -20 -21 -19 -19 -19 -18 -20 -18 -13 -14 -16 -15 -13 -13 -13 -12
-13 -13 -14 -14 -14 -14 -15 -15 -15 -15 -16 -16 -16 -17 -17 -17 -17 -17 -18 -18 -17 -17 -17 -18 -18 -20 -20 -19 -18 -19 -21 -22 -22 -21 -20 -20 -19 -18 -19 -18 -18 -15 -13 -13 -14
-13 -13 -13 -14 -14 -14 -15 -15 -15 -16 -16 -17 -17 -17 -17 -18 -18 -18 -19 -19 -18 -18 -18 -19 -18 -20 -20 -19 -20 -20 -20 -21 -22 -21 -21 -20 -19 -20 -20 -19 -19 -19 -18 -17 -14
-14 -14 -13 -14 -14 -15 -15 -15 -15 -15 -16 -16 -16 -17 -17 -18 -19 -19 -20 -20 -19 -18 -19 -19 -18 -20 -19 -19 -20 -20 -21 -21 -22 -21 -21 -20 -20 -20 -20 -20 -20 -20 -19 -18 -17
-14 -14 -14 -14 -14 -15 -15 -15 -16 -16 -16 -16 -17 -17 -17 -18 -19 -19 -20 -20 -20 -19 -20 -19 -19 -20 -20 -19 -20 -21 -21 -22 -22 -22 -21 -21 -20 -20 -20 -20 -20 -20 -20 -19 -18
-14 -14 -15 -15 -14 -15 -15 -15 -15 -16 -16 -16 -17 -17 -17 -18 -19 -20 -20 -20 -20 -20 -20 -20 -19 -19 -20 -20 -21 -21 -22 -22 -22 -22 -22 -22 -19 -20 -20 -20 -19 -19 -19 -19 -19
-15 -15 -15 -15 -15 -15 -15 -15 -16 -16 -16 -16 -17 -18 -18 -19 -19 -20 -20 -21 -20 -20 -20 -20 -19 -19 -20 -21 -21 -21 -22 -21 -21 -21 -21 -21 -19 -21 -20 -20 -20 -20 -19 -19 -19
-15 -15 -15 -15 -15 -16 -16 -16 -16 -16 -17 -17 -17 -17 -18 -19 -20 -20 -21 -21 -21 -20 -20 -20 -20 -19 -20 -20 -20 -21 -21 -22 -22 -21 -21 -21 -20 -21 -20 -20 -20 -20 -18 -18 -18
-15 -15 -15 -16 -16 -16 -16 -16 -17 -17 -17 -17 -18 -18 -19 -19 -20 -20 -21 -21 -21 -21 -20 -20 -20 -20 -20 -20 -20 -21 -21 -21 -21 -21 -21 -20 -20 -20 -20 -20 -21 -20 -19 -18 -18
-14 -15 -15 -16 -16 -16 -16 -17 -17 -17 -17 -17 -18 -19 -19 -19 -19 -20 -21 -22 -21 -21 -21 -20 -20 -20 -20 -20 -20 -21 -21 -21 -21 -21 -20 -20 -20 -20 -20 -20 -21 -20 -19 -17 -18
-14 -15 -15 -16 -16 -16 -17 -17 -17 -17 -18 -18 -18 -18 -19 -19 -20 -20 -21 -21 -21 -21 -21 -20 -20 -20 -20 -20 -20 -20 -21 -20 -20 -20 -20 -20 -20 -20 -20 -20 -20 -19 -19 -17 -18

GFSSW_500_temp_063.txt.gz
Temp
-12 -12 -12 -12 -13 -13 -13 -13 -13 -13 -13 -13 -13 -13 -13 -13 -13 -14 -14 -14 -13 -13 -13 -13 -13 -13 -13 -12 -12 -12 -10 -9 -10 -11 -11 -10 -9 -9 -9 -10 -9 -8 -8 -8 -9
-13 -13 -13 -12 -12 -13 -13 -13 -13 -13 -13 -13 -13 -13 -13 -14 -14 -14 -13 -13 -13 -12 -12 -12 -13 -13 -12 -12 -12 -12 -10 -9 -11 -12 -11 -10 -9 -9 -9 -10 -10 -9 -9 -8 -8
-13 -13 -13 -13 -13 -13 -13 -13 -13 -13 -14 -14 -14 -13 -14 -14 -14 -14 -14 -14 -13 -12 -12 -12 -13 -12 -12 -13 -12 -11 -10 -10 -11 -12 -12 -11 -11 -10 -9 -9 -10 -10 -9 -8 -9
-13 -13 -13 -13 -13 -13 -13 -13 -13 -13 -14 -14 -14 -14 -14 -14 -14 -14 -14 -14 -13 -13 -12 -12 -12 -12 -12 -12 -12 -11 -11 -12 -11 -12 -12 -12 -12 -11 -10 -9 -10 -10 -9 -8 -8
-14 -13 -13 -13 -13 -13 -13 -14 -14 -14 -14 -14 -14 -14 -14 -14 -14 -14 -14 -14 -14 -13 -13 -13 -12 -12 -12 -11 -11 -11 -11 -11 -12 -12 -11 -12 -12 -12 -10 -9 -11 -10 -10 -10 -9
-14 -14 -13 -13 -13 -13 -13 -13 -14 -14 -14 -14 -14 -15 -15 -14 -14 -14 -14 -14 -14 -14 -13 -13 -13 -13 -13 -13 -13 -12 -12 -12 -12 -12 -12 -12 -12 -12 -9 -10 -11 -12 -11 -11 -10
-15 -14 -14 -13 -13 -13 -13 -13 -13 -14 -14 -14 -14 -15 -15 -15 -14 -14 -14 -14 -14 -14 -13 -13 -13 -13 -13 -13 -12 -12 -12 -13 -13 -13 -12 -13 -11 -10 -11 -12 -10 -12 -12 -11 -11
-15 -15 -14 -14 -13 -13 -13 -13 -13 -13 -13 -14 -14 -14 -14 -15 -15 -14 -14 -14 -14 -14 -13 -13 -13 -13 -13 -13 -13 -13 -13 -13 -13 -13 -12 -12 -9 -11 -11 -12 -11 -10 -12 -12 -11
-15 -15 -14 -14 -14 -13 -13 -13 -13 -13 -13 -13 -14 -14 -14 -15 -15 -14 -14 -14 -14 -14 -14 -14 -13 -13 -13 -13 -13 -13 -13 -12 -12 -13 -12 -12 -10 -11 -11 -11 -11 -10 -11 -11 -12
-14 -15 -15 -14 -14 -13 -13 -13 -13 -13 -13 -13 -14 -14 -14 -15 -14 -14 -15 -14 -14 -14 -14 -14 -14 -14 -13 -13 -13 -13 -12 -12 -12 -12 -12 -12 -10 -10 -11 -11 -11 -11 -11 -11 -11
-14 -14 -15 -15 -14 -14 -14 -14 -14 -14 -14 -14 -14 -14 -14 -14 -15 -15 -15 -15 -15 -14 -14 -14 -14 -14 -14 -14 -14 -13 -13 -13 -13 -13 -12 -12 -11 -11 -11 -11 -11 -10 -11 -11 -11
-14 -14 -14 -14 -15 -14 -14 -14 -14 -14 -14 -14 -14 -14 -14 -14 -15 -15 -15 -15 -15 -15 -15 -14 -14 -14 -14 -14 -14 -13 -13 -13 -13 -13 -12 -12 -11 -11 -11 -11 -11 -11 -11 -11 -11
-13 -14 -14 -14 -14 -14 -14 -14 -14 -14 -14 -14 -14 -14 -15 -15 -15 -15 -15 -15 -15 -15 -15 -15 -15 -15 -14 -14 -14 -14 -14 -13 -13 -13 -13 -12 -10 -11 -11 -11 -11 -11 -11 -11 -11
-13 -13 -13 -14 -14 -15 -15 -15 -15 -15 -15 -14 -15 -15 -15 -15 -16 -16 -15 -15 -15 -15 -15 -15 -15 -15 -15 -14 -15 -15 -15 -14 -14 -13 -13 -13 -11 -11 -11 -11 -12 -11 -11 -11 -11
-13 -13 -13 -13 -14 -14 -15 -15 -15 -15 -15 -15 -16 -16 -15 -15 -15 -15 -15 -16 -16 -16 -16 -16 -16 -16 -16 -16 -16 -16 -15 -15 -15 -14 -13 -13 -13 -9 -12 -12 -12 -13 -12 -12 -11
-13 -13 -13 -13 -14 -14 -14 -14 -15 -15 -15 -16 -16 -16 -16 -16 -16 -16 -16 -16 -16 -16 -16 -17 -17 -17 -17 -16 -16 -16 -15 -15 -15 -15 -14 -16 -15 -10 -11 -12 -12 -12 -12 -12 -12
-13 -13 -13 -13 -13 -14 -14 -14 -15 -15 -15 -15 -16 -16 -16 -16 -16 -16 -16 -16 -16 -16 -17 -18 -18 -18 -18 -18 -18 -18 -18 -17 -16 -16 -15 -16 -16 -12 -12 -14 -13 -12 -12 -12 -12
-13 -13 -13 -14 -14 -14 -14 -14 -15 -15 -15 -16 -16 -16 -16 -17 -17 -17 -17 -17 -17 -18 -18 -18 -19 -20 -20 -19 -18 -19 -19 -19 -18 -18 -18 -17 -16 -14 -15 -16 -17 -14 -13 -13 -12
-14 -14 -14 -14 -14 -14 -14 -14 -15 -15 -16 -16 -16 -16 -17 -17 -17 -18 -18 -18 -18 -18 -19 -19 -19 -20 -20 -19 -19 -19 -19 -19 -19 -20 -20 -19 -19 -19 -19 -19 -20 -19 -16 -15 -14
-14 -14 -14 -14 -14 -15 -15 -15 -15 -15 -16 -16 -16 -16 -17 -17 -17 -18 -19 -19 -19 -19 -20 -20 -19 -20 -20 -19 -19 -19 -19 -19 -20 -20 -21 -20 -20 -20 -20 -20 -20 -20 -20 -19 -18
-14 -14 -15 -15 -15 -15 -15 -15 -15 -15 -16 -16 -16 -16 -17 -17 -18 -18 -19 -20 -20 -20 -20 -20 -20 -20 -20 -20 -19 -20 -19 -20 -20 -21 -21 -20 -19 -20 -20 -20 -20 -20 -19 -19 -19
-14 -14 -14 -15 -15 -15 -15 -16 -16 -16 -16 -16 -16 -16 -17 -17 -18 -18 -19 -20 -20 -21 -20 -20 -20 -19 -20 -20 -20 -20 -20 -20 -20 -21 -21 -21 -19 -19 -20 -20 -20 -20 -20 -19 -19
-13 -13 -14 -15 -15 -16 -16 -16 -16 -16 -16 -16 -17 -17 -18 -18 -18 -18 -19 -20 -20 -21 -21 -20 -20 -20 -20 -20 -20 -20 -20 -20 -21 -21 -20 -21 -19 -20 -20 -20 -20 -20 -20 -19 -19
-13 -13 -14 -14 -15 -15 -16 -16 -16 -17 -17 -17 -17 -17 -18 -18 -19 -19 -19 -20 -21 -21 -21 -21 -20 -20 -20 -20 -20 -20 -21 -21 -21 -21 -20 -20 -19 -20 -20 -20 -20 -20 -20 -19 -19
-13 -13 -14 -14 -14 -15 -16 -16 -17 -17 -18 -18 -18 -18 -18 -18 -19 -20 -20 -20 -21 -22 -21 -21 -20 -21 -21 -21 -20 -20 -21 -21 -21 -21 -20 -20 -20 -20 -20 -20 -20 -20 -20 -19 -19
-14 -14 -14 -14 -15 -15 -16 -16 -17 -17 -17 -18 -18 -18 -19 -19 -20 -20 -20 -21 -21 -22 -22 -21 -21 -21 -20 -21 -20 -20 -21 -21 -21 -21 -21 -20 -20 -20 -20 -20 -20 -20 -20 -19 -19
-14 -14 -14 -15 -15 -15 -16 -16 -17 -17 -18 -18 -18 -18 -19 -19 -20 -20 -21 -21 -21 -21 -22 -21 -21 -21 -20 -21 -20 -20 -21 -20 -21 -21 -21 -20 -20 -20 -20 -20 -20 -20 -20 -19 -19

GFSSW_500_temp_069.txt.gz
Temp
-13 -13 -12 -12 -12 -12 -12 -12 -12 -12 -12 -12 -12 -12 -12 -12 -12 -12 -12 -12 -11 -12 -12 -12 -13 -13 -12 -13 -13 -13 -12 -11 -11 -11 -11 -12 -10 -9 -10 -10 -9 -10 -10 -9 -9
-14 -13 -13 -12 -12 -12 -12 -12 -12 -12 -12 -12 -12 -12 -12 -12 -12 -12 -12 -12 -12 -12 -12 -12 -13 -13 -13 -13 -13 -13 -13 -12 -12 -12 -12 -11 -10 -10 -10 -10 -10 -10 -11 -10 -10
-14 -13 -13 -13 -12 -12 -12 -12 -12 -12 -12 -12 -12 -12 -12 -12 -12 -12 -12 -12 -12 -12 -12 -13 -13 -13 -13 -13 -13 -13 -13 -13 -12 -12 -12 -12 -11 -10 -11 -11 -11 -11 -11 -11 -10
-14 -14 -13 -13 -12 -12 -12 -12 -12 -12 -13 -13 -13 -13 -12 -12 -12 -13 -12 -13 -13 -13 -13 -13 -13 -13 -14 -14 -14 -13 -13 -13 -12 -13 -13 -12 -12 -11 -11 -11 -12 -12 -11 -11 -11
-14 -14 -13 -13 -13 -13 -13 -13 -12 -12 -13 -13 -13 -13 -13 -13 -13 -12 -13 -13 -13 -13 -13 -14 -13 -13 -14 -14 -13 -13 -13 -13 -13 -13 -13 -13 -11 -11 -11 -13 -12 -12 -12 -11 -10
-14 -14 -13 -13 -13 -13 -13 -13 -13 -13 -13 -13 -13 -13 -13 -13 -13 -13 -13 -13 -13 -13 -14 -14 -14 -14 -14 -14 -14 -13 -13 -13 -12 -12 -13 -13 -12 -12 -12 -12 -13 -13 -12 -11 -11
-14 -14 -13 -13 -13 -13 -13 -13 -13 -13 -13 -13 -13 -13 -13 -13 -13 -14 -14 -14 -14 -14 -14 -14 -14 -14 -14 -14 -14 -14 -14 -14 -13 -13 -13 -13 -12 -12 -12 -12 -14 -13 -12 -12 -11
-13 -13 -13 -13 -13 -13 -13 -13 -13 -13 -13 -13 -13 -13 -13 -13 -13 -14 -14 -14 -14 -14 -14 -14 -14 -14 -14 -14 -14 -14 -14 -14 -14 -13 -13 -12 -11 -13 -12 -12 -12 -13 -12 -12 -12
-13 -13 -13 -13 -13 -13 -13 -13 -14 -14 -13 -13 -13 -13 -13 -14 -14 -14 -14 -14 -14 -14 -15 -15 -15 -14 -14 -14 -14 -14 -14 -14 -14 -14 -14 -13 -12 -12 -13 -12 -12 -12 -13 -12 -12
-13 -13 -13 -13 -13 -13 -13 -13 -13 -13 -13 -14 -14 -14 -14 -14 -14 -14 -14 -14 -15 -15 -15 -15 -15 -15 -15 -15 -15 -14 -14 -14 -14 -14 -14 -13 -13 -13 -13 -14 -13 -12 -12 -12 -12
-13 -12 -12 -13 -13 -13 -13 -14 -14 -14 -14 -14 -14 -14 -14 -14 -14 -14 -14 -14 -15 -15 -15 -15 -15 -15 -15 -15 -15 -15 -14 -14 -14 -14 -14 -14 -13 -13 -13 -13 -13 -15 -13 -12 -12
-13 -13 -13 -13 -13 -13 -13 -13 -13 -14 -14 -14 -14 -14 -14 -15 -14 -14 -15 -15 -15 -15 -15 -15 -16 -16 -15 -15 -15 -15 -15 -15 -15 -14 -14 -14 -13 -13 -13 -13 -13 -13 -13 -14 -14
-13 -13 -13 -13 -13 -13 -13 -13 -13 -13 -14 -14 -14 -15 -15 -15 -15 -15 -15 -15 -15 -15 -15 -15 -15 -15 -15 -15 -16 -16 -15 -15 -15 -15 -14 -14 -13 -13 -13 -13 -13 -13 -13 -13 -13
-12 -13 -13 -13 -13 -13 -13 -14 -14 -14 -14 -14 -14 -14 -15 -15 -15 -15 -16 -16 -16 -16 -16 -16 -16 -16 -15 -16 -16 -16 -15 -15 -15 -15 -14 -14 -13 -13 -13 -13 -13 -13 -13 -13 -13
-12 -12 -13 -13 -13 -13 -13 -14 -14 -14 -14 -14 -15 -15 -15 -15 -15 -15 -16 -16 -16 -16 -17 -17 -16 -16 -16 -16 -16 -16 -16 -15 -15 -15 -14 -15 -13 -13 -13 -14 -14 -14 -13 -13 -13
-12 -12 -12 -13 -13 -13 -13 -14 -14 -14 -14 -15 -15 -15 -15 -16 -16 -16 -16 -16 -16 -16 -16 -17 -17 -17 -17 -17 -17 -16 -16 -16 -16 -16 -15 -15 -14 -13 -15 -14 -14 -14 -14 -13 -13
-12 -12 -12 -12 -13 -13 -13 -14 -14 -14 -14 -15 -15 -15 -15 -16 -16 -16 -16 -16 -16 -16 -17 -17 -18 -18 -19 -18 -18 -18 -17 -17 -17 -17 -16 -16 -15 -15 -15 -14 -14 -14 -14 -13 -13
-12 -12 -13 -13 -13 -13 -13 -14 -14 -15 -15 -15 -15 -15 -15 -16 -16 -16 -16 -16 -17 -17 -17 -17 -17 -19 -19 -19 -19 -19 -18 -19 -18 -17 -17 -16 -15 -16 -16 -15 -14 -14 -14 -14 -14
-13 -13 -13 -13 -13 -13 -14 -14 -15 -15 -15 -16 -16 -16 -16 -16 -16 -16 -16 -16 -17 -17 -18 -18 -18 -19 -19 -20 -20 -19 -20 -19 -19 -19 -18 -17 -17 -17 -17 -17 -16 -15 -15 -14 -14
-13 -13 -13 -13 -13 -13 -14 -14 -14 -15 -15 -16 -16 -16 -17 -17 -17 -17 -17 -17 -17 -18 -18 -19 -19 -19 -20 -20 -20 -20 -20 -20 -20 -19 -18 -17 -17 -17 -18 -18 -18 -18 -18 -17 -15
-13 -14 -13 -14 -14 -14 -14 -14 -14 -15 -15 -16 -16 -17 -17 -17 -17 -18 -18 -18 -18 -18 -19 -19 -19 -20 -20 -21 -21 -21 -21 -20 -20 -20 -19 -18 -17 -17 -18 -19 -19 -19 -19 -18 -18
-14 -14 -14 -14 -14 -14 -14 -15 -15 -15 -15 -16 -16 -17 -17 -17 -18 -18 -18 -19 -19 -19 -20 -20 -20 -20 -21 -21 -21 -21 -21 -21 -20 -20 -19 -19 -17 -19 -20 -19 -19 -19 -18 -19 -19
-14 -14 -14 -15 -15 -15 -15 -15 -15 -16 -16 -17 -17 -17 -17 -18 -18 -18 -18 -19 -20 -20 -21 -21 -21 -21 -21 -21 -22 -22 -21 -21 -20 -20 -19 -19 -18 -19 -20 -19 -18 -18 -19 -19 -19
-14 -14 -15 -15 -15 -15 -15 -16 -16 -16 -16 -16 -17 -17 -17 -18 -18 -18 -19 -20 -20 -21 -21 -22 -21 -21 -22 -22 -22 -22 -22 -21 -21 -20 -20 -19 -19 -20 -20 -19 -19 -19 -19 -19 -19
-14 -14 -14 -15 -15 -15 -15 -16 -16 -16 -16 -16 -16 -17 -17 -18 -18 -19 -20 -21 -21 -22 -22 -22 -21 -22 -22 -22 -22 -22 -21 -21 -21 -20 -20 -20 -20 -21 -20 -19 -19 -19 -19 -19 -20
-14 -14 -14 -14 -15 -14 -15 -15 -16 -16 -16 -16 -17 -17 -18 -18 -18 -18 -19 -21 -21 -22 -22 -22 -21 -22 -22 -22 -22 -22 -21 -21 -21 -21 -20 -20 -20 -21 -20 -20 -19 -20 -20 -20 -20
-14 -15 -15 -14 -15 -14 -15 -15 -15 -16 -16 -16 -16 -17 -18 -18 -18 -19 -20 -21 -21 -22 -22 -22 -22 -22 -22 -22 -22 -21 -21 -22 -21 -21 -21 -21 -21 -20 -20 -20 -20 -20 -20 -20 -20

GFSSW_500_temp_072.txt.gz
Temp
-13 -13 -12 -12 -12 -12 -11 -11 -11 -11 -11 -11 -11 -11 -11 -11 -11 -11 -11 -11 -11 -11 -11 -11 -11 -10 -11 -10 -11 -11 -11 -10 -10 -9 -10 -10 -9 -9 -9 -10 -11 -10 -10 -9 -8
-14 -13 -12 -12 -12 -12 -11 -11 -11 -11 -11 -11 -11 -11 -11 -11 -11 -12 -12 -12 -11 -11 -11 -11 -11 -11 -11 -11 -11 -11 -11 -11 -11 -11 -11 -11 -11 -10 -9 -10 -11 -11 -10 -10 -9
-14 -13 -13 -12 -12 -12 -12 -11 -11 -11 -11 -11 -11 -11 -11 -11 -11 -11 -12 -12 -12 -12 -12 -12 -12 -12 -12 -12 -12 -11 -11 -12 -13 -12 -12 -12 -11 -12 -10 -10 -11 -12 -11 -10 -9
-14 -13 -12 -12 -12 -12 -12 -12 -12 -12 -11 -11 -11 -12 -12 -12 -12 -12 -12 -12 -12 -12 -12 -12 -12 -12 -12 -12 -13 -12 -12 -12 -13 -13 -13 -12 -12 -11 -11 -11 -11 -12 -12 -11 -11
-14 -13 -12 -12 -12 -12 -12 -12 -12 -12 -12 -12 -12 -12 -13 -13 -12 -12 -12 -12 -12 -12 -12 -12 -12 -13 -13 -13 -13 -13 -13 -12 -13 -13 -13 -13 -12 -13 -12 -12 -12 -11 -13 -11 -11
-13 -13 -13 -12 -12 -12 -12 -12 -12 -12 -12 -12 -12 -13 -13 -13 -13 -13 -13 -12 -12 -13 -13 -13 -13 -13 -13 -13 -13 -13 -13 -13 -13 -13 -13 -13 -13 -14 -12 -13 -12 -11 -13 -11 -11
-12 -13 -13 -13 -13 -13 -12 -12 -12 -13 -13 -13 -13 -13 -13 -13 -13 -13 -13 -13 -13 -13 -13 -13 -14 -14 -14 -13 -13 -13 -13 -13 -13 -13 -13 -14 -13 -13 -13 -11 -11 -11 -12 -12 -11
-12 -12 -12 -12 -12 -12 -13 -13 -13 -13 -13 -13 -13 -13 -13 -13 -13 -13 -13 -13 -13 -13 -13 -14 -14 -14 -14 -14 -14 -14 -14 -14 -14 -13 -14 -14 -13 -14 -13 -12 -11 -12 -12 -13 -12
-12 -12 -12 -12 -12 -12 -13 -13 -13 -13 -13 -13 -13 -13 -13 -13 -13 -13 -13 -13 -13 -13 -14 -14 -14 -14 -14 -14 -14 -14 -14 -14 -14 -14 -14 -14 -14 -14 -12 -12 -12 -12 -12 -12 -13
-13 -13 -12 -12 -12 -12 -12 -12 -13 -13 -13 -13 -14 -14 -13 -13 -13 -13 -13 -13 -13 -14 -14 -14 -14 -15 -15 -15 -15 -14 -14 -14 -14 -14 -14 -14 -14 -14 -13 -13 -12 -12 -13 -12 -13
-12 -12 -12 -13 -13 -13 -12 -12 -12 -12 -13 -13 -13 -14 -14 -14 -14 -14 -14 -14 -14 -14 -14 -15 -15 -15 -15 -15 -15 -15 -15 -15 -15 -15 -14 -14 -14 -14 -14 -13 -13 -13 -12 -12 -12
-12 -12 -12 -12 -12 -13 -13 -13 -13 -13 -13 -13 -13 -13 -14 -14 -14 -14 -14 -14 -14 -15 -15 -15 -15 -15 -15 -15 -15 -15 -15 -15 -15 -15 -14 -14 -14 -14 -14 -14 -14 -14 -14 -14 -12
-12 -12 -11 -12 -12 -12 -13 -13 -13 -13 -13 -13 -13 -14 -14 -14 -14 -14 -15 -15 -15 -15 -15 -15 -15 -15 -15 -15 -16 -16 -16 -16 -15 -15 -15 -15 -14 -14 -14 -14 -14 -14 -14 -14 -14
-11 -11 -12 -12 -12 -12 -12 -13 -13 -13 -13 -14 -14 -14 -14 -14 -14 -14 -14 -15 -15 -15 -15 -16 -15 -15 -15 -16 -16 -16 -16 -16 -15 -15 -15 -15 -14 -14 -14 -14 -14 -14 -14 -14 -13
-12 -12 -12 -12 -12 -12 -12 -13 -13 -13 -13 -14 -14 -14 -15 -15 -15 -15 -15 -15 -15 -15 -15 -16 -16 -16 -16 -16 -16 -16 -16 -16 -16 -15 -15 -15 -15 -15 -15 -15 -15 -14 -14 -13 -13
-12 -12 -12 -12 -12 -12 -12 -13 -13 -13 -14 -14 -14 -15 -15 -15 -15 -15 -15 -16 -16 -16 -16 -16 -16 -16 -17 -16 -17 -17 -17 -17 -17 -16 -16 -16 -16 -16 -15 -15 -15 -15 -14 -14 -13
-12 -12 -12 -12 -12 -12 -13 -13 -13 -14 -14 -14 -15 -15 -15 -16 -16 -16 -16 -16 -16 -16 -17 -17 -17 -17 -17 -17 -17 -18 -18 -19 -19 -20 -18 -17 -16 -16 -16 -16 -16 -15 -14 -14 -14
-13 -13 -13 -13 -13 -13 -13 -13 -13 -14 -14 -15 -15 -15 -16 -16 -16 -16 -16 -17 -17 -17 -17 -18 -18 -18 -17 -19 -19 -21 -20 -21 -21 -20 -19 -19 -17 -18 -17 -17 -16 -16 -15 -15 -14
-13 -13 -13 -13 -13 -13 -13 -14 -14 -14 -15 -15 -15 -15 -16 -16 -16 -16 -17 -17 -17 -17 -17 -18 -18 -19 -19 -19 -19 -20 -19 -21 -20 -20 -19 -18 -18 -18 -18 -18 -17 -17 -16 -15 -14
-13 -13 -14 -13 -14 -14 -14 -14 -14 -14 -15 -15 -16 -16 -17 -17 -17 -17 -17 -17 -17 -18 -18 -18 -18 -19 -19 -19 -20 -20 -21 -20 -21 -20 -20 -20 -20 -20 -18 -19 -18 -18 -17 -16 -15
-13 -13 -14 -14 -14 -14 -14 -14 -15 -15 -15 -16 -16 -16 -16 -18 -18 -18 -17 -18 -18 -18 -19 -19 -19 -19 -20 -20 -20 -22 -20 -20 -21 -22 -21 -21 -20 -20 -19 -20 -19 -18 -18 -17 -17
-13 -13 -14 -14 -14 -14 -14 -15 -15 -15 -15 -15 -16 -16 -16 -17 -18 -18 -18 -18 -19 -19 -20 -20 -20 -20 -21 -22 -22 -21 -21 -22 -22 -21 -21 -20 -19 -21 -20 -20 -19 -19 -18 -18 -17
-13 -13 -13 -14 -14 -14 -15 -15 -15 -15 -15 -15 -15 -16 -16 -17 -17 -18 -18 -19 -19 -20 -21 -21 -21 -21 -21 -22 -21 -21 -22 -22 -22 -21 -20 -20 -20 -20 -20 -20 -19 -18 -18 -18 -18
-13 -13 -13 -13 -14 -14 -14 -15 -15 -15 -16 -16 -16 -16 -16 -17 -18 -17 -18 -18 -19 -20 -21 -21 -21 -22 -21 -22 -22 -22 -22 -22 -22 -21 -21 -20 -20 -20 -21 -20 -19 -19 -18 -18 -18
-12 -12 -12 -13 -13 -14 -14 -15 -15 -15 -16 -16 -16 -16 -16 -17 -17 -18 -18 -19 -20 -21 -22 -22 -22 -22 -22 -22 -22 -22 -22 -22 -22 -21 -21 -20 -20 -20 -20 -19 -19 -19 -19 -19 -19
-12 -12 -13 -13 -13 -14 -14 -15 -15 -15 -16 -16 -16 -16 -16 -17 -17 -17 -18 -19 -20 -21 -22 -22 -22 -22 -22 -22 -22 -22 -22 -22 -22 -22 -21 -20 -20 -20 -20 -19 -19 -19 -19 -19 -19
-13 -13 -13 -14 -14 -14 -15 -15 -15 -15 -16 -16 -16 -16 -16 -17 -17 -17 -18 -19 -20 -21 -22 -22 -22 -22 -21 -22 -22 -22 -22 -22 -22 -21 -21 -21 -20 -20 -20 -20 -19 -19 -19 -20 -20

GFSSW_500_temp_075.txt.gz
Temp
-13 -13 -12 -11 -11 -11 -11 -11 -11 -11 -11 -11 -11 -11 -11 -11 -11 -11 -11 -11 -10 -10 -10 -10 -10 -10 -10 -10 -10 -11 -10 -9 -9 -9 -9 -11 -12 -8 -9 -9 -10 -11 -10 -9 -8
-13 -12 -12 -12 -11 -11 -11 -11 -11 -11 -11 -11 -11 -11 -11 -11 -11 -11 -11 -11 -11 -11 -11 -11 -11 -11 -10 -11 -11 -10 -10 -9 -10 -10 -11 -13 -13 -12 -10 -10 -9 -9 -10 -10 -10
-13 -12 -12 -12 -11 -11 -11 -11 -11 -11 -11 -11 -11 -10 -10 -10 -10 -10 -11 -11 -11 -11 -11 -12 -12 -11 -11 -11 -11 -11 -10 -10 -10 -11 -12 -13 -14 -13 -13 -10 -10 -9 -9 -9 -10
-13 -12 -12 -12 -11 -11 -11 -11 -11 -11 -11 -11 -11 -11 -11 -11 -11 -11 -11 -11 -11 -11 -12 -12 -12 -12 -12 -11 -12 -11 -11 -11 -11 -11 -12 -12 -13 -13 -14 -13 -11 -10 -9 -9 -10
-12 -12 -12 -12 -12 -12 -12 -12 -12 -11 -11 -11 -11 -11 -11 -11 -11 -12 -12 -12 -12 -12 -12 -12 -12 -12 -12 -12 -12 -11 -12 -11 -12 -11 -11 -12 -12 -12 -13 -13 -13 -10 -9 -9 -12
-12 -12 -12 -12 -12 -12 -12 -12 -12 -12 -12 -12 -12 -12 -12 -12 -12 -12 -12 -12 -12 -12 -12 -12 -12 -12 -13 -12 -12 -12 -12 -12 -12 -12 -12 -12 -13 -13 -12 -13 -13 -11 -11 -10 -11
-12 -11 -11 -12 -12 -12 -12 -12 -12 -12 -12 -12 -12 -12 -12 -12 -12 -12 -12 -12 -12 -12 -12 -12 -12 -13 -12 -13 -12 -12 -12 -12 -12 -13 -12 -13 -12 -12 -13 -14 -12 -12 -11 -12 -12
-11 -11 -12 -12 -11 -12 -12 -12 -12 -12 -12 -12 -12 -12 -12 -12 -12 -12 -12 -12 -12 -13 -13 -13 -13 -13 -13 -13 -13 -13 -13 -13 -13 -13 -13 -13 -12 -13 -13 -13 -13 -13 -12 -12 -12
-12 -12 -12 -11 -11 -11 -12 -12 -12 -12 -12 -12 -13 -13 -13 -13 -13 -13 -13 -13 -13 -12 -13 -13 -13 -13 -13 -14 -14 -14 -14 -14 -14 -14 -13 -14 -13 -13 -14 -13 -13 -13 -13 -12 -13
-11 -11 -11 -12 -12 -12 -12 -12 -12 -12 -12 -12 -12 -13 -13 -13 -13 -13 -13 -13 -13 -13 -13 -13 -13 -13 -14 -14 -14 -16 -16 -15 -15 -16 -13 -13 -14 -14 -14 -13 -13 -13 -13 -13 -12
-11 -11 -11 -11 -11 -12 -12 -12 -12 -12 -12 -12 -12 -12 -13 -13 -13 -13 -13 -13 -13 -13 -13 -13 -13 -13 -14 -14 -14 -14 -14 -15 -15 -15 -14 -14 -14 -14 -14 -14 -13 -13 -13 -13 -13
-11 -11 -11 -11 -11 -11 -11 -12 -12 -12 -12 -12 -13 -13 -13 -13 -13 -13 -13 -13 -14 -14 -14 -14 -14 -14 -14 -14 -14 -15 -15 -15 -15 -15 -15 -14 -14 -14 -14 -14 -14 -14 -14 -14 -13
-11 -11 -11 -11 -11 -11 -11 -11 -11 -12 -12 -12 -13 -13 -13 -14 -13 -13 -14 -14 -14 -14 -14 -14 -15 -14 -15 -15 -15 -15 -15 -15 -15 -16 -14 -14 -14 -14 -15 -14 -14 -14 -14 -14 -14
-12 -11 -11 -11 -11 -11 -11 -12 -12 -12 -12 -12 -13 -13 -13 -14 -14 -14 -14 -14 -14 -14 -15 -15 -15 -14 -15 -15 -16 -16 -16 -16 -15 -15 -15 -17 -15 -15 -15 -14 -14 -14 -14 -14 -14
-12 -12 -12 -12 -12 -12 -12 -12 -12 -12 -13 -13 -13 -13 -13 -14 -14 -14 -15 -15 -15 -15 -15 -15 -16 -15 -15 -16 -16 -16 -16 -16 -16 -16 -16 -15 -16 -15 -16 -17 -16 -15 -14 -14 -14
-12 -12 -12 -12 -12 -12 -12 -13 -13 -13 -13 -13 -13 -13 -14 -14 -15 -15 -15 -15 -16 -16 -16 -16 -16 -16 -16 -16 -16 -16 -17 -17 -17 -17 -18 -16 -18 -16 -17 -17 -17 -15 -14 -15 -14
-12 -12 -12 -12 -13 -13 -13 -13 -13 -13 -13 -13 -14 -14 -14 -15 -15 -15 -16 -16 -16 -16 -16 -17 -17 -17 -18 -17 -17 -17 -18 -19 -19 -18 -17 -17 -18 -17 -18 -18 -19 -16 -16 -15 -14
-12 -12 -13 -12 -12 -13 -13 -13 -14 -14 -14 -14 -14 -14 -15 -15 -15 -16 -16 -16 -17 -17 -17 -17 -18 -18 -18 -18 -19 -19 -19 -19 -19 -18 -18 -18 -18 -18 -18 -19 -18 -17 -16 -16 -16
-12 -12 -12 -13 -13 -13 -13 -14 -14 -14 -14 -15 -15 -15 -15 -16 -15 -16 -16 -17 -17 -18 -19 -19 -19 -19 -18 -19 -20 -20 -20 -20 -19 -20 -19 -19 -18 -18 -18 -19 -18 -18 -17 -17 -16
-12 -12 -12 -12 -13 -13 -13 -14 -14 -14 -15 -15 -15 -15 -16 -17 -16 -15 -17 -17 -16 -17 -18 -18 -18 -20 -19 -19 -20 -20 -20 -20 -19 -19 -20 -19 -19 -18 -18 -19 -18 -18 -18 -17 -16
-11 -11 -12 -12 -13 -13 -13 -14 -14 -15 -15 -15 -15 -15 -15 -16 -15 -16 -16 -18 -19 -17 -18 -18 -19 -19 -21 -20 -21 -21 -20 -21 -21 -21 -20 -20 -19 -18 -18 -19 -19 -20 -18 -17 -17
-11 -11 -12 -12 -13 -13 -13 -14 -14 -14 -15 -15 -15 -16 -16 -16 -15 -16 -16 -18 -19 -17 -18 -20 -21 -19 -21 -21 -21 -21 -21 -21 -21 -20 -21 -21 -20 -19 -19 -19 -19 -20 -19 -18 -18
-11 -11 -12 -12 -13 -13 -13 -14 -14 -14 -15 -15 -15 -15 -16 -16 -16 -16 -17 -17 -18 -18 -19 -20 -20 -20 -20 -21 -21 -20 -21 -20 -21 -22 -21 -21 -19 -20 -19 -19 -20 -20 -19 -19 -18
-12 -12 -12 -12 -13 -13 -14 -14 -14 -14 -15 -15 -15 -15 -16 -16 -16 -16 -16 -17 -18 -18 -19 -20 -21 -21 -21 -21 -22 -21 -21 -21 -21 -21 -21 -21 -21 -20 -19 -19 -19 -21 -20 -20 -19
-12 -12 -12 -13 -12 -13 -14 -14 -14 -14 -15 -15 -15 -15 -16 -16 -16 -16 -17 -17 -18 -19 -20 -20 -21 -22 -22 -22 -23 -22 -22 -22 -22 -21 -22 -21 -21 -21 -20 -20 -21 -21 -21 -21 -20
-12 -12 -12 -13 -13 -13 -13 -15 -15 -15 -15 -15 -15 -16 -16 -16 -16 -16 -16 -17 -18 -19 -20 -21 -21 -22 -21 -22 -22 -23 -22 -22 -22 -22 -22 -22 -22 -21 -21 -21 -20 -21 -21 -21 -20
-13 -12 -13 -13 -13 -13 -14 -14 -15 -15 -15 -15 -15 -16 -16 -16 -16 -16 -16 -17 -18 -19 -20 -21 -21 -21 -21 -22 -22 -21 -21 -21 -22 -22 -22 -22 -21 -21 -21 -20 -21 -20 -20 -21 -19

GFSSW_500_temp_078.txt.gz
Temp
-12 -12 -11 -11 -10 -10 -10 -10 -10 -10 -10 -10 -10 -11 -11 -11 -11 -10 -10 -10 -10 -10 -10 -10 -9 -9 -9 -9 -9 -9 -9 -8 -9 -9 -9 -10 -12 -12 -10 -8 -10 -10 -11 -10 -10
-12 -12 -11 -11 -11 -11 -11 -11 -11 -11 -11 -11 -11 -11 -11 -11 -10 -10 -11 -10 -10 -10 -10 -10 -10 -10 -10 -9 -9 -9 -9 -9 -9 -10 -10 -11 -13 -13 -12 -11 -8 -10 -11 -11 -10
-12 -12 -11 -11 -11 -11 -11 -11 -11 -11 -11 -11 -11 -10 -10 -10 -10 -10 -10 -10 -10 -10 -10 -10 -10 -10 -10 -10 -10 -10 -9 -9 -9 -10 -10 -11 -11 -13 -13 -12 -11 -9 -10 -11 -10
-12 -11 -11 -11 -11 -11 -11 -11 -11 -11 -11 -11 -11 -10 -10 -10 -10 -11 -11 -11 -11 -11 -11 -11 -11 -11 -11 -11 -11 -11 -10 -10 -10 -10 -11 -10 -11 -13 -13 -13 -12 -12 -9 -11 -10
-12 -11 -11 -11 -11 -11 -11 -11 -11 -11 -11 -11 -11 -11 -11 -11 -11 -11 -11 -11 -11 -11 -11 -11 -11 -11 -11 -12 -12 -11 -11 -11 -11 -11 -11 -11 -11 -11 -11 -11 -13 -12 -11 -9 -11
-11 -11 -11 -11 -11 -11 -11 -11 -11 -11 -11 -11 -11 -11 -11 -11 -11 -11 -11 -11 -12 -12 -12 -12 -12 -11 -12 -12 -12 -12 -12 -11 -11 -11 -11 -11 -11 -12 -10 -12 -13 -13 -11 -10 -10
-11 -11 -11 -11 -11 -11 -11 -11 -12 -12 -12 -12 -12 -12 -12 -12 -12 -12 -12 -12 -12 -12 -12 -12 -12 -12 -12 -12 -13 -12 -12 -12 -12 -12 -12 -13 -12 -10 -11 -12 -12 -12 -12 -12 -11
-11 -11 -11 -11 -10 -11 -11 -11 -11 -11 -12 -12 -12 -12 -12 -12 -12 -12 -12 -12 -12 -12 -12 -12 -12 -12 -12 -12 -12 -12 -13 -12 -12 -13 -12 -13 -11 -11 -12 -12 -12 -12 -13 -13 -13
-11 -11 -11 -11 -11 -11 -11 -11 -11 -11 -11 -11 -11 -12 -12 -12 -12 -12 -12 -12 -12 -12 -12 -12 -12 -12 -12 -12 -13 -13 -13 -13 -13 -14 -14 -15 -12 -12 -12 -13 -12 -12 -12 -12 -13
-10 -10 -10 -11 -11 -11 -11 -11 -11 -11 -12 -12 -12 -12 -12 -12 -12 -12 -13 -13 -13 -13 -13 -13 -13 -13 -13 -13 -13 -13 -15 -15 -15 -15 -16 -15 -13 -13 -13 -13 -13 -13 -12 -13 -13
-11 -11 -11 -10 -11 -11 -11 -11 -11 -11 -11 -12 -12 -12 -12 -12 -12 -12 -12 -12 -13 -13 -13 -13 -13 -13 -13 -13 -14 -14 -14 -13 -14 -15 -16 -15 -15 -14 -13 -14 -14 -13 -13 -12 -13
-11 -11 -11 -11 -11 -11 -11 -11 -11 -11 -11 -11 -11 -12 -12 -12 -13 -13 -13 -13 -13 -13 -13 -13 -13 -14 -14 -14 -14 -14 -14 -14 -14 -15 -16 -15 -14 -14 -14 -13 -14 -14 -14 -13 -13
-11 -11 -11 -11 -11 -11 -11 -11 -11 -11 -11 -11 -11 -12 -12 -12 -12 -13 -13 -13 -13 -13 -14 -14 -14 -15 -14 -14 -14 -14 -15 -15 -15 -15 -16 -16 -15 -14 -14 -15 -14 -14 -15 -14 -14
-11 -11 -11 -11 -12 -12 -12 -12 -12 -12 -12 -11 -12 -12 -12 -12 -12 -13 -13 -13 -14 -14 -14 -14 -14 -15 -15 -14 -15 -15 -16 -17 -17 -18 -16 -17 -16 -15 -15 -16 -17 -15 -14 -14 -14
-11 -11 -11 -11 -12 -12 -12 -12 -12 -12 -12 -12 -12 -13 -13 -13 -13 -12 -13 -13 -14 -14 -14 -14 -15 -15 -17 -15 -15 -16 -17 -17 -16 -17 -17 -15 -18 -14 -16 -16 -16 -16 -16 -14 -15
-11 -12 -12 -12 -12 -12 -12 -12 -13 -13 -13 -13 -13 -13 -13 -13 -14 -14 -14 -14 -14 -15 -15 -15 -16 -16 -16 -17 -17 -18 -17 -16 -16 -19 -18 -15 -18 -15 -16 -16 -17 -17 -17 -16 -15
-11 -11 -12 -12 -12 -12 -12 -12 -13 -13 -14 -15 -13 -14 -14 -14 -15 -15 -15 -15 -15 -15 -15 -16 -17 -17 -17 -17 -18 -18 -19 -19 -19 -18 -18 -17 -17 -17 -16 -17 -17 -17 -17 -16 -16
-12 -11 -12 -12 -12 -12 -12 -13 -13 -14 -16 -16 -14 -14 -15 -15 -15 -16 -16 -17 -16 -17 -18 -17 -18 -18 -18 -18 -18 -18 -18 -18 -18 -18 -18 -17 -17 -16 -17 -17 -18 -17 -16 -16 -16
-12 -12 -12 -12 -12 -12 -13 -13 -13 -13 -14 -14 -14 -15 -15 -16 -17 -16 -16 -16 -17 -17 -17 -17 -17 -18 -18 -18 -18 -18 -18 -19 -18 -18 -18 -18 -17 -18 -17 -18 -18 -18 -17 -18 -17
-11 -11 -12 -12 -12 -13 -13 -13 -14 -14 -14 -14 -15 -15 -15 -15 -16 -17 -17 -17 -17 -18 -17 -17 -16 -17 -17 -18 -18 -19 -18 -19 -19 -19 -19 -19 -18 -18 -18 -18 -18 -18 -17 -17 -18
-11 -11 -12 -12 -13 -13 -13 -13 -14 -14 -14 -14 -14 -15 -15 -15 -15 -15 -15 -16 -16 -17 -18 -18 -18 -17 -18 -18 -19 -19 -19 -19 -19 -20 -19 -19 -19 -19 -19 -18 -18 -18 -18 -18 -18
-12 -11 -12 -11 -12 -12 -13 -13 -14 -14 -14 -14 -14 -14 -15 -15 -15 -15 -16 -16 -16 -17 -18 -18 -18 -18 -19 -20 -21 -19 -19 -19 -19 -19 -19 -20 -18 -20 -18 -18 -19 -18 -19 -18 -19
-12 -12 -12 -12 -12 -13 -13 -14 -14 -14 -14 -15 -14 -15 -15 -15 -15 -16 -16 -16 -16 -17 -17 -18 -18 -19 -19 -21 -21 -20 -20 -20 -19 -20 -19 -20 -19 -20 -20 -18 -19 -19 -18 -18 -20
-12 -12 -11 -12 -13 -13 -13 -14 -14 -14 -14 -14 -15 -15 -15 -15 -16 -16 -16 -16 -16 -17 -17 -18 -19 -21 -20 -21 -22 -22 -20 -20 -21 -20 -20 -20 -20 -20 -20 -19 -19 -19 -19 -18 -18
-12 -12 -12 -13 -12 -12 -13 -13 -14 -14 -14 -15 -15 -15 -15 -15 -16 -16 -16 -16 -16 -18 -18 -18 -19 -20 -21 -23 -23 -23 -22 -22 -21 -21 -21 -20 -21 -20 -21 -20 -19 -20 -19 -19 -19
-13 -13 -12 -13 -13 -13 -13 -14 -14 -14 -14 -15 -15 -15 -15 -16 -15 -16 -16 -16 -16 -17 -18 -20 -20 -21 -20 -21 -22 -22 -22 -22 -22 -22 -22 -21 -21 -21 -21 -21 -21 -20 -20 -19 -20
-13 -13 -13 -14 -13 -13 -14 -14 -14 -14 -15 -15 -15 -15 -16 -16 -16 -16 -16 -16 -16 -17 -18 -20 -20 -21 -20 -21 -21 -20 -21 -21 -20 -20 -21 -21 -20 -20 -20 -19 -20 -20 -20 -19 -20

GFSSW_500_temp_084.txt.gz
Temp
-11 -11 -10 -10 -10 -10 -10 -10 -10 -9 -9 -10 -9 -9 -9 -9 -9 -10 -10 -10 -10 -10 -10 -9 -9 -9 -9 -9 -9 -9 -8 -8 -8 -8 -8 -9 -9 -8 -9 -9 -11 -10 -10 -9 -8
-11 -11 -11 -11 -10 -10 -10 -10 -10 -10 -10 -10 -10 -10 -10 -10 -10 -10 -10 -10 -10 -10 -10 -10 -9 -9 -9 -10 -9 -8 -8 -8 -9 -9 -9 -10 -10 -11 -10 -10 -10 -12 -11 -10 -10
-11 -11 -11 -11 -10 -10 -10 -10 -10 -10 -10 -10 -10 -10 -10 -10 -10 -10 -10 -10 -10 -10 -10 -10 -10 -9 -10 -9 -9 -9 -8 -9 -9 -9 -9 -9 -10 -11 -10 -10 -10 -11 -12 -12 -11
-11 -11 -11 -11 -11 -11 -11 -11 -11 -10 -10 -10 -10 -10 -10 -10 -10 -10 -10 -10 -10 -10 -10 -10 -10 -10 -10 -9 -10 -8 -8 -9 -9 -9 -9 -9 -11 -11 -10 -9 -10 -10 -11 -11 -10
-11 -11 -11 -11 -11 -11 -11 -11 -11 -11 -11 -11 -11 -11 -11 -11 -11 -11 -11 -11 -11 -10 -10 -10 -10 -10 -10 -10 -10 -9 -10 -9 -9 -9 -10 -10 -10 -10 -9 -10 -10 -10 -10 -10 -10
-10 -11 -11 -11 -11 -11 -11 -11 -11 -11 -11 -11 -11 -11 -11 -11 -12 -11 -11 -11 -11 -11 -11 -11 -10 -10 -10 -11 -11 -11 -10 -10 -10 -10 -10 -10 -10 -10 -9 -11 -11 -11 -11 -11 -11
-10 -10 -10 -10 -10 -10 -11 -11 -11 -11 -11 -11 -11 -11 -11 -11 -12 -12 -11 -12 -12 -12 -12 -12 -12 -12 -12 -12 -11 -11 -11 -11 -11 -11 -12 -13 -11 -9 -10 -12 -12 -13 -13 -13 -12
-10 -10 -10 -10 -10 -10 -10 -10 -10 -10 -10 -10 -11 -11 -11 -11 -12 -12 -12 -12 -12 -12 -12 -12 -12 -12 -12 -12 -12 -12 -12 -12 -13 -13 -13 -14 -10 -10 -12 -13 -12 -12 -12 -14 -13
-10 -10 -10 -10 -10 -10 -10 -10 -10 -10 -10 -11 -11 -11 -11 -11 -11 -11 -11 -12 -12 -12 -13 -13 -13 -13 -13 -13 -13 -13 -12 -12 -13 -14 -13 -13 -10 -11 -12 -12 -11 -11 -11 -12 -13
-11 -10 -10 -10 -10 -10 -10 -10 -10 -10 -10 -11 -11 -11 -11 -11 -11 -11 -11 -11 -11 -12 -13 -12 -13 -13 -13 -13 -13 -13 -13 -13 -13 -14 -13 -13 -12 -12 -12 -13 -11 -12 -12 -12 -13
-11 -11 -11 -11 -10 -10 -10 -10 -10 -11 -11 -11 -11 -11 -11 -11 -11 -11 -11 -12 -12 -12 -12 -12 -12 -13 -13 -13 -13 -13 -13 -13 -13 -13 -13 -13 -13 -13 -14 -12 -12 -12 -12 -12 -12
-11 -11 -11 -10 -11 -11 -11 -11 -11 -11 -11 -11 -11 -11 -11 -11 -11 -11 -12 -12 -12 -12 -12 -12 -12 -13 -13 -13 -13 -13 -13 -13 -13 -14 -14 -14 -13 -14 -15 -15 -13 -13 -13 -13 -14
-11 -11 -11 -11 -10 -11 -11 -11 -11 -11 -11 -11 -11 -11 -11 -11 -12 -12 -12 -12 -12 -13 -13 -12 -13 -13 -13 -13 -13 -13 -13 -13 -14 -14 -14 -14 -13 -14 -14 -14 -15 -14 -14 -14 -14
-11 -11 -11 -11 -11 -11 -11 -11 -11 -11 -11 -11 -12 -12 -12 -12 -13 -12 -12 -13 -13 -13 -13 -13 -14 -14 -14 -13 -14 -14 -14 -14 -14 -14 -14 -14 -12 -13 -14 -15 -16 -16 -16 -16 -16
-11 -12 -11 -11 -11 -11 -11 -11 -11 -12 -12 -11 -12 -12 -12 -13 -12 -13 -13 -13 -13 -13 -13 -14 -14 -14 -14 -14 -15 -14 -15 -14 -15 -15 -14 -14 -13 -12 -14 -14 -15 -15 -15 -15 -15
-11 -11 -11 -12 -11 -11 -11 -11 -12 -12 -12 -12 -11 -11 -11 -12 -13 -13 -13 -13 -13 -14 -14 -14 -15 -15 -14 -15 -16 -16 -15 -15 -15 -14 -13 -14 -14 -12 -15 -16 -16 -16 -16 -16 -15
-11 -11 -11 -12 -12 -12 -12 -12 -12 -13 -13 -12 -12 -11 -11 -13 -13 -13 -13 -12 -13 -13 -13 -14 -14 -15 -16 -16 -16 -16 -16 -16 -15 -15 -14 -16 -15 -14 -16 -17 -17 -17 -16 -17 -17
-11 -11 -12 -12 -12 -12 -12 -13 -13 -13 -13 -13 -12 -12 -13 -13 -14 -14 -14 -15 -15 -16 -16 -15 -13 -14 -15 -16 -16 -16 -17 -17 -16 -15 -15 -16 -16 -16 -16 -17 -18 -18 -17 -17 -17
-11 -12 -12 -12 -12 -12 -12 -13 -13 -13 -13 -12 -12 -13 -14 -15 -15 -14 -14 -15 -15 -16 -15 -15 -15 -15 -16 -16 -17 -17 -17 -17 -17 -18 -17 -17 -17 -17 -17 -17 -18 -18 -18 -18 -17
-12 -12 -12 -12 -12 -12 -12 -12 -13 -13 -13 -12 -12 -13 -14 -15 -15 -15 -14 -15 -15 -16 -16 -16 -15 -15 -16 -16 -17 -17 -17 -17 -18 -18 -18 -18 -18 -18 -17 -18 -18 -18 -18 -19 -18
-12 -13 -12 -12 -12 -12 -12 -13 -13 -13 -13 -13 -13 -13 -13 -13 -14 -14 -14 -15 -16 -15 -16 -15 -16 -16 -16 -16 -16 -17 -18 -18 -18 -19 -19 -19 -19 -20 -20 -19 -18 -19 -19 -19 -19
-12 -13 -13 -13 -13 -12 -12 -13 -13 -13 -13 -13 -13 -13 -13 -13 -13 -14 -15 -15 -15 -15 -15 -15 -15 -15 -16 -16 -17 -18 -18 -19 -20 -20 -21 -21 -20 -20 -20 -20 -19 -20 -19 -19 -19
-13 -13 -13 -13 -13 -13 -13 -13 -13 -13 -13 -14 -13 -13 -14 -15 -14 -14 -15 -15 -15 -15 -15 -16 -16 -16 -15 -16 -17 -18 -19 -20 -21 -21 -20 -21 -21 -21 -21 -21 -20 -19 -20 -20 -20
-13 -13 -14 -14 -13 -14 -13 -14 -14 -14 -14 -14 -14 -14 -14 -14 -15 -15 -15 -15 -16 -16 -16 -16 -16 -16 -16 -16 -17 -18 -19 -20 -21 -20 -20 -21 -21 -21 -21 -21 -20 -19 -18 -19 -19
-14 -14 -14 -15 -14 -14 -15 -14 -14 -14 -14 -14 -14 -14 -15 -15 -15 -15 -15 -15 -16 -16 -16 -16 -16 -16 -16 -18 -18 -19 -19 -20 -21 -20 -20 -20 -21 -22 -21 -21 -21 -19 -20 -19 -20
-14 -14 -14 -15 -15 -15 -15 -15 -15 -15 -15 -15 -15 -15 -15 -15 -15 -15 -15 -16 -16 -17 -17 -16 -16 -16 -17 -19 -19 -19 -20 -20 -20 -21 -21 -21 -21 -20 -20 -21 -21 -20 -20 -20 -20
-15 -15 -15 -16 -15 -16 -16 -16 -16 -15 -16 -15 -15 -16 -16 -16 -16 -16 -16 -16 -16 -16 -16 -16 -16 -17 -18 -19 -20 -20 -20 -20 -20 -20 -21 -21 -20 -20 -20 -20 -20 -20 -20 -20 -20

GFSSW_500_temp_087.txt.gz
Temp
-12 -11 -11 -11 -10 -10 -10 -10 -10 -10 -10 -10 -10 -10 -10 -10 -9 -9 -9 -9 -9 -10 -10 -10 -9 -9 -9 -9 -9 -9 -8 -8 -8 -9 -9 -9 -9 -9 -8 -7 -9 -9 -8 -9 -8
-11 -11 -11 -10 -10 -10 -10 -10 -10 -10 -10 -10 -10 -10 -10 -10 -10 -10 -9 -9 -9 -9 -10 -9 -9 -9 -10 -10 -9 -9 -8 -9 -10 -9 -9 -10 -9 -10 -9 -8 -8 -10 -10 -10 -9
-11 -11 -11 -11 -10 -10 -10 -10 -10 -10 -10 -10 -10 -10 -10 -10 -10 -10 -10 -9 -9 -9 -10 -9 -9 -10 -10 -9 -9 -9 -8 -9 -9 -9 -9 -10 -10 -11 -10 -9 -10 -10 -11 -10 -10
-11 -11 -11 -11 -11 -11 -10 -10 -10 -10 -10 -10 -10 -10 -10 -10 -10 -10 -10 -10 -10 -10 -10 -10 -9 -9 -9 -9 -9 -8 -8 -9 -10 -9 -9 -9 -10 -10 -9 -9 -10 -11 -11 -10 -10
-11 -11 -11 -11 -11 -11 -11 -11 -11 -11 -11 -11 -11 -11 -11 -11 -10 -10 -10 -10 -10 -10 -10 -10 -10 -10 -10 -10 -10 -9 -9 -9 -9 -10 -10 -10 -9 -10 -9 -9 -10 -10 -10 -10 -10
-10 -11 -11 -11 -11 -11 -11 -11 -11 -11 -11 -11 -11 -11 -11 -11 -11 -11 -11 -11 -11 -11 -11 -11 -11 -11 -11 -11 -10 -10 -9 -10 -10 -10 -11 -10 -10 -11 -10 -11 -11 -10 -10 -10 -10
-10 -10 -10 -10 -10 -10 -10 -10 -11 -11 -11 -11 -11 -11 -11 -12 -12 -12 -11 -12 -11 -11 -11 -11 -11 -11 -11 -11 -11 -11 -10 -10 -11 -12 -12 -12 -9 -9 -11 -12 -12 -12 -12 -12 -12
-10 -10 -10 -10 -10 -10 -10 -10 -10 -10 -10 -10 -11 -11 -11 -11 -11 -11 -11 -12 -12 -12 -12 -12 -12 -12 -12 -12 -12 -11 -11 -11 -12 -12 -12 -11 -9 -10 -11 -12 -11 -12 -11 -11 -11
-11 -11 -10 -10 -10 -10 -10 -10 -10 -10 -10 -10 -10 -10 -11 -11 -11 -11 -11 -11 -12 -12 -12 -12 -12 -12 -12 -12 -12 -12 -12 -12 -12 -13 -12 -11 -10 -10 -11 -12 -11 -11 -12 -12 -11
-11 -11 -11 -11 -10 -10 -10 -10 -10 -10 -10 -11 -11 -11 -11 -11 -11 -11 -11 -11 -11 -11 -12 -12 -12 -12 -13 -13 -13 -13 -12 -12 -12 -13 -12 -12 -11 -11 -12 -12 -11 -11 -12 -12 -12
-11 -11 -11 -11 -11 -11 -11 -11 -11 -11 -11 -11 -11 -11 -11 -11 -11 -11 -11 -11 -11 -12 -12 -12 -12 -12 -12 -12 -12 -12 -12 -12 -13 -13 -13 -12 -12 -12 -13 -12 -12 -12 -12 -12 -12
-11 -11 -11 -11 -11 -11 -11 -11 -11 -11 -11 -11 -11 -11 -11 -11 -12 -11 -11 -12 -12 -12 -12 -12 -13 -13 -12 -12 -12 -12 -12 -12 -13 -13 -13 -13 -13 -13 -13 -13 -13 -13 -13 -13 -13
-11 -11 -11 -11 -11 -11 -11 -11 -11 -11 -12 -11 -11 -11 -11 -11 -11 -12 -12 -12 -12 -12 -12 -12 -13 -13 -13 -13 -13 -13 -13 -13 -14 -14 -13 -13 -12 -13 -13 -14 -14 -14 -14 -14 -14
-11 -11 -11 -11 -11 -11 -11 -11 -11 -11 -11 -12 -12 -11 -11 -11 -12 -12 -12 -12 -13 -13 -13 -13 -13 -13 -13 -13 -14 -14 -14 -14 -14 -13 -13 -14 -11 -12 -13 -14 -14 -15 -15 -14 -14
-11 -11 -11 -11 -11 -11 -12 -12 -12 -12 -12 -12 -12 -12 -12 -12 -12 -12 -13 -13 -13 -13 -13 -14 -14 -14 -14 -14 -14 -14 -14 -14 -14 -14 -14 -13 -13 -12 -13 -14 -15 -15 -16 -15 -15
-11 -11 -11 -11 -11 -11 -11 -12 -13 -13 -13 -13 -12 -12 -13 -12 -13 -13 -13 -13 -13 -14 -14 -13 -14 -14 -14 -14 -15 -15 -14 -15 -15 -15 -15 -14 -14 -13 -14 -14 -15 -15 -15 -16 -16
-11 -11 -11 -11 -11 -12 -12 -12 -12 -13 -13 -12 -12 -12 -13 -13 -13 -13 -14 -14 -13 -13 -13 -13 -13 -14 -15 -15 -15 -16 -16 -16 -15 -16 -15 -15 -15 -13 -14 -15 -15 -15 -15 -16 -16
-11 -11 -12 -12 -12 -12 -12 -12 -12 -13 -13 -12 -12 -12 -13 -13 -13 -13 -14 -14 -13 -14 -14 -13 -13 -14 -14 -15 -15 -16 -16 -17 -16 -15 -14 -15 -14 -14 -16 -16 -17 -17 -16 -16 -16
-11 -11 -11 -12 -12 -13 -12 -12 -12 -13 -13 -12 -12 -13 -13 -13 -13 -14 -14 -15 -15 -14 -15 -15 -14 -14 -15 -15 -16 -16 -17 -17 -17 -16 -16 -15 -14 -14 -16 -17 -17 -17 -18 -18 -17
-12 -11 -12 -12 -13 -13 -13 -12 -13 -13 -13 -13 -13 -13 -13 -14 -14 -14 -14 -15 -15 -15 -15 -15 -15 -15 -15 -16 -16 -17 -17 -16 -17 -17 -17 -15 -15 -16 -17 -18 -18 -18 -19 -19 -19
-12 -12 -12 -12 -13 -13 -13 -13 -13 -13 -13 -13 -13 -13 -13 -14 -14 -14 -15 -15 -15 -15 -16 -16 -15 -15 -16 -16 -16 -17 -17 -17 -17 -18 -18 -17 -15 -17 -18 -18 -19 -20 -20 -20 -19
-12 -12 -12 -13 -13 -13 -13 -13 -14 -13 -14 -14 -13 -13 -13 -14 -14 -14 -15 -15 -15 -15 -15 -16 -16 -16 -16 -16 -16 -17 -17 -17 -18 -18 -19 -19 -15 -18 -20 -21 -21 -21 -20 -20 -20
-13 -13 -13 -13 -13 -14 -14 -14 -14 -14 -15 -15 -15 -14 -14 -14 -14 -14 -15 -15 -15 -15 -15 -15 -15 -15 -15 -16 -16 -17 -17 -18 -18 -18 -18 -20 -18 -20 -20 -21 -21 -21 -21 -20 -19
-14 -14 -13 -13 -14 -14 -14 -14 -14 -14 -15 -15 -15 -15 -15 -15 -15 -15 -15 -15 -15 -15 -15 -15 -15 -15 -15 -16 -16 -17 -17 -18 -18 -19 -19 -19 -19 -20 -20 -21 -21 -22 -21 -21 -21
-14 -14 -15 -15 -14 -15 -15 -15 -15 -15 -15 -16 -16 -15 -15 -15 -16 -15 -15 -15 -16 -15 -15 -16 -15 -16 -16 -16 -17 -16 -17 -19 -20 -20 -20 -19 -20 -20 -20 -20 -21 -21 -21 -21 -21
-14 -15 -15 -15 -16 -15 -15 -16 -15 -15 -16 -16 -16 -16 -16 -16 -16 -16 -16 -16 -16 -16 -16 -16 -15 -16 -16 -17 -17 -17 -19 -19 -20 -20 -20 -20 -20 -20 -20 -20 -20 -21 -21 -21 -20
-15 -15 -16 -16 -16 -16 -16 -16 -16 -16 -16 -16 -16 -16 -16 -16 -16 -16 -16 -16 -16 -16 -16 -16 -16 -17 -17 -17 -18 -19 -19 -20 -20 -20 -20 -20 -20 -20 -20 -20 -20 -20 -20 -20 -20

GFSSW_500_temp_093.txt.gz
Temp
-12 -12 -11 -11 -11 -11 -11 -10 -10 -10 -10 -10 -10 -10 -10 -10 -10 -10 -10 -10 -10 -10 -10 -10 -9 -9 -9 -9 -9 -8 -8 -8 -8 -8 -8 -8 -8 -8 -8 -8 -8 -8 -8 -8 -9
-12 -11 -11 -11 -11 -10 -10 -10 -10 -10 -10 -10 -10 -10 -10 -10 -10 -10 -10 -10 -10 -10 -10 -10 -10 -10 -9 -9 -9 -9 -9 -9 -9 -9 -9 -9 -8 -8 -7 -7 -8 -8 -7 -8 -8
-11 -11 -11 -11 -11 -11 -10 -10 -10 -10 -10 -10 -10 -10 -10 -10 -10 -10 -10 -10 -10 -10 -10 -10 -10 -10 -10 -10 -9 -9 -10 -9 -10 -9 -9 -9 -9 -9 -8 -7 -8 -8 -8 -7 -8
-11 -11 -11 -11 -11 -11 -11 -10 -10 -10 -10 -10 -10 -10 -10 -10 -10 -10 -10 -10 -10 -10 -10 -10 -10 -10 -10 -10 -10 -10 -10 -10 -10 -10 -9 -10 -10 -9 -9 -9 -10 -9 -9 -9 -8
-11 -11 -11 -11 -11 -11 -11 -10 -10 -10 -10 -10 -10 -10 -10 -10 -10 -9 -9 -9 -9 -9 -9 -9 -9 -10 -10 -10 -10 -9 -10 -10 -10 -10 -9 -9 -10 -10 -9 -9 -10 -10 -10 -9 -9
-11 -11 -11 -11 -11 -11 -11 -11 -11 -11 -10 -10 -10 -10 -10 -10 -10 -10 -10 -10 -10 -10 -10 -10 -10 -10 -10 -10 -9 -9 -9 -9 -10 -10 -9 -9 -9 -9 -9 -9 -10 -10 -10 -10 -10
-11 -11 -11 -11 -11 -11 -11 -11 -11 -11 -11 -11 -11 -11 -11 -11 -10 -10 -10 -10 -10 -10 -10 -10 -10 -10 -10 -10 -10 -10 -10 -10 -10 -10 -10 -10 -9 -10 -10 -9 -9 -9 -10 -10 -10
-11 -11 -11 -11 -11 -11 -11 -11 -11 -11 -11 -11 -11 -11 -11 -11 -10 -11 -11 -11 -11 -11 -11 -11 -11 -11 -11 -11 -11 -11 -10 -10 -10 -10 -10 -9 -9 -10 -10 -10 -10 -10 -10 -10 -10
-11 -11 -11 -11 -11 -11 -11 -11 -11 -11 -10 -10 -10 -11 -11 -11 -10 -10 -10 -10 -10 -11 -10 -11 -11 -11 -11 -11 -11 -11 -11 -10 -11 -11 -11 -10 -10 -11 -11 -10 -11 -11 -11 -11 -11
-11 -11 -11 -11 -11 -11 -11 -11 -11 -11 -11 -11 -10 -10 -10 -11 -11 -10 -10 -10 -10 -10 -10 -11 -11 -11 -11 -11 -11 -10 -11 -11 -11 -11 -11 -11 -11 -11 -11 -11 -11 -11 -12 -12 -12
-12 -11 -11 -11 -11 -11 -11 -11 -11 -11 -11 -11 -11 -11 -11 -11 -11 -11 -11 -11 -11 -11 -11 -11 -11 -12 -11 -11 -11 -11 -11 -11 -11 -11 -11 -11 -10 -11 -11 -11 -12 -12 -12 -12 -12
-12 -11 -12 -11 -11 -11 -11 -11 -11 -11 -11 -11 -11 -11 -11 -11 -11 -11 -11 -11 -11 -11 -11 -11 -11 -11 -11 -11 -11 -11 -11 -11 -11 -11 -11 -11 -10 -11 -11 -11 -11 -11 -12 -12 -12
-11 -11 -11 -12 -12 -11 -11 -11 -11 -11 -11 -11 -11 -11 -11 -11 -11 -11 -12 -12 -12 -11 -12 -11 -12 -11 -11 -12 -12 -12 -12 -12 -11 -12 -12 -11 -11 -12 -12 -12 -12 -12 -12 -12 -12
-11 -12 -12 -11 -11 -11 -12 -11 -11 -11 -11 -11 -12 -11 -11 -11 -12 -11 -12 -12 -12 -12 -12 -12 -12 -12 -12 -12 -12 -12 -13 -12 -12 -12 -12 -12 -12 -12 -12 -12 -13 -13 -13 -12 -12
-11 -11 -11 -11 -11 -11 -11 -11 -12 -12 -12 -12 -11 -12 -12 -13 -13 -12 -12 -12 -12 -12 -12 -13 -13 -13 -13 -13 -13 -13 -13 -13 -13 -13 -12 -12 -12 -12 -12 -13 -13 -13 -14 -14 -13
-11 -11 -11 -11 -11 -11 -11 -12 -12 -12 -13 -12 -12 -13 -13 -13 -13 -13 -13 -13 -13 -13 -13 -14 -13 -13 -14 -13 -13 -13 -14 -14 -13 -13 -12 -13 -13 -12 -13 -13 -13 -13 -13 -13 -14
-11 -11 -11 -11 -11 -11 -11 -12 -13 -13 -13 -13 -13 -13 -13 -13 -13 -14 -13 -14 -14 -14 -14 -14 -14 -14 -14 -14 -15 -14 -14 -14 -13 -13 -13 -13 -12 -12 -13 -14 -14 -14 -14 -13 -13
-12 -12 -11 -11 -11 -11 -11 -12 -13 -13 -13 -14 -14 -13 -13 -14 -14 -14 -14 -14 -14 -14 -14 -14 -14 -15 -15 -15 -15 -15 -15 -15 -14 -14 -13 -13 -11 -13 -13 -14 -14 -14 -13 -14 -15
-12 -12 -12 -12 -12 -12 -12 -12 -12 -13 -14 -14 -14 -14 -14 -14 -15 -15 -15 -15 -15 -15 -15 -14 -14 -14 -15 -15 -15 -14 -14 -15 -14 -14 -13 -12 -12 -12 -13 -14 -14 -14 -14 -14 -14
-13 -13 -13 -13 -12 -12 -12 -12 -13 -13 -14 -14 -15 -14 -15 -14 -15 -15 -16 -15 -15 -15 -15 -15 -14 -14 -14 -14 -14 -15 -15 -14 -15 -13 -13 -12 -12 -12 -13 -14 -14 -15 -15 -14 -14
-13 -13 -13 -13 -13 -13 -13 -13 -13 -13 -14 -14 -14 -15 -15 -14 -15 -16 -15 -16 -16 -16 -15 -15 -15 -15 -14 -15 -15 -15 -14 -14 -15 -14 -14 -13 -13 -13 -14 -15 -16 -15 -15 -15 -15
-13 -14 -13 -13 -14 -14 -14 -14 -14 -14 -14 -14 -15 -15 -15 -15 -15 -15 -16 -16 -16 -16 -16 -16 -16 -15 -15 -15 -15 -15 -15 -16 -16 -15 -15 -15 -13 -15 -16 -17 -16 -16 -16 -17 -17
-14 -14 -14 -14 -14 -14 -14 -14 -14 -14 -14 -15 -15 -15 -15 -16 -16 -16 -16 -16 -16 -17 -17 -17 -16 -16 -15 -15 -16 -15 -15 -16 -16 -16 -15 -15 -14 -16 -17 -17 -17 -17 -18 -18 -18
-15 -15 -15 -15 -15 -15 -15 -15 -15 -14 -15 -15 -15 -15 -15 -15 -16 -16 -16 -16 -16 -16 -17 -17 -16 -16 -16 -16 -16 -15 -15 -16 -16 -16 -16 -16 -16 -17 -18 -17 -18 -19 -19 -19 -19
-16 -16 -16 -16 -15 -15 -16 -16 -16 -15 -15 -15 -16 -16 -16 -16 -16 -16 -16 -16 -17 -17 -17 -17 -16 -16 -16 -16 -16 -15 -16 -16 -16 -16 -16 -17 -16 -18 -18 -19 -19 -19 -20 -20 -20
-16 -17 -17 -17 -17 -16 -16 -16 -16 -16 -16 -16 -16 -16 -16 -16 -16 -16 -16 -17 -17 -17 -17 -17 -17 -17 -16 -17 -16 -15 -17 -17 -17 -17 -17 -17 -17 -18 -19 -19 -19 -20 -19 -19 -19
-17 -17 -17 -17 -17 -17 -17 -17 -17 -17 -17 -17 -17 -17 -17 -17 -17 -17 -17 -17 -17 -17 -17 -17 -17 -17 -16 -17 -16 -16 -17 -17 -17 -17 -18 -18 -19 -19 -19 -19 -19 -19 -19 -19 -20

GFSSW_500_temp_096.txt.gz
Temp
-12 -11 -11 -11 -11 -11 -11 -11 -10 -10 -10 -10 -10 -10 -10 -11 -11 -10 -10 -10 -10 -10 -9 -9 -9 -9 -8 -8 -8 -8 -8 -8 -8 -8 -8 -8 -8 -8 -8 -8 -8 -8 -8 -8 -8
-11 -12 -11 -11 -11 -10 -10 -10 -10 -10 -10 -10 -10 -10 -10 -10 -10 -10 -10 -10 -10 -10 -10 -10 -9 -9 -9 -9 -9 -9 -8 -9 -8 -9 -8 -8 -7 -7 -7 -8 -7 -7 -7 -8 -7
-12 -11 -11 -11 -11 -10 -10 -10 -10 -10 -10 -10 -10 -10 -10 -10 -10 -10 -10 -10 -10 -10 -10 -10 -10 -10 -9 -9 -9 -9 -9 -9 -9 -9 -9 -8 -8 -8 -8 -8 -8 -8 -8 -8 -9
-11 -11 -11 -11 -11 -11 -10 -10 -10 -10 -10 -10 -10 -10 -10 -10 -10 -10 -10 -10 -10 -10 -10 -10 -10 -10 -10 -10 -9 -9 -9 -9 -9 -9 -9 -9 -9 -9 -8 -8 -9 -9 -9 -8 -8
-11 -11 -11 -11 -11 -11 -11 -11 -10 -10 -10 -10 -10 -10 -10 -10 -10 -10 -9 -9 -9 -9 -10 -10 -10 -10 -9 -10 -10 -10 -10 -9 -9 -9 -9 -9 -9 -9 -8 -8 -9 -9 -9 -9 -9
-11 -11 -11 -11 -11 -11 -11 -11 -11 -11 -10 -10 -10 -10 -10 -10 -10 -10 -10 -9 -9 -9 -9 -9 -9 -10 -9 -9 -9 -9 -10 -10 -10 -10 -9 -9 -9 -9 -9 -9 -9 -9 -9 -9 -9
-12 -11 -11 -11 -11 -11 -11 -11 -11 -11 -11 -11 -10 -10 -10 -10 -10 -10 -10 -10 -10 -10 -10 -10 -10 -10 -10 -10 -10 -10 -10 -10 -10 -10 -9 -9 -9 -9 -10 -9 -9 -9 -9 -9 -9
-12 -12 -11 -11 -11 -11 -11 -11 -11 -11 -10 -11 -11 -11 -10 -10 -10 -10 -10 -11 -11 -11 -11 -11 -11 -11 -10 -10 -10 -10 -10 -10 -10 -10 -10 -10 -10 -10 -10 -10 -9 -10 -10 -9 -9
-11 -12 -11 -11 -11 -11 -11 -11 -11 -11 -11 -10 -10 -10 -10 -10 -10 -10 -10 -10 -10 -11 -11 -11 -11 -11 -11 -11 -11 -11 -11 -11 -11 -11 -11 -11 -11 -11 -11 -11 -10 -10 -10 -10 -10
-12 -11 -12 -12 -12 -11 -11 -11 -11 -10 -11 -11 -11 -11 -10 -10 -10 -10 -10 -10 -10 -10 -10 -11 -11 -11 -11 -11 -11 -11 -11 -11 -11 -11 -11 -11 -11 -11 -11 -11 -11 -11 -11 -11 -11
-11 -11 -11 -11 -11 -12 -11 -11 -11 -11 -11 -11 -11 -11 -11 -11 -11 -11 -11 -11 -10 -11 -11 -11 -11 -11 -11 -10 -10 -11 -11 -11 -11 -11 -10 -11 -10 -10 -11 -11 -11 -11 -11 -11 -12
-11 -11 -11 -11 -12 -12 -12 -12 -11 -11 -11 -11 -11 -11 -11 -11 -11 -11 -11 -11 -11 -11 -11 -11 -11 -11 -11 -11 -11 -11 -11 -11 -11 -11 -10 -11 -10 -10 -11 -11 -11 -11 -11 -11 -12
-11 -11 -11 -11 -11 -11 -12 -11 -11 -12 -12 -11 -12 -12 -11 -12 -12 -11 -11 -11 -11 -11 -11 -11 -11 -11 -11 -11 -11 -11 -11 -11 -11 -11 -11 -11 -11 -11 -11 -11 -11 -11 -11 -11 -11
-11 -11 -11 -11 -11 -11 -11 -11 -11 -12 -12 -12 -12 -12 -12 -13 -13 -12 -12 -12 -12 -12 -12 -12 -12 -12 -12 -12 -12 -12 -12 -12 -12 -12 -12 -12 -11 -11 -12 -11 -12 -12 -12 -11 -11
-11 -11 -10 -11 -10 -11 -11 -11 -11 -12 -13 -12 -12 -12 -12 -12 -12 -13 -13 -13 -13 -13 -12 -12 -12 -12 -12 -13 -12 -12 -12 -12 -12 -12 -12 -12 -12 -11 -11 -12 -12 -12 -12 -11 -11
-11 -11 -11 -11 -11 -11 -11 -11 -12 -13 -13 -12 -13 -13 -13 -13 -13 -13 -13 -13 -14 -14 -13 -14 -13 -13 -14 -14 -13 -13 -13 -13 -13 -13 -12 -12 -12 -12 -12 -12 -12 -12 -12 -12 -12
-12 -12 -12 -12 -11 -11 -11 -11 -12 -13 -13 -13 -14 -14 -14 -13 -14 -14 -14 -14 -14 -13 -14 -15 -15 -15 -14 -14 -14 -14 -14 -14 -14 -15 -14 -15 -13 -12 -13 -12 -13 -13 -13 -12 -12
-13 -13 -12 -12 -12 -12 -12 -12 -12 -13 -13 -14 -14 -14 -14 -14 -14 -15 -15 -15 -14 -14 -14 -14 -14 -15 -15 -15 -15 -16 -17 -16 -16 -16 -16 -16 -14 -15 -12 -12 -13 -13 -13 -13 -13
-13 -13 -13 -13 -12 -13 -13 -13 -13 -13 -13 -13 -14 -14 -14 -14 -15 -14 -15 -15 -15 -15 -15 -15 -14 -15 -15 -15 -15 -15 -15 -15 -15 -14 -14 -14 -13 -13 -13 -12 -13 -13 -13 -13 -13
-14 -14 -14 -13 -13 -13 -13 -13 -13 -13 -13 -14 -14 -14 -14 -14 -14 -14 -14 -15 -16 -15 -15 -15 -15 -15 -15 -15 -15 -15 -15 -15 -15 -14 -14 -14 -14 -14 -13 -13 -13 -13 -13 -13 -13
-15 -15 -14 -14 -14 -14 -14 -13 -14 -14 -14 -14 -14 -14 -14 -14 -14 -14 -14 -15 -15 -16 -16 -16 -16 -15 -16 -16 -16 -16 -15 -15 -15 -15 -14 -13 -13 -14 -14 -15 -14 -14 -13 -13 -14
-15 -15 -15 -15 -15 -15 -14 -14 -14 -14 -15 -15 -15 -15 -14 -14 -14 -14 -15 -15 -15 -15 -16 -16 -16 -15 -16 -16 -16 -16 -16 -16 -16 -14 -14 -14 -12 -14 -15 -15 -15 -15 -14 -14 -15
-15 -15 -16 -16 -16 -15 -15 -15 -15 -15 -15 -15 -15 -15 -15 -15 -15 -15 -15 -16 -15 -16 -16 -16 -15 -15 -15 -16 -16 -16 -16 -16 -16 -15 -14 -15 -14 -15 -15 -15 -15 -14 -15 -15 -15
-16 -16 -16 -16 -16 -16 -16 -16 -16 -16 -16 -16 -16 -16 -16 -16 -16 -15 -16 -16 -16 -16 -16 -16 -16 -16 -17 -17 -17 -16 -16 -16 -16 -15 -15 -14 -14 -16 -16 -16 -15 -16 -16 -16 -17
-16 -16 -16 -16 -17 -17 -17 -17 -17 -17 -16 -16 -16 -16 -16 -16 -16 -16 -16 -16 -16 -16 -16 -16 -16 -16 -16 -17 -17 -17 -16 -16 -16 -15 -15 -15 -15 -16 -16 -16 -16 -16 -17 -18 -18
-16 -16 -17 -17 -17 -17 -17 -17 -17 -17 -17 -17 -17 -17 -17 -17 -17 -17 -17 -17 -17 -17 -17 -17 -16 -17 -17 -17 -17 -16 -16 -16 -16 -16 -16 -16 -15 -17 -16 -17 -17 -18 -19 -19 -18
-17 -17 -17 -17 -17 -17 -17 -17 -17 -17 -18 -17 -17 -17 -17 -17 -17 -17 -17 -17 -17 -17 -17 -18 -18 -17 -17 -17 -17 -16 -17 -17 -17 -17 -16 -17 -17 -17 -17 -18 -18 -19 -19 -19 -18

GFSSW_500_temp_102.txt.gz
Temp
-12 -12 -12 -12 -12 -12 -12 -11 -11 -11 -11 -11 -11 -10 -10 -10 -10 -9 -9 -9 -9 -9 -8 -8 -8 -8 -8 -8 -8 -8 -8 -8 -8 -8 -8 -9 -11 -11 -8 -8 -9 -7 -7 -8 -7
-12 -12 -11 -11 -11 -11 -11 -11 -11 -11 -11 -11 -11 -11 -11 -10 -10 -10 -10 -10 -9 -9 -9 -9 -9 -8 -8 -9 -8 -8 -8 -8 -8 -8 -8 -9 -10 -10 -9 -7 -7 -8 -7 -8 -9
-12 -12 -12 -11 -11 -11 -10 -10 -10 -11 -11 -11 -11 -11 -11 -11 -11 -10 -10 -10 -10 -10 -9 -9 -9 -9 -9 -9 -9 -9 -8 -8 -9 -9 -8 -8 -8 -7 -8 -7 -7 -8 -8 -8 -8
-12 -11 -11 -12 -11 -11 -11 -10 -10 -10 -10 -10 -10 -11 -11 -11 -10 -10 -10 -10 -10 -10 -10 -10 -10 -10 -10 -9 -9 -8 -8 -9 -9 -9 -8 -8 -8 -8 -8 -8 -8 -7 -7 -7 -7
-12 -12 -11 -11 -11 -11 -11 -11 -10 -10 -10 -10 -10 -10 -10 -10 -10 -11 -10 -10 -10 -10 -10 -10 -10 -10 -10 -10 -9 -9 -9 -9 -9 -9 -8 -8 -8 -8 -8 -8 -8 -8 -8 -8 -8
-12 -12 -12 -11 -11 -11 -11 -11 -11 -11 -10 -10 -10 -10 -10 -10 -10 -10 -10 -10 -10 -10 -10 -10 -10 -10 -10 -10 -9 -9 -9 -9 -8 -8 -9 -8 -9 -9 -9 -9 -8 -8 -9 -8 -8
-12 -12 -12 -12 -12 -11 -11 -11 -11 -11 -11 -11 -10 -10 -10 -10 -10 -10 -10 -10 -10 -10 -10 -10 -10 -9 -10 -10 -10 -9 -9 -9 -9 -9 -9 -9 -8 -8 -9 -9 -8 -8 -8 -8 -8
-12 -12 -12 -12 -12 -12 -11 -11 -11 -11 -11 -11 -11 -11 -10 -10 -10 -10 -10 -10 -10 -10 -10 -10 -10 -10 -10 -10 -9 -10 -10 -9 -10 -10 -10 -9 -8 -9 -10 -9 -8 -8 -9 -8 -8
-12 -12 -12 -12 -12 -12 -12 -11 -11 -11 -11 -11 -11 -11 -11 -11 -11 -11 -11 -11 -10 -10 -10 -10 -10 -10 -10 -10 -10 -10 -10 -10 -10 -11 -11 -9 -9 -10 -10 -9 -9 -9 -8 -8 -8
-12 -12 -12 -12 -12 -12 -12 -12 -12 -11 -11 -11 -11 -11 -11 -11 -11 -11 -11 -11 -11 -11 -11 -11 -11 -11 -11 -11 -10 -11 -11 -11 -11 -13 -12 -10 -10 -10 -10 -9 -9 -10 -9 -9 -9
-11 -11 -11 -12 -11 -12 -12 -12 -12 -12 -11 -12 -11 -11 -11 -11 -12 -11 -11 -11 -11 -11 -11 -12 -11 -11 -12 -12 -12 -12 -13 -13 -14 -13 -14 -13 -10 -11 -11 -11 -10 -10 -10 -10 -10
-10 -11 -11 -11 -12 -12 -12 -12 -12 -12 -12 -12 -12 -12 -11 -11 -11 -11 -11 -12 -12 -12 -12 -12 -11 -12 -12 -12 -12 -12 -12 -11 -11 -12 -12 -12 -11 -10 -11 -11 -11 -11 -11 -11 -11
-11 -11 -11 -11 -11 -12 -12 -12 -12 -12 -12 -12 -12 -12 -12 -12 -12 -11 -11 -11 -11 -12 -12 -12 -12 -13 -12 -12 -12 -12 -11 -11 -12 -12 -12 -14 -11 -11 -11 -11 -11 -10 -10 -11 -11
-11 -11 -11 -11 -11 -11 -11 -12 -12 -12 -12 -11 -12 -12 -12 -12 -12 -12 -12 -12 -12 -12 -12 -12 -12 -13 -12 -12 -12 -12 -12 -12 -12 -12 -12 -13 -12 -12 -13 -13 -12 -10 -10 -11 -11
-12 -12 -11 -12 -11 -11 -11 -11 -11 -12 -14 -13 -12 -13 -13 -13 -13 -12 -13 -12 -12 -13 -13 -12 -12 -12 -13 -12 -12 -13 -13 -13 -14 -13 -12 -12 -12 -12 -12 -12 -13 -13 -13 -11 -10
-12 -12 -12 -12 -12 -12 -12 -12 -12 -13 -14 -14 -13 -13 -13 -13 -13 -13 -13 -13 -13 -13 -13 -12 -13 -13 -13 -12 -12 -13 -13 -13 -13 -13 -12 -12 -12 -12 -12 -13 -13 -14 -13 -14 -10
-13 -13 -13 -13 -13 -12 -12 -12 -12 -14 -14 -15 -13 -13 -14 -14 -13 -14 -14 -14 -14 -13 -13 -14 -14 -14 -14 -14 -15 -15 -14 -14 -14 -14 -12 -13 -14 -13 -13 -13 -13 -13 -13 -13 -12
-13 -13 -13 -13 -13 -13 -13 -13 -13 -14 -15 -15 -14 -15 -15 -15 -16 -15 -14 -14 -13 -14 -14 -15 -15 -15 -15 -14 -15 -15 -16 -16 -15 -15 -15 -14 -14 -13 -13 -13 -13 -13 -14 -13 -13
-14 -14 -14 -13 -14 -13 -13 -13 -13 -13 -14 -14 -14 -14 -16 -16 -15 -16 -17 -16 -16 -16 -15 -15 -14 -15 -15 -16 -16 -16 -16 -16 -16 -15 -14 -13 -13 -13 -13 -13 -14 -14 -14 -14 -13
-15 -15 -14 -14 -14 -14 -14 -14 -14 -14 -14 -14 -14 -14 -16 -15 -16 -15 -15 -15 -15 -15 -16 -15 -14 -14 -15 -15 -15 -15 -15 -15 -15 -15 -15 -14 -15 -15 -14 -14 -14 -14 -14 -13 -13
-15 -15 -15 -15 -15 -15 -15 -15 -15 -15 -14 -15 -15 -14 -15 -15 -14 -14 -14 -15 -14 -15 -15 -14 -14 -14 -15 -15 -15 -15 -15 -15 -15 -15 -15 -15 -15 -14 -14 -14 -14 -14 -14 -14 -15
-15 -15 -15 -15 -15 -15 -15 -15 -15 -15 -15 -15 -15 -15 -15 -15 -16 -15 -15 -15 -14 -14 -14 -14 -14 -13 -14 -15 -15 -15 -15 -16 -16 -15 -15 -15 -13 -15 -15 -15 -15 -15 -15 -15 -15
-15 -15 -15 -15 -16 -16 -15 -16 -16 -16 -16 -16 -16 -16 -16 -16 -15 -15 -16 -15 -15 -15 -15 -15 -14 -14 -14 -15 -16 -15 -16 -16 -16 -16 -14 -15 -13 -15 -15 -15 -15 -15 -16 -15 -15
-16 -16 -16 -16 -16 -16 -16 -16 -16 -16 -16 -16 -16 -16 -16 -16 -16 -16 -16 -16 -15 -15 -16 -15 -15 -15 -15 -16 -16 -15 -16 -16 -17 -16 -16 -15 -15 -16 -16 -16 -16 -16 -16 -15 -16
-16 -16 -16 -16 -16 -16 -16 -16 -16 -16 -16 -17 -17 -17 -17 -17 -16 -16 -16 -16 -16 -16 -16 -16 -15 -16 -16 -16 -16 -16 -16 -16 -17 -17 -17 -15 -16 -16 -17 -16 -16 -16 -16 -16 -16
-18 -18 -17 -17 -17 -17 -17 -17 -17 -17 -17 -17 -17 -17 -17 -17 -17 -17 -16 -17 -16 -16 -16 -16 -16 -16 -16 -16 -16 -16 -16 -16 -16 -17 -17 -17 -16 -17 -16 -16 -16 -16 -15 -15 -16
-17 -18 -17 -18 -18 -17 -17 -17 -17 -17 -17 -17 -17 -17 -17 -17 -17 -17 -17 -17 -17 -17 -17 -16 -16 -16 -15 -17 -17 -15 -17 -17 -17 -17 -17 -17 -17 -18 -16 -16 -16 -15 -16 -17 -17

GFSSW_500_temp_105.txt.gz
Temp
-12 -12 -12 -12 -12 -12 -12 -12 -12 -11 -11 -11 -11 -11 -10 -10 -10 -9 -10 -10 -9 -9 -9 -9 -9 -9 -9 -9 -9 -9 -8 -8 -8 -8 -8 -10 -10 -9 -11 -11 -10 -9 -9 -7 -7
-12 -12 -12 -12 -12 -11 -11 -11 -11 -11 -11 -11 -11 -11 -11 -10 -10 -10 -9 -9 -9 -9 -9 -9 -9 -9 -9 -9 -9 -8 -8 -8 -8 -8 -8 -10 -10 -10 -10 -10 -8 -8 -8 -8 -8
-12 -12 -12 -11 -11 -11 -11 -11 -11 -11 -11 -11 -11 -11 -11 -11 -11 -10 -10 -10 -9 -9 -9 -9 -9 -9 -9 -9 -9 -8 -8 -8 -8 -8 -8 -9 -8 -9 -9 -8 -7 -7 -7 -8 -8
-12 -12 -12 -12 -11 -11 -11 -11 -10 -10 -11 -11 -11 -11 -11 -11 -10 -11 -10 -10 -10 -10 -10 -10 -9 -9 -9 -9 -9 -8 -8 -8 -9 -9 -8 -8 -7 -8 -8 -8 -8 -8 -7 -7 -8
-12 -12 -12 -12 -12 -11 -11 -11 -11 -10 -10 -10 -10 -10 -11 -11 -11 -11 -11 -11 -10 -10 -10 -10 -10 -10 -9 -10 -9 -8 -9 -9 -9 -9 -8 -8 -7 -8 -8 -8 -8 -8 -8 -8 -7
-12 -12 -12 -12 -12 -12 -11 -11 -11 -11 -11 -11 -10 -10 -10 -10 -10 -10 -11 -10 -10 -10 -10 -10 -10 -10 -10 -9 -9 -9 -9 -9 -9 -9 -8 -8 -7 -8 -8 -8 -8 -7 -8 -8 -8
-12 -12 -12 -12 -12 -12 -12 -11 -11 -11 -11 -11 -11 -11 -11 -10 -10 -11 -11 -10 -10 -10 -10 -10 -10 -10 -9 -9 -9 -9 -9 -8 -8 -8 -9 -9 -8 -8 -8 -8 -8 -8 -7 -8 -9
-12 -12 -12 -12 -12 -12 -12 -12 -11 -11 -11 -11 -11 -11 -11 -11 -11 -11 -11 -11 -11 -11 -11 -10 -10 -10 -10 -10 -10 -9 -9 -9 -9 -10 -10 -9 -8 -9 -9 -9 -8 -8 -8 -8 -9
-11 -11 -11 -12 -12 -12 -12 -12 -12 -12 -11 -11 -11 -11 -11 -11 -11 -11 -11 -11 -11 -11 -11 -10 -10 -11 -11 -10 -10 -10 -10 -10 -10 -10 -10 -10 -9 -9 -9 -9 -8 -9 -8 -8 -8
-10 -11 -11 -11 -11 -12 -12 -12 -12 -12 -12 -11 -11 -11 -11 -11 -11 -11 -11 -11 -11 -11 -11 -11 -11 -10 -10 -10 -10 -10 -10 -11 -11 -12 -12 -10 -9 -9 -10 -9 -9 -9 -9 -9 -9
-10 -10 -10 -11 -12 -12 -12 -12 -12 -12 -12 -12 -12 -11 -11 -11 -11 -11 -11 -11 -11 -11 -11 -11 -11 -11 -11 -11 -11 -11 -11 -11 -11 -12 -13 -13 -13 -13 -9 -11 -10 -10 -10 -10 -10
-11 -11 -11 -11 -12 -12 -12 -12 -12 -12 -12 -12 -12 -12 -12 -12 -12 -11 -11 -11 -11 -11 -12 -12 -11 -12 -12 -12 -12 -12 -12 -12 -12 -13 -13 -13 -12 -12 -9 -10 -11 -11 -10 -10 -10
-11 -11 -11 -11 -11 -12 -12 -12 -12 -12 -12 -12 -12 -12 -12 -12 -12 -12 -12 -12 -11 -11 -12 -12 -12 -13 -13 -13 -13 -12 -12 -12 -12 -12 -12 -12 -12 -12 -11 -11 -11 -11 -11 -11 -10
-12 -12 -12 -11 -11 -11 -12 -11 -12 -12 -12 -12 -12 -12 -12 -12 -12 -12 -12 -12 -12 -12 -12 -12 -12 -13 -13 -13 -13 -12 -12 -12 -12 -12 -12 -13 -12 -12 -11 -11 -11 -11 -10 -11 -11
-12 -12 -12 -12 -12 -12 -12 -11 -11 -11 -12 -12 -13 -13 -13 -12 -12 -12 -12 -12 -13 -13 -12 -12 -12 -12 -12 -12 -12 -12 -12 -12 -13 -11 -11 -11 -11 -11 -11 -11 -12 -12 -12 -12 -12
-13 -13 -13 -13 -13 -12 -12 -12 -12 -12 -13 -12 -13 -13 -13 -13 -13 -13 -13 -13 -13 -13 -13 -12 -12 -13 -13 -13 -12 -12 -12 -13 -12 -12 -11 -11 -11 -11 -12 -12 -13 -14 -14 -14 -14
-14 -14 -13 -13 -13 -13 -13 -12 -12 -13 -14 -14 -12 -14 -13 -14 -14 -14 -14 -14 -13 -13 -13 -13 -14 -14 -13 -14 -14 -15 -15 -14 -13 -13 -12 -12 -12 -13 -13 -14 -13 -13 -12 -13 -14
-14 -14 -14 -14 -14 -14 -13 -13 -13 -14 -15 -15 -13 -13 -14 -14 -14 -13 -14 -14 -14 -14 -13 -13 -14 -14 -14 -14 -14 -15 -15 -15 -14 -14 -14 -15 -13 -12 -14 -13 -13 -14 -13 -13 -13
-15 -15 -15 -15 -14 -14 -14 -14 -14 -14 -13 -14 -15 -15 -16 -15 -16 -15 -14 -14 -14 -13 -13 -14 -14 -15 -15 -15 -15 -15 -15 -16 -15 -14 -13 -12 -12 -14 -14 -13 -13 -13 -13 -13 -13
-15 -15 -15 -15 -15 -15 -15 -15 -15 -14 -15 -15 -15 -15 -15 -15 -15 -15 -14 -15 -15 -14 -14 -15 -14 -15 -15 -15 -15 -15 -15 -16 -16 -14 -14 -13 -14 -15 -15 -14 -13 -14 -14 -13 -14
-15 -15 -15 -15 -15 -15 -15 -15 -16 -15 -15 -15 -15 -15 -14 -14 -14 -15 -15 -15 -15 -15 -15 -14 -14 -14 -15 -16 -16 -16 -16 -16 -16 -15 -15 -14 -14 -14 -15 -14 -14 -14 -14 -14 -14
-16 -15 -16 -16 -16 -15 -16 -16 -16 -16 -16 -15 -15 -15 -15 -15 -15 -15 -16 -15 -14 -15 -15 -15 -15 -14 -14 -15 -15 -15 -16 -16 -16 -15 -15 -15 -13 -15 -15 -15 -14 -14 -14 -14 -15
-16 -16 -16 -16 -16 -16 -16 -16 -16 -16 -16 -16 -16 -16 -16 -15 -16 -16 -16 -15 -15 -15 -15 -15 -15 -14 -14 -15 -14 -15 -15 -15 -15 -15 -15 -16 -13 -14 -15 -15 -15 -15 -15 -15 -15
-17 -17 -17 -17 -16 -16 -16 -16 -17 -16 -16 -16 -16 -16 -16 -16 -16 -16 -16 -16 -16 -15 -15 -15 -15 -15 -15 -15 -15 -15 -16 -16 -16 -15 -15 -14 -14 -15 -15 -16 -16 -16 -16 -15 -16
-17 -17 -17 -18 -17 -17 -18 -17 -17 -16 -16 -17 -16 -16 -16 -17 -17 -16 -16 -16 -16 -16 -16 -16 -15 -15 -16 -15 -15 -15 -15 -16 -16 -16 -16 -15 -15 -16 -16 -16 -17 -16 -16 -15 -15
-18 -17 -18 -18 -18 -19 -19 -18 -17 -16 -17 -16 -17 -16 -17 -17 -17 -17 -17 -17 -17 -16 -16 -16 -16 -16 -16 -16 -16 -15 -15 -16 -16 -16 -16 -16 -15 -17 -17 -17 -17 -16 -16 -16 -15
-18 -18 -18 -19 -19 -20 -20 -19 -17 -17 -17 -17 -17 -17 -17 -17 -17 -17 -17 -17 -17 -17 -16 -16 -16 -16 -16 -16 -16 -15 -17 -16 -16 -17 -17 -17 -16 -16 -17 -17 -16 -16 -16 -15 -15

GFSSW_500_temp_111.txt.gz
Temp
-12 -13 -13 -12 -12 -12 -12 -12 -12 -13 -14 -15 -14 -14 -13 -12 -12 -11 -11 -12 -11 -11 -11 -10 -10 -10 -10 -9 -9 -9 -7 -7 -8 -9 -9 -8 -8 -8 -8 -8 -8 -7 -7 -6 -5
-12 -12 -12 -13 -12 -12 -12 -12 -12 -12 -13 -14 -14 -13 -13 -12 -12 -12 -13 -11 -10 -10 -10 -11 -10 -10 -10 -10 -10 -9 -8 -8 -9 -9 -9 -9 -8 -9 -9 -8 -8 -8 -7 -6 -6
-12 -12 -13 -12 -12 -12 -12 -12 -12 -12 -12 -12 -13 -13 -13 -13 -12 -13 -11 -11 -10 -10 -10 -10 -10 -10 -10 -10 -9 -9 -8 -9 -9 -9 -9 -9 -8 -9 -9 -9 -8 -8 -8 -7 -7
-11 -12 -12 -13 -13 -12 -12 -12 -12 -12 -11 -12 -12 -12 -13 -13 -12 -12 -12 -11 -11 -11 -10 -9 -8 -10 -9 -9 -10 -9 -8 -10 -10 -9 -8 -9 -9 -8 -9 -9 -9 -9 -8 -7 -7
-10 -11 -12 -13 -13 -13 -12 -12 -12 -11 -12 -11 -12 -12 -12 -12 -12 -12 -12 -12 -11 -11 -11 -10 -9 -10 -10 -10 -10 -9 -9 -10 -11 -9 -9 -9 -8 -8 -8 -9 -9 -8 -8 -8 -8
-11 -11 -11 -12 -13 -13 -13 -12 -12 -12 -11 -12 -11 -12 -12 -12 -12 -12 -12 -12 -12 -12 -11 -11 -11 -11 -10 -10 -9 -9 -10 -9 -9 -9 -9 -9 -9 -8 -8 -9 -9 -9 -9 -8 -8
-11 -11 -11 -12 -12 -13 -13 -13 -12 -12 -12 -11 -12 -11 -11 -12 -12 -12 -12 -12 -12 -12 -11 -11 -11 -11 -10 -10 -9 -9 -9 -9 -9 -9 -9 -9 -8 -8 -8 -8 -8 -8 -8 -8 -8
-11 -11 -11 -11 -12 -13 -13 -13 -12 -12 -12 -12 -11 -11 -11 -12 -12 -12 -12 -12 -12 -12 -12 -11 -11 -10 -10 -10 -9 -9 -9 -9 -9 -10 -9 -9 -8 -8 -9 -9 -9 -9 -10 -10 -10
-11 -11 -11 -11 -11 -12 -13 -13 -13 -12 -12 -12 -12 -11 -11 -11 -12 -12 -12 -12 -12 -12 -12 -11 -11 -10 -10 -10 -10 -10 -10 -10 -10 -11 -11 -10 -8 -9 -10 -9 -9 -8 -9 -9 -10
-12 -12 -11 -11 -11 -11 -12 -12 -13 -13 -13 -12 -12 -12 -11 -11 -11 -11 -12 -12 -12 -12 -12 -11 -11 -11 -11 -11 -11 -11 -11 -11 -11 -12 -11 -10 -9 -9 -9 -8 -8 -9 -9 -9 -9
-12 -12 -12 -12 -11 -11 -12 -12 -12 -13 -13 -13 -13 -12 -12 -12 -12 -11 -11 -11 -11 -11 -12 -12 -12 -11 -12 -12 -12 -12 -11 -11 -12 -12 -11 -10 -9 -9 -10 -9 -9 -9 -8 -8 -9
-12 -12 -12 -12 -12 -12 -12 -12 -12 -13 -13 -13 -13 -12 -12 -12 -12 -12 -11 -11 -11 -11 -11 -11 -11 -12 -12 -12 -11 -11 -11 -11 -11 -12 -11 -10 -10 -9 -9 -9 -9 -9 -9 -9 -9
-12 -12 -13 -12 -12 -12 -12 -12 -12 -13 -14 -13 -13 -13 -13 -13 -12 -12 -12 -12 -12 -12 -11 -11 -12 -11 -11 -11 -11 -11 -11 -11 -11 -12 -11 -11 -10 -10 -10 -10 -9 -9 -10 -10 -9
-13 -13 -13 -13 -13 -13 -13 -13 -13 -13 -14 -14 -13 -13 -13 -13 -13 -13 -13 -13 -13 -13 -13 -12 -12 -12 -12 -11 -11 -11 -11 -11 -11 -11 -11 -11 -10 -11 -11 -11 -10 -10 -10 -10 -11
-14 -14 -14 -13 -13 -13 -13 -13 -13 -13 -13 -14 -14 -13 -13 -13 -13 -14 -13 -13 -13 -13 -12 -13 -13 -12 -12 -12 -12 -11 -12 -11 -11 -11 -11 -11 -11 -10 -11 -11 -11 -11 -11 -10 -10
-14 -15 -14 -14 -14 -14 -13 -14 -13 -13 -13 -13 -14 -14 -14 -14 -13 -14 -14 -13 -13 -13 -13 -13 -13 -13 -13 -13 -13 -12 -12 -12 -12 -12 -11 -12 -12 -11 -11 -11 -12 -12 -11 -9 -9
-15 -15 -15 -15 -15 -14 -14 -14 -14 -13 -14 -14 -14 -14 -14 -14 -14 -14 -14 -14 -14 -14 -14 -14 -13 -13 -13 -13 -13 -13 -13 -13 -13 -12 -12 -12 -11 -11 -11 -12 -12 -12 -11 -11 -11
-16 -16 -16 -16 -15 -15 -15 -14 -14 -14 -14 -14 -15 -15 -15 -15 -15 -15 -14 -14 -14 -14 -14 -14 -14 -14 -13 -13 -14 -14 -14 -14 -13 -12 -12 -12 -12 -11 -11 -12 -12 -12 -11 -11 -11
-17 -16 -16 -16 -16 -16 -15 -15 -15 -14 -15 -15 -15 -15 -15 -15 -15 -15 -16 -15 -15 -15 -14 -14 -14 -15 -14 -15 -16 -15 -15 -15 -14 -13 -13 -13 -13 -13 -13 -13 -13 -13 -13 -13 -13
-17 -17 -17 -17 -17 -16 -16 -16 -15 -15 -15 -14 -15 -15 -14 -16 -16 -16 -15 -14 -15 -15 -15 -15 -16 -15 -15 -16 -15 -15 -15 -15 -15 -15 -15 -14 -13 -13 -14 -15 -14 -14 -15 -15 -14
-18 -18 -18 -17 -17 -17 -16 -16 -16 -16 -15 -15 -15 -15 -16 -15 -16 -16 -16 -15 -15 -15 -15 -16 -16 -16 -16 -15 -15 -15 -15 -15 -15 -15 -14 -14 -13 -13 -14 -14 -15 -15 -15 -14 -14
-19 -19 -18 -18 -17 -17 -17 -17 -17 -16 -16 -15 -15 -15 -15 -16 -16 -16 -16 -16 -16 -15 -15 -16 -15 -15 -16 -16 -15 -15 -15 -15 -15 -14 -14 -14 -13 -14 -14 -15 -15 -15 -15 -14 -15
-19 -19 -19 -18 -18 -17 -17 -17 -17 -17 -17 -16 -16 -16 -16 -16 -16 -15 -16 -16 -16 -15 -15 -16 -15 -16 -16 -16 -16 -15 -15 -15 -15 -15 -14 -14 -13 -14 -15 -15 -15 -15 -15 -15 -15
-19 -19 -19 -19 -19 -18 -18 -18 -17 -18 -18 -17 -17 -17 -16 -16 -16 -16 -16 -16 -16 -16 -16 -16 -16 -16 -16 -15 -16 -15 -15 -15 -15 -15 -15 -14 -14 -15 -15 -15 -15 -15 -15 -15 -15
-20 -19 -19 -19 -19 -19 -18 -18 -18 -18 -19 -17 -17 -18 -17 -17 -17 -17 -17 -16 -16 -16 -16 -16 -16 -16 -16 -16 -16 -15 -16 -16 -15 -15 -15 -15 -15 -15 -15 -15 -15 -15 -15 -15 -15
-21 -20 -20 -20 -20 -19 -19 -18 -19 -19 -18 -18 -18 -19 -18 -18 -17 -17 -17 -17 -17 -17 -17 -17 -17 -17 -16 -16 -16 -16 -16 -16 -16 -16 -15 -15 -14 -16 -15 -15 -15 -16 -16 -16 -16
-21 -20 -20 -20 -20 -20 -19 -19 -19 -19 -19 -17 -19 -19 -19 -18 -17 -17 -17 -17 -17 -17 -17 -17 -17 -17 -17 -17 -16 -16 -16 -16 -16 -16 -16 -16 -16 -16 -16 -15 -15 -15 -15 -16 -15

GFSSW_500_temp_114.txt.gz
Temp
-10 -11 -12 -12 -12 -12 -12 -12 -12 -13 -13 -13 -15 -17 -17 -17 -16 -15 -14 -14 -13 -13 -12 -11 -11 -9 -9 -9 -9 -8 -7 -6 -7 -8 -9 -9 -8 -8 -9 -8 -7 -7 -7 -7 -6
-10 -11 -12 -12 -12 -13 -12 -12 -12 -13 -13 -13 -14 -15 -16 -15 -15 -14 -15 -13 -13 -12 -11 -11 -10 -10 -10 -9 -9 -9 -7 -7 -8 -9 -9 -9 -8 -8 -8 -8 -7 -7 -6 -6 -6
-10 -11 -11 -12 -13 -13 -13 -13 -13 -12 -13 -13 -12 -14 -15 -14 -14 -14 -13 -12 -12 -12 -12 -11 -11 -11 -10 -9 -9 -9 -8 -9 -10 -10 -9 -8 -8 -8 -8 -9 -7 -7 -7 -7 -6
-11 -11 -11 -11 -12 -13 -13 -13 -13 -12 -12 -13 -13 -12 -13 -14 -14 -13 -13 -12 -12 -12 -11 -10 -10 -11 -10 -10 -10 -9 -9 -9 -9 -10 -9 -9 -8 -8 -9 -9 -9 -8 -7 -7 -7
-11 -11 -11 -11 -12 -13 -13 -13 -13 -13 -12 -12 -13 -12 -12 -13 -13 -13 -13 -12 -12 -12 -11 -11 -10 -10 -12 -11 -11 -10 -10 -9 -10 -9 -9 -9 -8 -9 -9 -9 -9 -9 -9 -8 -8
-11 -11 -11 -11 -12 -12 -13 -13 -13 -13 -13 -12 -13 -13 -13 -13 -13 -13 -13 -13 -13 -12 -12 -12 -12 -12 -13 -12 -12 -12 -11 -10 -9 -9 -9 -9 -9 -9 -9 -9 -9 -9 -8 -8 -8
-11 -11 -11 -11 -11 -12 -12 -13 -13 -13 -13 -12 -12 -13 -13 -12 -12 -12 -12 -13 -13 -13 -13 -13 -13 -13 -12 -11 -10 -10 -10 -11 -10 -9 -9 -9 -8 -8 -8 -9 -9 -10 -9 -8 -8
-11 -11 -12 -12 -11 -12 -12 -13 -13 -13 -13 -13 -12 -12 -12 -13 -13 -13 -12 -13 -12 -12 -12 -12 -12 -11 -11 -11 -11 -10 -10 -10 -10 -10 -9 -9 -8 -9 -10 -9 -9 -9 -8 -8 -8
-11 -11 -12 -12 -12 -12 -12 -12 -13 -13 -13 -13 -13 -12 -12 -13 -13 -13 -13 -12 -12 -12 -12 -12 -11 -11 -11 -10 -10 -10 -10 -10 -11 -10 -10 -10 -9 -9 -9 -9 -9 -8 -8 -9 -9
-10 -11 -12 -12 -12 -12 -12 -12 -13 -13 -13 -13 -13 -12 -12 -12 -12 -12 -12 -13 -12 -12 -12 -11 -11 -11 -11 -10 -10 -10 -11 -11 -11 -11 -10 -9 -9 -9 -10 -9 -8 -8 -9 -9 -9
-11 -11 -11 -12 -12 -12 -12 -12 -12 -13 -13 -14 -13 -13 -13 -13 -13 -12 -12 -12 -12 -12 -12 -12 -11 -11 -12 -12 -12 -12 -11 -11 -11 -11 -10 -9 -9 -9 -9 -9 -9 -8 -9 -9 -9
-11 -12 -12 -12 -13 -13 -13 -12 -13 -13 -14 -14 -13 -13 -13 -13 -13 -12 -12 -12 -12 -12 -12 -12 -12 -12 -13 -12 -12 -12 -11 -11 -12 -12 -10 -10 -9 -9 -9 -9 -9 -10 -10 -9 -9
-12 -12 -12 -12 -13 -13 -13 -13 -13 -13 -14 -14 -14 -14 -14 -14 -13 -12 -13 -12 -12 -12 -12 -12 -12 -12 -12 -12 -12 -12 -12 -12 -12 -12 -11 -10 -10 -10 -10 -10 -11 -11 -10 -10 -10
-13 -13 -13 -13 -14 -14 -14 -14 -13 -13 -13 -14 -14 -14 -14 -14 -14 -13 -13 -13 -13 -13 -13 -13 -13 -12 -12 -12 -12 -12 -12 -12 -12 -12 -11 -11 -10 -10 -10 -10 -10 -10 -10 -10 -10
-13 -13 -14 -14 -15 -14 -14 -14 -14 -14 -13 -14 -14 -14 -14 -14 -14 -14 -14 -13 -13 -13 -13 -13 -13 -13 -12 -12 -12 -11 -12 -11 -11 -11 -11 -11 -10 -10 -10 -10 -11 -10 -10 -10 -10
-14 -14 -14 -15 -16 -15 -15 -15 -14 -14 -14 -14 -14 -14 -14 -14 -14 -14 -14 -14 -14 -14 -13 -14 -14 -13 -13 -13 -13 -13 -13 -13 -12 -12 -11 -12 -11 -10 -10 -11 -11 -12 -11 -10 -10
-15 -16 -16 -17 -16 -16 -16 -15 -15 -14 -14 -14 -14 -14 -15 -14 -14 -14 -14 -14 -14 -14 -14 -14 -13 -13 -13 -13 -13 -13 -13 -13 -13 -12 -12 -12 -12 -11 -12 -11 -11 -12 -12 -11 -11
-17 -17 -18 -17 -17 -17 -17 -16 -15 -15 -15 -14 -15 -15 -15 -15 -14 -15 -15 -14 -14 -14 -14 -14 -14 -14 -14 -14 -14 -14 -13 -13 -14 -13 -13 -13 -11 -11 -12 -12 -12 -12 -12 -12 -11
-18 -18 -18 -18 -18 -18 -17 -16 -16 -15 -15 -15 -15 -15 -15 -15 -15 -15 -15 -15 -15 -15 -15 -15 -14 -14 -14 -15 -15 -14 -14 -14 -14 -13 -13 -13 -12 -12 -12 -13 -12 -12 -12 -12 -12
-19 -19 -19 -18 -18 -18 -17 -16 -16 -16 -16 -16 -16 -15 -16 -16 -15 -16 -15 -15 -15 -15 -15 -15 -15 -15 -15 -15 -15 -15 -15 -15 -14 -14 -13 -13 -13 -13 -13 -13 -13 -12 -12 -12 -12
-19 -19 -19 -19 -19 -18 -17 -17 -17 -16 -16 -15 -16 -16 -16 -16 -16 -16 -15 -15 -15 -15 -15 -16 -16 -16 -16 -16 -15 -15 -15 -15 -15 -14 -14 -14 -13 -13 -13 -14 -14 -14 -14 -13 -13
-20 -20 -19 -19 -19 -18 -18 -18 -17 -17 -16 -16 -15 -15 -16 -16 -16 -16 -16 -16 -16 -16 -16 -16 -16 -16 -16 -16 -16 -16 -15 -15 -15 -15 -15 -14 -13 -14 -14 -14 -14 -14 -14 -14 -14
-21 -21 -20 -19 -19 -19 -18 -18 -18 -18 -17 -16 -16 -15 -15 -16 -16 -16 -16 -16 -16 -16 -16 -16 -16 -16 -16 -16 -16 -15 -15 -15 -15 -15 -14 -14 -13 -14 -15 -15 -14 -14 -14 -14 -14
-21 -21 -20 -20 -19 -19 -18 -18 -18 -18 -17 -16 -16 -16 -16 -15 -15 -16 -16 -16 -16 -16 -16 -16 -16 -16 -16 -15 -15 -15 -15 -15 -15 -15 -15 -14 -15 -15 -15 -15 -15 -14 -14 -14 -14
-22 -21 -21 -20 -20 -19 -19 -19 -18 -18 -17 -17 -16 -17 -17 -17 -17 -17 -17 -17 -16 -16 -16 -16 -16 -16 -15 -15 -15 -15 -15 -15 -15 -15 -14 -15 -14 -15 -15 -15 -15 -15 -15 -15 -15
-23 -22 -21 -20 -20 -19 -19 -19 -19 -18 -19 -19 -18 -17 -18 -18 -19 -17 -17 -16 -16 -16 -16 -16 -16 -16 -16 -16 -16 -16 -16 -15 -15 -15 -15 -15 -15 -15 -15 -16 -16 -16 -15 -15 -15
-23 -22 -21 -21 -21 -19 -19 -19 -19 -19 -19 -19 -19 -19 -18 -19 -18 -17 -17 -17 -17 -17 -17 -17 -17 -17 -17 -17 -16 -16 -16 -16 -16 -16 -16 -16 -16 -16 -15 -16 -16 -16 -15 -15 -15

GFSSW_500_temp_117.txt.gz
Temp
-9 -10 -10 -10 -10 -11 -12 -12 -12 -12 -12 -12 -12 -13 -13 -15 -17 -18 -18 -18 -17 -16 -16 -14 -12 -11 -10 -10 -10 -9 -8 -7 -8 -9 -8 -8 -8 -8 -8 -8 -7 -8 -7 -7 -7
-10 -10 -10 -11 -11 -11 -12 -12 -12 -12 -12 -12 -13 -13 -14 -16 -17 -17 -18 -18 -17 -16 -15 -14 -13 -12 -11 -11 -9 -9 -8 -7 -8 -9 -8 -8 -8 -8 -8 -7 -7 -8 -8 -7 -7
-9 -10 -11 -11 -11 -11 -12 -13 -13 -12 -12 -12 -13 -14 -14 -15 -17 -17 -17 -17 -16 -15 -15 -14 -13 -12 -10 -10 -9 -9 -8 -9 -9 -9 -9 -8 -8 -8 -8 -7 -7 -7 -7 -7 -7
-10 -10 -11 -11 -11 -11 -12 -13 -13 -13 -13 -12 -13 -13 -14 -14 -15 -16 -16 -16 -15 -14 -14 -14 -13 -11 -9 -10 -10 -10 -9 -9 -9 -9 -9 -9 -8 -9 -8 -8 -7 -6 -6 -7 -7
-10 -10 -10 -11 -11 -11 -11 -12 -13 -13 -13 -13 -13 -13 -14 -14 -13 -15 -15 -15 -14 -13 -13 -13 -12 -12 -11 -12 -10 -9 -9 -9 -9 -9 -8 -7 -8 -8 -8 -9 -8 -7 -7 -6 -6
-10 -10 -11 -11 -11 -12 -12 -12 -13 -14 -14 -13 -13 -13 -13 -14 -13 -13 -14 -14 -14 -14 -13 -13 -12 -12 -13 -13 -11 -10 -9 -9 -9 -10 -9 -9 -9 -8 -8 -9 -8 -7 -7 -7 -8
-10 -10 -10 -11 -11 -12 -12 -12 -12 -13 -14 -13 -13 -13 -13 -13 -14 -13 -13 -14 -14 -14 -14 -14 -14 -14 -13 -13 -13 -12 -11 -10 -10 -9 -9 -10 -9 -8 -10 -9 -9 -8 -8 -8 -8
-11 -11 -10 -10 -11 -12 -12 -12 -12 -13 -14 -13 -13 -13 -13 -13 -14 -14 -14 -13 -13 -13 -13 -13 -13 -13 -13 -12 -12 -13 -12 -11 -10 -10 -10 -10 -9 -10 -10 -9 -9 -10 -9 -8 -8
-11 -11 -11 -11 -11 -12 -12 -12 -12 -12 -13 -14 -13 -13 -13 -13 -13 -14 -14 -14 -13 -13 -13 -13 -13 -12 -12 -11 -10 -10 -10 -10 -11 -12 -11 -11 -10 -11 -10 -10 -9 -9 -9 -9 -9
-12 -12 -11 -11 -11 -12 -12 -12 -12 -12 -13 -14 -14 -13 -13 -13 -13 -13 -13 -14 -13 -13 -13 -13 -12 -12 -12 -11 -10 -9 -10 -11 -12 -13 -13 -11 -11 -12 -11 -10 -9 -9 -9 -8 -8
-12 -12 -12 -12 -11 -12 -13 -13 -13 -12 -13 -14 -14 -13 -14 -13 -13 -13 -13 -13 -14 -12 -12 -12 -12 -12 -12 -12 -12 -12 -12 -12 -13 -12 -11 -10 -10 -10 -9 -9 -9 -9 -9 -9 -9
-13 -13 -13 -12 -12 -12 -13 -13 -13 -13 -13 -14 -14 -14 -14 -14 -13 -13 -13 -13 -13 -13 -13 -13 -12 -13 -13 -13 -13 -13 -12 -12 -12 -12 -11 -11 -10 -10 -10 -10 -10 -9 -10 -10 -9
-13 -13 -13 -13 -12 -13 -13 -14 -13 -13 -13 -13 -14 -14 -14 -14 -14 -13 -13 -13 -13 -13 -13 -13 -13 -13 -13 -13 -13 -13 -12 -12 -12 -12 -12 -11 -10 -11 -11 -10 -10 -10 -10 -10 -10
-14 -13 -13 -14 -14 -13 -14 -15 -14 -14 -13 -14 -14 -15 -14 -15 -14 -14 -14 -14 -14 -13 -13 -13 -13 -13 -13 -13 -13 -13 -13 -13 -12 -12 -12 -11 -11 -11 -11 -11 -11 -11 -11 -10 -10
-14 -14 -14 -14 -16 -15 -16 -16 -16 -15 -14 -14 -14 -14 -14 -15 -15 -14 -14 -14 -13 -14 -13 -13 -13 -13 -13 -13 -13 -12 -12 -12 -12 -12 -12 -11 -11 -10 -10 -10 -10 -10 -10 -10 -10
-14 -15 -15 -16 -17 -17 -18 -17 -17 -16 -15 -15 -14 -14 -15 -14 -15 -15 -15 -14 -15 -14 -14 -14 -14 -13 -13 -13 -13 -13 -13 -12 -12 -12 -11 -11 -11 -10 -10 -10 -10 -11 -11 -11 -11
-15 -16 -16 -18 -19 -18 -18 -17 -17 -16 -16 -15 -15 -15 -15 -15 -14 -15 -14 -14 -14 -13 -13 -14 -14 -14 -13 -13 -13 -13 -13 -13 -13 -12 -11 -11 -11 -11 -11 -11 -11 -11 -12 -12 -11
-17 -17 -18 -19 -19 -19 -19 -18 -17 -16 -16 -16 -15 -15 -15 -15 -15 -14 -15 -15 -14 -14 -14 -14 -14 -13 -13 -13 -14 -13 -13 -13 -13 -12 -12 -12 -11 -11 -11 -11 -12 -12 -12 -12 -11
-18 -18 -19 -20 -20 -19 -19 -19 -17 -17 -17 -16 -16 -16 -15 -16 -15 -15 -14 -14 -15 -15 -14 -14 -14 -15 -14 -14 -14 -14 -14 -14 -14 -13 -13 -12 -11 -12 -12 -12 -12 -12 -12 -12 -11
-19 -20 -20 -20 -20 -20 -19 -19 -18 -17 -17 -17 -17 -16 -16 -16 -15 -15 -15 -15 -15 -15 -15 -15 -15 -15 -15 -15 -14 -14 -15 -14 -14 -13 -13 -12 -12 -12 -13 -13 -13 -12 -12 -11 -11
-22 -21 -21 -20 -20 -20 -19 -19 -18 -17 -17 -17 -16 -16 -16 -16 -16 -16 -16 -16 -16 -15 -15 -16 -15 -15 -15 -15 -15 -15 -15 -14 -15 -14 -14 -13 -13 -13 -14 -14 -14 -13 -12 -12 -12
-22 -22 -21 -20 -20 -20 -19 -19 -18 -18 -17 -17 -16 -17 -16 -16 -16 -16 -16 -16 -16 -15 -15 -15 -16 -16 -15 -15 -15 -15 -16 -16 -16 -15 -15 -14 -14 -14 -14 -14 -14 -13 -13 -13 -13
-23 -23 -21 -21 -20 -20 -19 -19 -18 -18 -17 -17 -16 -16 -16 -16 -16 -16 -16 -16 -16 -16 -16 -16 -16 -16 -16 -16 -16 -16 -16 -15 -15 -15 -14 -14 -14 -15 -15 -15 -14 -14 -13 -13 -13
-24 -23 -22 -21 -20 -19 -19 -19 -18 -18 -18 -17 -16 -16 -16 -16 -16 -16 -16 -16 -17 -17 -16 -16 -16 -16 -16 -16 -16 -16 -16 -15 -15 -15 -15 -14 -15 -15 -15 -14 -14 -14 -14 -14 -14
-24 -23 -22 -22 -21 -18 -19 -19 -19 -19 -18 -17 -16 -17 -16 -16 -16 -17 -16 -17 -17 -16 -16 -16 -16 -16 -16 -16 -16 -16 -15 -15 -15 -15 -14 -15 -15 -15 -15 -14 -14 -14 -14 -14 -14
-24 -23 -22 -22 -22 -20 -19 -19 -19 -18 -18 -18 -16 -16 -17 -16 -16 -16 -16 -16 -17 -16 -16 -16 -16 -16 -16 -16 -16 -15 -15 -15 -15 -15 -15 -15 -15 -15 -15 -15 -15 -15 -15 -15 -14
-24 -23 -22 -22 -21 -20 -19 -19 -19 -18 -19 -19 -18 -18 -18 -17 -17 -17 -17 -18 -18 -17 -16 -16 -16 -16 -16 -16 -16 -16 -16 -15 -15 -15 -15 -15 -15 -15 -15 -15 -15 -15 -15 -15 -15

GFSSW_500_temp_123.txt.gz
Temp
-8 -8 -8 -8 -8 -8 -8 -9 -9 -8 -9 -9 -10 -10 -10 -11 -10 -11 -11 -11 -10 -10 -10 -9 -9 -9 -9 -9 -10 -10 -10 -8 -8 -9 -9 -9 -10 -9 -9 -9 -9 -7 -8 -8 -7
-8 -8 -8 -8 -8 -8 -8 -9 -9 -9 -9 -9 -10 -10 -11 -11 -11 -11 -11 -11 -11 -11 -10 -10 -9 -10 -10 -10 -11 -10 -10 -8 -9 -10 -10 -10 -10 -9 -9 -8 -8 -7 -6 -7 -7
-8 -8 -8 -9 -9 -9 -9 -9 -9 -9 -9 -10 -10 -10 -11 -11 -11 -11 -11 -11 -11 -11 -11 -11 -12 -12 -12 -12 -12 -11 -10 -11 -11 -10 -9 -10 -10 -9 -8 -9 -9 -9 -8 -8 -7
-8 -9 -9 -8 -9 -9 -9 -9 -9 -9 -10 -10 -10 -11 -11 -12 -12 -12 -12 -12 -12 -12 -13 -14 -14 -14 -13 -14 -13 -12 -11 -11 -12 -9 -8 -9 -7 -9 -8 -9 -9 -10 -8 -9 -7
-8 -8 -9 -9 -9 -9 -9 -9 -9 -9 -10 -10 -11 -11 -11 -12 -12 -12 -12 -12 -13 -13 -14 -15 -16 -15 -15 -15 -16 -14 -12 -11 -9 -10 -9 -9 -8 -8 -8 -8 -8 -8 -8 -9 -8
-9 -9 -9 -10 -10 -10 -10 -10 -9 -10 -10 -11 -11 -11 -11 -12 -12 -12 -12 -13 -13 -14 -14 -16 -17 -17 -17 -18 -17 -15 -13 -11 -11 -10 -9 -9 -9 -8 -7 -8 -7 -7 -7 -8 -8
-9 -9 -9 -9 -10 -10 -10 -10 -10 -10 -11 -11 -11 -12 -11 -13 -13 -12 -13 -13 -14 -14 -15 -17 -18 -18 -18 -18 -17 -14 -14 -13 -11 -11 -10 -9 -9 -8 -8 -8 -8 -7 -8 -8 -8
-9 -10 -10 -10 -11 -11 -11 -11 -11 -11 -11 -11 -11 -11 -12 -13 -13 -13 -13 -13 -14 -15 -15 -17 -18 -18 -17 -18 -17 -15 -13 -13 -12 -11 -11 -10 -8 -9 -8 -9 -8 -8 -9 -9 -8
-9 -10 -10 -11 -11 -11 -12 -12 -11 -11 -12 -12 -12 -12 -12 -13 -13 -14 -13 -14 -14 -15 -15 -16 -17 -17 -18 -18 -17 -15 -13 -13 -13 -12 -10 -10 -9 -10 -9 -8 -8 -7 -8 -8 -8
-10 -10 -10 -11 -12 -12 -12 -12 -12 -12 -11 -12 -13 -13 -13 -14 -14 -14 -14 -14 -14 -15 -16 -15 -16 -17 -18 -18 -16 -15 -14 -14 -14 -13 -11 -10 -10 -10 -9 -9 -8 -8 -8 -9 -8
-11 -11 -11 -12 -13 -13 -13 -12 -13 -12 -11 -14 -13 -13 -13 -14 -14 -14 -14 -14 -14 -15 -15 -15 -15 -15 -16 -16 -16 -16 -16 -15 -15 -15 -11 -11 -10 -10 -10 -10 -9 -9 -8 -9 -8
-12 -12 -13 -13 -13 -13 -13 -13 -14 -13 -12 -14 -14 -14 -13 -14 -14 -14 -14 -14 -14 -14 -15 -16 -15 -15 -16 -18 -17 -16 -15 -16 -16 -16 -14 -12 -11 -11 -9 -10 -10 -9 -9 -10 -9
-13 -13 -13 -14 -14 -14 -15 -14 -15 -15 -13 -15 -15 -15 -15 -15 -15 -15 -15 -14 -14 -15 -14 -15 -15 -16 -16 -16 -16 -16 -16 -16 -13 -16 -13 -13 -11 -11 -10 -10 -10 -10 -9 -10 -9
-13 -14 -15 -15 -17 -17 -18 -16 -17 -18 -16 -14 -15 -15 -15 -14 -15 -15 -15 -15 -15 -15 -15 -15 -15 -15 -16 -15 -15 -16 -16 -16 -15 -16 -13 -12 -13 -12 -13 -14 -12 -11 -12 -10 -10
-14 -16 -17 -19 -19 -20 -19 -18 -19 -19 -18 -18 -16 -16 -16 -15 -15 -15 -15 -15 -15 -15 -15 -14 -15 -15 -15 -15 -15 -16 -16 -16 -16 -16 -15 -15 -12 -12 -13 -13 -13 -14 -14 -13 -13
-18 -20 -21 -22 -22 -22 -21 -20 -20 -20 -18 -18 -18 -16 -16 -15 -16 -16 -15 -16 -16 -16 -15 -15 -15 -16 -14 -15 -15 -15 -16 -16 -15 -16 -15 -14 -14 -14 -13 -12 -12 -12 -13 -13 -12
-21 -22 -23 -23 -23 -23 -23 -22 -22 -21 -19 -19 -17 -16 -16 -16 -16 -15 -15 -16 -15 -17 -17 -17 -17 -17 -15 -15 -15 -15 -16 -16 -16 -15 -13 -14 -14 -14 -14 -13 -12 -13 -12 -11 -11
-22 -23 -24 -24 -24 -24 -23 -23 -22 -19 -19 -18 -17 -17 -16 -16 -16 -16 -16 -15 -16 -16 -17 -15 -17 -16 -15 -16 -16 -14 -15 -15 -14 -14 -14 -14 -14 -14 -14 -14 -12 -12 -11 -12 -12
-23 -23 -24 -24 -24 -24 -23 -22 -19 -19 -19 -18 -15 -17 -17 -16 -16 -16 -16 -15 -17 -15 -17 -17 -17 -16 -15 -15 -17 -17 -14 -14 -14 -14 -13 -13 -14 -14 -14 -13 -13 -12 -12 -12 -12
-23 -23 -24 -24 -23 -23 -23 -20 -19 -20 -18 -18 -17 -17 -17 -16 -16 -16 -16 -15 -17 -16 -17 -17 -16 -16 -16 -16 -16 -16 -16 -15 -15 -14 -13 -14 -14 -14 -14 -14 -13 -12 -13 -13 -12
-24 -24 -23 -23 -23 -23 -22 -21 -21 -21 -19 -16 -18 -17 -16 -17 -16 -16 -16 -15 -16 -17 -17 -16 -17 -16 -17 -15 -16 -16 -16 -15 -15 -15 -14 -13 -13 -14 -14 -14 -13 -13 -12 -13 -12
-24 -23 -23 -22 -22 -22 -22 -22 -21 -21 -19 -19 -17 -16 -16 -17 -17 -17 -16 -15 -15 -16 -17 -16 -16 -16 -17 -17 -17 -16 -16 -16 -16 -15 -15 -14 -14 -14 -14 -15 -14 -14 -13 -12 -12
-24 -22 -23 -23 -22 -21 -21 -21 -20 -20 -20 -18 -18 -17 -15 -14 -16 -16 -16 -15 -15 -15 -17 -17 -16 -15 -17 -16 -15 -14 -16 -16 -16 -16 -15 -15 -14 -14 -14 -15 -14 -13 -12 -12 -12
-23 -22 -23 -22 -22 -21 -20 -20 -19 -19 -20 -18 -17 -17 -16 -16 -15 -16 -16 -15 -15 -15 -16 -16 -17 -15 -15 -15 -15 -15 -17 -16 -16 -16 -16 -16 -15 -15 -14 -14 -14 -13 -12 -13 -13
-22 -22 -22 -21 -21 -20 -20 -20 -19 -19 -18 -18 -18 -17 -16 -16 -15 -15 -15 -16 -16 -15 -15 -16 -16 -15 -14 -15 -15 -15 -16 -16 -16 -14 -15 -15 -14 -14 -14 -14 -14 -13 -13 -14 -13
-22 -22 -22 -21 -20 -20 -19 -19 -18 -18 -18 -18 -18 -17 -17 -15 -15 -16 -16 -16 -15 -16 -16 -16 -16 -15 -14 -15 -15 -15 -16 -16 -16 -15 -15 -15 -15 -15 -14 -14 -14 -14 -14 -14 -14
-21 -21 -20 -20 -20 -19 -19 -19 -18 -18 -18 -18 -17 -17 -17 -16 -15 -14 -16 -16 -16 -16 -15 -16 -15 -15 -15 -16 -16 -16 -15 -15 -15 -15 -15 -15 -15 -14 -14 -15 -14 -14 -14 -14 -14

GFSSW_500_temp_129.txt.gz
Temp
-7 -7 -7 -7 -7 -7 -8 -7 -7 -7 -7 -7 -8 -7 -7 -7 -7 -7 -9 -9 -9 -9 -9 -9 -9 -9 -9 -9 -9 -8 -7 -6 -6 -6 -6 -7 -8 -9 -8 -8 -8 -8 -7 -8 -9
-7 -7 -7 -7 -7 -7 -7 -8 -7 -7 -7 -7 -7 -7 -7 -7 -7 -8 -9 -8 -8 -9 -9 -9 -10 -10 -9 -9 -9 -9 -8 -6 -7 -7 -7 -9 -8 -8 -8 -7 -8 -7 -9 -9 -9
-7 -7 -8 -7 -7 -7 -8 -8 -8 -8 -8 -7 -7 -7 -7 -7 -7 -9 -8 -8 -9 -9 -10 -10 -10 -10 -10 -10 -9 -9 -7 -8 -8 -8 -8 -8 -8 -9 -8 -8 -8 -8 -6 -8 -8
-7 -7 -8 -8 -8 -8 -7 -7 -8 -8 -8 -8 -8 -7 -7 -7 -7 -8 -9 -9 -10 -10 -9 -10 -10 -10 -10 -10 -10 -9 -9 -8 -8 -9 -10 -8 -8 -8 -9 -8 -8 -7 -8 -7 -8
-8 -8 -8 -8 -8 -8 -8 -8 -7 -8 -8 -8 -8 -8 -8 -7 -8 -9 -9 -9 -9 -9 -10 -11 -11 -11 -10 -10 -11 -10 -9 -9 -9 -10 -10 -9 -8 -8 -8 -9 -8 -8 -10 -7 -6
-8 -8 -8 -8 -8 -8 -8 -8 -9 -9 -9 -9 -9 -9 -8 -8 -11 -9 -9 -9 -9 -9 -10 -11 -11 -11 -11 -11 -11 -10 -10 -10 -10 -10 -11 -8 -8 -7 -8 -8 -7 -9 -9 -9 -6
-8 -8 -8 -8 -9 -9 -9 -9 -9 -10 -10 -10 -9 -9 -8 -8 -11 -10 -9 -9 -10 -10 -11 -12 -12 -12 -12 -11 -11 -11 -11 -10 -10 -10 -12 -9 -9 -7 -7 -8 -7 -7 -8 -8 -8
-8 -9 -9 -9 -10 -10 -10 -10 -11 -11 -11 -11 -10 -10 -8 -11 -11 -10 -10 -9 -10 -12 -12 -12 -13 -12 -12 -12 -12 -11 -11 -10 -9 -11 -11 -10 -8 -7 -7 -9 -9 -8 -7 -7 -6
-9 -9 -10 -10 -11 -11 -11 -12 -13 -13 -12 -12 -11 -11 -10 -12 -12 -12 -11 -11 -12 -12 -13 -13 -13 -12 -12 -12 -12 -11 -10 -10 -10 -12 -13 -12 -9 -9 -8 -9 -9 -9 -8 -7 -7
-10 -10 -11 -12 -13 -13 -13 -13 -14 -14 -14 -13 -12 -12 -12 -13 -13 -13 -12 -13 -12 -13 -13 -13 -13 -13 -12 -12 -11 -11 -11 -11 -11 -13 -13 -12 -9 -11 -11 -10 -10 -10 -9 -9 -8
-11 -11 -12 -13 -14 -15 -15 -15 -17 -16 -15 -14 -13 -13 -13 -14 -13 -14 -13 -14 -13 -13 -13 -13 -13 -11 -12 -12 -12 -13 -14 -13 -14 -15 -15 -14 -14 -12 -13 -12 -12 -10 -10 -10 -10
-11 -12 -13 -15 -16 -18 -19 -20 -20 -20 -18 -17 -16 -14 -15 -16 -14 -15 -15 -14 -14 -13 -14 -13 -12 -13 -13 -14 -14 -14 -14 -16 -17 -17 -17 -16 -15 -14 -13 -13 -12 -11 -11 -10 -11
-12 -14 -16 -19 -20 -21 -22 -22 -22 -22 -22 -19 -18 -17 -16 -18 -15 -16 -15 -14 -14 -14 -13 -13 -13 -14 -14 -14 -14 -14 -14 -16 -17 -17 -17 -16 -14 -14 -13 -12 -12 -12 -11 -11 -10
-15 -18 -21 -21 -22 -23 -23 -23 -23 -23 -23 -21 -20 -17 -18 -17 -15 -17 -16 -16 -15 -14 -15 -15 -15 -14 -14 -14 -15 -15 -15 -17 -17 -17 -15 -15 -14 -14 -13 -13 -11 -12 -12 -11 -10
-18 -21 -21 -23 -23 -23 -24 -24 -24 -24 -22 -21 -20 -19 -18 -17 -16 -16 -16 -16 -15 -15 -15 -14 -15 -15 -14 -14 -15 -15 -17 -18 -16 -15 -14 -15 -15 -14 -15 -14 -12 -11 -11 -11 -10
-21 -21 -22 -23 -24 -24 -24 -24 -24 -24 -21 -22 -20 -18 -18 -16 -16 -17 -17 -16 -16 -16 -16 -15 -15 -15 -15 -15 -15 -16 -17 -17 -17 -16 -16 -15 -14 -14 -13 -13 -13 -11 -11 -10 -10
-21 -22 -23 -23 -23 -24 -24 -24 -24 -23 -23 -21 -19 -18 -18 -19 -18 -18 -17 -17 -16 -16 -15 -15 -15 -15 -15 -15 -16 -16 -17 -17 -17 -16 -15 -15 -15 -14 -14 -15 -13 -13 -12 -11 -10
-21 -22 -22 -23 -23 -23 -23 -24 -24 -24 -24 -24 -19 -18 -18 -19 -18 -17 -17 -16 -16 -15 -15 -15 -16 -15 -15 -16 -15 -16 -17 -17 -16 -15 -14 -15 -13 -13 -14 -14 -15 -14 -12 -12 -10
-22 -22 -22 -22 -22 -22 -22 -23 -24 -23 -23 -22 -20 -18 -18 -18 -18 -18 -16 -16 -16 -16 -15 -15 -15 -15 -16 -16 -16 -15 -16 -17 -15 -16 -16 -15 -15 -14 -14 -13 -14 -14 -12 -10 -10
-22 -22 -22 -22 -22 -21 -22 -22 -22 -22 -22 -21 -18 -17 -17 -18 -19 -18 -17 -16 -16 -16 -17 -17 -16 -16 -16 -17 -17 -15 -15 -17 -16 -15 -15 -15 -15 -13 -14 -14 -14 -12 -12 -12 -12
-21 -21 -21 -21 -21 -21 -22 -21 -21 -21 -19 -19 -18 -17 -16 -17 -17 -18 -17 -16 -17 -17 -18 -17 -17 -16 -17 -17 -16 -15 -16 -16 -17 -16 -15 -15 -14 -14 -14 -14 -13 -13 -13 -13 -13
-21 -21 -22 -21 -21 -21 -21 -21 -20 -20 -18 -18 -18 -17 -17 -17 -16 -17 -17 -16 -17 -18 -18 -17 -17 -17 -17 -17 -16 -15 -16 -16 -15 -15 -15 -14 -14 -15 -14 -14 -14 -14 -14 -14 -14
-21 -21 -21 -21 -21 -20 -19 -20 -20 -20 -19 -18 -18 -17 -17 -16 -16 -17 -16 -17 -16 -18 -18 -17 -16 -16 -17 -17 -16 -16 -16 -16 -16 -16 -15 -14 -13 -14 -13 -14 -14 -14 -15 -15 -14
-21 -21 -21 -20 -20 -20 -19 -18 -19 -18 -18 -18 -18 -17 -17 -17 -16 -16 -17 -17 -17 -17 -17 -17 -15 -15 -16 -15 -16 -16 -16 -16 -15 -16 -15 -14 -13 -13 -13 -14 -13 -14 -14 -15 -14
-20 -20 -20 -20 -19 -19 -18 -19 -19 -19 -18 -18 -18 -17 -17 -17 -17 -17 -17 -17 -18 -17 -17 -16 -15 -16 -16 -16 -16 -15 -15 -16 -16 -16 -15 -14 -14 -14 -14 -13 -14 -13 -14 -14 -14
-20 -21 -20 -20 -19 -18 -18 -18 -18 -18 -18 -18 -17 -17 -16 -16 -16 -16 -16 -16 -16 -17 -16 -16 -16 -16 -16 -16 -16 -16 -15 -15 -15 -15 -14 -14 -14 -14 -14 -14 -14 -14 -13 -14 -13
-20 -20 -20 -20 -19 -18 -18 -18 -18 -18 -18 -18 -17 -16 -15 -16 -16 -16 -16 -16 -15 -15 -16 -16 -16 -16 -15 -15 -16 -16 -15 -15 -15 -14 -14 -14 -14 -14 -14 -14 -14 -14 -14 -14 -14

GFSSW_500_temp_132.txt.gz
Temp
-7 -7 -7 -7 -7 -7 -7 -7 -7 -7 -7 -7 -7 -7 -7 -7 -7 -7 -8 -9 -8 -8 -8 -8 -9 -9 -9 -8 -8 -8 -7 -6 -6 -6 -6 -8 -8 -8 -8 -9 -8 -7 -6 -6 -7
-7 -7 -7 -7 -7 -7 -7 -7 -7 -7 -7 -7 -7 -7 -7 -7 -7 -7 -8 -8 -8 -8 -9 -9 -9 -9 -9 -9 -8 -8 -7 -6 -6 -7 -7 -8 -9 -7 -8 -8 -8 -7 -7 -6 -7
-7 -7 -7 -7 -7 -7 -7 -8 -8 -7 -7 -7 -7 -7 -7 -7 -7 -9 -8 -8 -8 -8 -9 -9 -9 -9 -9 -9 -8 -8 -7 -7 -7 -8 -8 -8 -8 -8 -9 -8 -8 -7 -7 -7 -6
-8 -7 -7 -8 -8 -8 -8 -8 -8 -8 -8 -7 -7 -7 -7 -7 -7 -8 -9 -8 -8 -8 -9 -9 -9 -9 -9 -9 -9 -9 -8 -8 -8 -9 -9 -8 -8 -8 -9 -9 -8 -8 -7 -7 -7
-8 -8 -8 -8 -8 -8 -8 -8 -8 -8 -8 -8 -8 -8 -7 -7 -8 -9 -9 -9 -8 -9 -9 -10 -9 -10 -10 -10 -10 -9 -9 -9 -9 -9 -9 -8 -8 -7 -9 -8 -8 -8 -7 -8 -7
-8 -8 -8 -8 -8 -8 -9 -9 -9 -9 -9 -9 -8 -8 -8 -7 -11 -9 -9 -9 -9 -9 -10 -9 -10 -11 -11 -11 -11 -10 -11 -10 -10 -9 -9 -9 -8 -8 -8 -8 -8 -8 -7 -6 -8
-8 -8 -9 -9 -9 -10 -10 -10 -10 -10 -10 -10 -9 -9 -8 -7 -11 -10 -9 -9 -9 -10 -10 -11 -11 -11 -11 -11 -11 -11 -11 -10 -9 -9 -10 -9 -8 -7 -8 -8 -8 -8 -8 -8 -7
-8 -9 -9 -9 -10 -10 -10 -11 -11 -11 -11 -11 -11 -9 -8 -9 -11 -11 -11 -9 -10 -10 -12 -12 -12 -11 -11 -11 -11 -11 -10 -10 -10 -10 -9 -10 -7 -8 -7 -8 -8 -8 -9 -9 -9
-9 -9 -10 -10 -11 -11 -12 -13 -13 -14 -13 -13 -13 -12 -10 -11 -11 -14 -11 -10 -11 -12 -12 -12 -12 -11 -12 -11 -11 -10 -9 -9 -10 -10 -10 -10 -8 -8 -8 -7 -8 -8 -9 -9 -10
-9 -10 -11 -12 -13 -14 -14 -15 -16 -16 -15 -14 -14 -14 -13 -14 -13 -14 -12 -12 -12 -14 -13 -12 -12 -11 -11 -11 -10 -10 -10 -11 -10 -11 -11 -10 -9 -8 -9 -8 -8 -8 -8 -9 -9
-10 -11 -13 -14 -16 -18 -19 -20 -20 -20 -19 -19 -17 -16 -15 -15 -14 -15 -14 -14 -14 -13 -12 -12 -12 -10 -11 -12 -12 -12 -12 -12 -12 -11 -12 -11 -10 -9 -9 -10 -8 -8 -9 -9 -10
-12 -14 -15 -18 -20 -21 -22 -22 -22 -22 -21 -21 -21 -20 -18 -19 -16 -17 -16 -15 -14 -13 -13 -13 -10 -12 -13 -13 -13 -13 -12 -12 -12 -12 -11 -11 -10 -10 -9 -10 -9 -8 -8 -9 -10
-14 -16 -19 -21 -22 -23 -23 -23 -23 -23 -23 -22 -23 -21 -21 -21 -18 -18 -17 -16 -15 -14 -13 -12 -12 -14 -13 -13 -13 -13 -12 -13 -13 -13 -12 -12 -11 -11 -10 -9 -10 -8 -8 -8 -9
-17 -19 -20 -22 -23 -24 -24 -24 -24 -24 -23 -24 -23 -22 -22 -21 -18 -18 -17 -17 -17 -15 -14 -14 -14 -14 -14 -13 -13 -12 -13 -14 -14 -14 -14 -14 -11 -11 -11 -10 -12 -11 -8 -8 -9
-19 -20 -21 -21 -22 -22 -24 -24 -25 -24 -23 -23 -22 -21 -21 -20 -19 -17 -17 -18 -16 -15 -14 -13 -14 -14 -14 -13 -13 -13 -15 -15 -16 -16 -17 -15 -13 -11 -15 -14 -9 -9 -9 -10 -11
-20 -21 -21 -22 -22 -23 -24 -24 -25 -24 -24 -24 -23 -21 -21 -20 -19 -20 -18 -18 -17 -16 -16 -15 -15 -15 -14 -14 -14 -15 -15 -16 -17 -18 -15 -15 -15 -13 -14 -13 -13 -12 -12 -12 -12
-21 -21 -21 -21 -22 -22 -23 -24 -24 -25 -24 -23 -22 -21 -20 -20 -20 -19 -18 -18 -18 -18 -17 -16 -16 -15 -15 -15 -15 -15 -16 -16 -17 -15 -13 -16 -15 -13 -13 -13 -14 -13 -13 -14 -12
-21 -21 -21 -22 -22 -22 -22 -23 -23 -23 -23 -22 -21 -20 -20 -20 -19 -18 -18 -18 -18 -17 -16 -16 -15 -14 -14 -14 -15 -15 -15 -14 -15 -14 -15 -16 -13 -13 -14 -14 -14 -14 -14 -14 -13
-21 -21 -21 -22 -22 -21 -22 -22 -22 -21 -21 -20 -20 -19 -19 -20 -17 -18 -17 -18 -18 -17 -16 -15 -15 -15 -15 -15 -15 -15 -15 -16 -16 -16 -16 -15 -14 -14 -14 -13 -12 -13 -14 -13 -12
-21 -21 -21 -22 -21 -21 -20 -20 -20 -20 -20 -19 -19 -19 -19 -19 -18 -17 -18 -18 -18 -17 -17 -16 -16 -15 -15 -16 -15 -16 -15 -16 -17 -17 -14 -15 -15 -15 -15 -14 -14 -12 -13 -13 -13
-21 -21 -21 -21 -21 -20 -20 -20 -20 -20 -19 -19 -18 -19 -18 -19 -17 -16 -17 -18 -17 -17 -16 -17 -16 -16 -16 -15 -14 -15 -16 -16 -16 -16 -15 -14 -15 -15 -14 -13 -14 -14 -13 -14 -14
-21 -21 -21 -20 -21 -20 -20 -20 -20 -19 -18 -18 -18 -18 -17 -18 -17 -16 -16 -18 -17 -18 -16 -17 -16 -17 -16 -15 -15 -16 -17 -17 -17 -16 -16 -15 -15 -15 -15 -14 -14 -14 -13 -14 -13
-21 -21 -20 -20 -20 -19 -19 -20 -20 -19 -18 -18 -17 -17 -17 -17 -17 -17 -18 -18 -17 -17 -17 -17 -17 -18 -17 -17 -16 -17 -17 -17 -17 -16 -16 -15 -14 -14 -14 -15 -14 -14 -14 -14 -14
-20 -20 -20 -20 -20 -19 -19 -19 -19 -18 -18 -18 -17 -17 -17 -17 -17 -17 -17 -17 -17 -17 -18 -17 -17 -17 -17 -16 -16 -16 -17 -17 -17 -16 -15 -16 -15 -14 -14 -14 -14 -14 -14 -14 -13
-20 -20 -20 -19 -19 -19 -19 -19 -19 -19 -18 -18 -17 -17 -16 -17 -17 -17 -17 -17 -16 -18 -18 -18 -17 -17 -17 -16 -17 -17 -17 -16 -17 -16 -15 -15 -15 -14 -14 -14 -14 -14 -13 -13 -13
-20 -20 -20 -19 -19 -18 -18 -18 -18 -18 -18 -18 -17 -17 -16 -16 -16 -17 -17 -16 -16 -17 -17 -17 -17 -16 -16 -16 -16 -17 -17 -16 -16 -16 -16 -15 -15 -13 -13 -14 -14 -14 -14 -14 -14
-20 -20 -20 -19 -19 -18 -18 -18 -18 -18 -18 -18 -16 -16 -15 -16 -16 -17 -17 -16 -17 -17 -17 -17 -16 -17 -16 -16 -16 -17 -17 -16 -16 -16 -16 -15 -15 -14 -13 -13 -14 -14 -14 -14 -14

GFSSW_500_temp_135.txt.gz
Temp
-8 -8 -7 -7 -7 -7 -7 -7 -7 -7 -7 -8 -7 -7 -7 -7 -7 -7 -9 -8 -7 -8 -8 -8 -9 -9 -9 -8 -8 -8 -7 -6 -6 -7 -7 -9 -8 -8 -8 -8 -8 -8 -8 -8 -7
-8 -8 -8 -8 -7 -7 -7 -7 -7 -7 -7 -8 -7 -7 -7 -7 -7 -8 -9 -7 -7 -7 -8 -8 -9 -9 -9 -9 -8 -8 -7 -6 -7 -7 -7 -8 -9 -8 -8 -8 -8 -8 -8 -8 -7
-8 -8 -8 -7 -7 -7 -7 -8 -8 -8 -8 -8 -8 -8 -7 -7 -7 -9 -8 -8 -8 -8 -8 -8 -9 -9 -9 -9 -8 -8 -7 -7 -7 -8 -8 -8 -8 -9 -9 -8 -8 -8 -8 -8 -8
-8 -8 -8 -8 -8 -8 -8 -8 -8 -8 -8 -8 -8 -8 -8 -7 -8 -9 -8 -8 -8 -8 -8 -9 -9 -9 -9 -9 -9 -8 -8 -8 -8 -8 -8 -8 -8 -8 -9 -9 -9 -8 -8 -7 -8
-8 -8 -8 -8 -8 -8 -8 -8 -8 -9 -9 -8 -8 -8 -8 -8 -9 -9 -9 -9 -8 -8 -8 -9 -9 -9 -10 -9 -10 -9 -9 -9 -8 -9 -9 -8 -8 -8 -8 -9 -9 -9 -9 -7 -7
-8 -8 -8 -8 -9 -9 -9 -9 -9 -10 -10 -9 -9 -8 -8 -7 -11 -10 -9 -9 -9 -9 -9 -9 -9 -10 -10 -10 -10 -10 -10 -10 -10 -10 -10 -9 -8 -8 -8 -8 -8 -9 -9 -8 -7
-8 -9 -9 -9 -9 -9 -10 -10 -10 -11 -11 -10 -10 -10 -8 -8 -11 -11 -10 -10 -10 -10 -9 -10 -10 -10 -10 -10 -10 -10 -10 -10 -9 -9 -10 -10 -9 -7 -9 -8 -9 -9 -9 -8 -8
-9 -9 -9 -10 -10 -11 -12 -12 -13 -13 -13 -12 -12 -11 -9 -10 -11 -11 -12 -11 -11 -11 -12 -11 -11 -10 -9 -10 -10 -10 -10 -9 -9 -9 -9 -10 -7 -8 -9 -8 -8 -9 -9 -9 -8
-9 -9 -10 -11 -13 -14 -14 -15 -16 -15 -15 -15 -14 -14 -12 -12 -11 -14 -13 -11 -12 -12 -13 -12 -11 -10 -10 -10 -10 -10 -9 -9 -10 -10 -10 -9 -8 -9 -9 -9 -9 -9 -9 -9 -9
-10 -11 -12 -13 -15 -16 -18 -19 -20 -20 -20 -20 -19 -17 -15 -15 -14 -15 -14 -14 -12 -13 -14 -11 -11 -10 -9 -9 -8 -9 -9 -9 -10 -11 -10 -9 -8 -9 -9 -9 -9 -9 -10 -9 -9
-11 -13 -14 -16 -18 -20 -20 -21 -22 -22 -22 -22 -21 -21 -20 -19 -18 -17 -15 -15 -14 -14 -13 -11 -11 -9 -9 -9 -9 -10 -10 -11 -11 -12 -12 -11 -10 -10 -10 -9 -9 -9 -10 -11 -10
-13 -15 -17 -19 -21 -21 -21 -22 -23 -24 -23 -24 -23 -23 -23 -22 -19 -19 -18 -16 -15 -14 -14 -13 -10 -11 -12 -12 -12 -11 -11 -11 -12 -12 -12 -12 -11 -11 -10 -10 -9 -9 -9 -10 -11
-15 -18 -20 -21 -21 -22 -22 -23 -24 -24 -24 -24 -24 -24 -23 -23 -21 -19 -18 -17 -16 -15 -14 -13 -11 -12 -13 -12 -12 -11 -11 -12 -12 -13 -12 -12 -11 -11 -10 -10 -10 -9 -9 -9 -10
-17 -20 -21 -21 -22 -22 -22 -23 -24 -25 -24 -24 -24 -23 -23 -23 -21 -22 -19 -18 -17 -16 -15 -14 -14 -14 -13 -13 -13 -13 -12 -13 -13 -13 -12 -12 -11 -11 -11 -10 -10 -9 -9 -9 -9
-20 -21 -21 -21 -21 -22 -22 -24 -24 -24 -24 -24 -23 -23 -22 -22 -22 -23 -20 -19 -17 -16 -16 -14 -14 -14 -13 -13 -13 -13 -13 -14 -14 -13 -13 -12 -11 -11 -11 -10 -10 -10 -9 -9 -8
-20 -21 -21 -21 -22 -22 -23 -23 -24 -23 -23 -22 -22 -21 -21 -21 -22 -23 -21 -19 -17 -17 -17 -16 -15 -15 -14 -14 -14 -14 -15 -15 -15 -14 -13 -12 -12 -10 -11 -11 -10 -10 -9 -9 -9
-21 -20 -21 -21 -22 -22 -22 -23 -22 -22 -22 -21 -21 -21 -21 -21 -22 -21 -19 -19 -18 -18 -18 -18 -16 -16 -16 -16 -15 -16 -15 -14 -14 -13 -12 -12 -12 -12 -13 -13 -13 -12 -10 -10 -10
-21 -20 -21 -21 -21 -22 -22 -21 -21 -21 -21 -21 -21 -20 -20 -21 -21 -21 -20 -19 -18 -17 -17 -17 -17 -16 -15 -14 -13 -14 -14 -13 -13 -13 -12 -14 -13 -14 -14 -14 -14 -13 -12 -13 -14
-20 -20 -21 -21 -21 -21 -21 -20 -20 -19 -20 -20 -20 -21 -21 -21 -20 -21 -20 -18 -17 -17 -17 -17 -16 -16 -15 -15 -15 -15 -14 -14 -14 -14 -14 -14 -14 -14 -15 -15 -14 -13 -13 -15 -14
-20 -20 -20 -21 -21 -21 -20 -19 -20 -19 -18 -19 -20 -21 -21 -20 -20 -19 -19 -18 -18 -18 -17 -17 -17 -16 -15 -16 -15 -15 -15 -15 -14 -14 -14 -14 -14 -15 -15 -15 -15 -15 -15 -15 -14
-20 -20 -20 -20 -20 -19 -19 -19 -19 -19 -18 -18 -19 -19 -20 -19 -19 -19 -18 -18 -18 -18 -17 -17 -17 -16 -16 -15 -15 -15 -15 -15 -15 -14 -14 -14 -14 -14 -15 -15 -14 -15 -14 -14 -14
-20 -20 -20 -20 -19 -18 -19 -19 -18 -18 -18 -18 -18 -17 -19 -19 -19 -19 -18 -18 -18 -19 -17 -16 -16 -17 -15 -15 -15 -15 -14 -15 -15 -14 -14 -14 -14 -15 -14 -15 -15 -14 -14 -14 -14
-20 -20 -19 -19 -19 -18 -18 -19 -19 -18 -18 -18 -18 -18 -17 -19 -18 -18 -19 -19 -18 -18 -17 -16 -17 -17 -17 -17 -16 -15 -15 -16 -17 -15 -14 -15 -14 -15 -15 -15 -15 -13 -14 -14 -14
-20 -20 -20 -19 -19 -18 -18 -19 -18 -18 -18 -18 -18 -18 -17 -18 -18 -18 -18 -18 -17 -18 -17 -17 -17 -17 -16 -15 -16 -15 -15 -17 -17 -16 -15 -15 -15 -16 -15 -15 -14 -13 -14 -14 -14
-20 -19 -19 -19 -19 -18 -17 -18 -18 -18 -18 -17 -17 -17 -17 -17 -18 -18 -18 -18 -18 -18 -18 -18 -17 -17 -17 -16 -16 -16 -17 -17 -18 -17 -16 -16 -16 -15 -15 -14 -14 -14 -14 -14 -15
-20 -20 -19 -19 -19 -18 -17 -17 -18 -18 -18 -18 -18 -17 -17 -17 -17 -17 -17 -17 -17 -17 -17 -18 -17 -17 -17 -17 -17 -17 -17 -17 -17 -17 -16 -15 -15 -15 -14 -14 -13 -13 -13 -14 -15
-20 -20 -19 -19 -19 -19 -18 -17 -17 -18 -18 -17 -17 -17 -17 -17 -17 -18 -17 -17 -17 -17 -17 -18 -18 -17 -17 -17 -17 -17 -17 -17 -17 -17 -16 -15 -16 -15 -14 -13 -14 -13 -13 -13 -14

GFSSW_500_temp_138.txt.gz
Temp
-8 -8 -8 -8 -8 -8 -8 -8 -8 -7 -7 -7 -7 -7 -7 -7 -7 -7 -8 -8 -7 -7 -7 -8 -9 -9 -9 -9 -8 -8 -8 -7 -7 -7 -7 -9 -8 -8 -8 -8 -9 -8 -8 -7 -7
-8 -8 -8 -8 -8 -8 -8 -8 -8 -8 -8 -7 -7 -7 -7 -7 -8 -8 -8 -8 -8 -8 -8 -8 -9 -9 -9 -9 -8 -8 -7 -7 -7 -8 -8 -8 -9 -9 -8 -8 -8 -8 -8 -8 -7
-8 -8 -8 -8 -8 -8 -8 -8 -8 -8 -8 -8 -8 -8 -7 -7 -8 -8 -8 -8 -9 -8 -9 -9 -9 -9 -9 -9 -8 -8 -8 -8 -8 -8 -8 -8 -8 -9 -9 -8 -8 -8 -8 -8 -8
-8 -8 -8 -8 -8 -8 -8 -8 -8 -8 -8 -8 -9 -9 -8 -8 -8 -9 -9 -8 -9 -9 -9 -9 -9 -9 -9 -9 -9 -8 -8 -8 -8 -8 -8 -9 -9 -9 -9 -9 -9 -9 -8 -8 -8
-8 -8 -8 -8 -8 -9 -9 -9 -9 -9 -9 -8 -9 -8 -8 -8 -8 -9 -9 -9 -9 -9 -9 -10 -9 -9 -9 -9 -10 -9 -9 -9 -9 -9 -9 -9 -9 -9 -9 -9 -9 -9 -9 -9 -8
-9 -9 -9 -9 -10 -9 -9 -10 -10 -10 -10 -10 -10 -9 -9 -8 -10 -10 -10 -9 -10 -9 -9 -10 -10 -10 -10 -10 -10 -9 -9 -9 -10 -10 -10 -9 -9 -9 -8 -9 -8 -9 -9 -9 -9
-10 -10 -10 -10 -10 -11 -11 -11 -12 -12 -12 -12 -12 -11 -10 -9 -12 -12 -10 -10 -10 -10 -10 -10 -10 -10 -9 -10 -10 -9 -9 -10 -10 -10 -9 -9 -9 -8 -8 -8 -8 -8 -9 -9 -9
-10 -10 -10 -10 -12 -13 -14 -14 -15 -16 -15 -15 -15 -14 -12 -12 -12 -12 -13 -11 -11 -11 -11 -11 -11 -11 -10 -10 -10 -9 -10 -9 -9 -9 -9 -9 -8 -9 -9 -8 -9 -8 -8 -9 -9
-9 -9 -10 -12 -14 -16 -17 -19 -20 -20 -20 -20 -20 -19 -16 -15 -14 -14 -14 -12 -13 -13 -12 -12 -10 -10 -10 -10 -10 -9 -9 -9 -9 -10 -10 -9 -8 -9 -9 -8 -8 -8 -9 -9 -9
-9 -11 -13 -15 -17 -19 -21 -21 -21 -21 -21 -22 -22 -22 -21 -19 -17 -16 -15 -14 -14 -14 -13 -12 -11 -10 -10 -9 -8 -8 -8 -8 -9 -10 -10 -10 -9 -10 -10 -9 -9 -9 -9 -9 -9
-11 -14 -16 -19 -20 -21 -21 -21 -21 -21 -22 -23 -23 -23 -23 -22 -22 -20 -18 -16 -16 -15 -14 -12 -11 -9 -9 -10 -10 -9 -9 -10 -10 -11 -11 -10 -10 -10 -11 -10 -9 -9 -9 -9 -9
-14 -16 -19 -21 -21 -21 -21 -22 -22 -23 -23 -25 -25 -24 -24 -23 -23 -22 -20 -19 -17 -16 -15 -14 -11 -11 -11 -12 -12 -11 -11 -11 -11 -11 -11 -11 -11 -11 -11 -11 -11 -10 -9 -9 -9
-16 -18 -20 -21 -21 -22 -22 -22 -23 -24 -24 -25 -24 -24 -24 -24 -23 -23 -22 -20 -18 -17 -15 -13 -11 -12 -12 -12 -12 -11 -11 -12 -12 -12 -12 -11 -11 -11 -11 -11 -11 -10 -10 -10 -10
-18 -19 -20 -21 -21 -21 -22 -22 -23 -23 -24 -24 -24 -24 -24 -24 -23 -23 -22 -22 -19 -17 -16 -15 -14 -14 -13 -12 -13 -12 -12 -12 -13 -13 -12 -12 -11 -11 -11 -11 -11 -10 -10 -10 -10
-18 -20 -20 -21 -21 -21 -21 -22 -22 -22 -23 -23 -23 -23 -23 -23 -23 -23 -22 -22 -20 -18 -17 -15 -14 -14 -14 -13 -14 -13 -14 -14 -14 -13 -13 -12 -11 -11 -11 -11 -11 -11 -10 -10 -10
-19 -20 -20 -21 -21 -20 -20 -21 -22 -22 -21 -21 -22 -22 -22 -22 -23 -23 -22 -22 -20 -18 -17 -16 -15 -15 -15 -15 -15 -15 -15 -15 -14 -14 -12 -12 -11 -10 -11 -12 -12 -11 -10 -10 -10
-19 -20 -20 -20 -20 -20 -20 -20 -21 -20 -21 -21 -21 -21 -22 -21 -21 -21 -22 -21 -21 -19 -18 -18 -16 -16 -16 -16 -16 -15 -15 -15 -14 -13 -11 -12 -11 -11 -12 -12 -11 -11 -11 -10 -10
-19 -19 -20 -19 -19 -19 -20 -20 -19 -20 -20 -20 -21 -21 -21 -21 -21 -21 -22 -22 -21 -20 -17 -18 -18 -18 -16 -16 -14 -14 -15 -13 -12 -11 -11 -12 -12 -13 -13 -11 -11 -11 -11 -10 -10
-19 -19 -19 -19 -19 -19 -19 -19 -19 -19 -19 -20 -21 -22 -22 -22 -22 -22 -22 -22 -20 -19 -19 -18 -17 -17 -16 -15 -16 -15 -14 -14 -13 -12 -12 -13 -13 -13 -13 -12 -12 -13 -13 -12 -11
-18 -19 -19 -19 -18 -19 -19 -19 -19 -19 -19 -20 -21 -22 -22 -22 -22 -21 -21 -21 -19 -19 -19 -17 -17 -17 -16 -16 -16 -15 -15 -13 -13 -12 -13 -13 -14 -13 -14 -15 -15 -14 -14 -13 -12
-19 -19 -19 -18 -18 -18 -19 -19 -18 -18 -18 -19 -20 -19 -20 -21 -21 -20 -20 -19 -19 -20 -19 -19 -18 -17 -16 -15 -14 -14 -14 -14 -13 -13 -13 -13 -14 -13 -14 -14 -14 -14 -14 -14 -15
-19 -19 -19 -18 -18 -18 -19 -19 -19 -18 -18 -18 -18 -18 -20 -20 -20 -20 -19 -18 -19 -19 -18 -18 -18 -17 -16 -15 -15 -15 -14 -14 -14 -13 -13 -14 -14 -14 -15 -15 -14 -14 -14 -14 -15
-18 -19 -18 -18 -18 -18 -18 -19 -19 -19 -18 -18 -18 -18 -19 -19 -19 -19 -18 -18 -18 -18 -18 -18 -17 -17 -18 -17 -16 -15 -15 -14 -14 -14 -14 -14 -14 -15 -15 -15 -15 -14 -14 -15 -15
-18 -19 -19 -18 -18 -18 -18 -18 -18 -18 -18 -18 -18 -17 -18 -18 -18 -18 -18 -18 -18 -17 -17 -17 -17 -16 -14 -14 -14 -15 -15 -14 -14 -14 -14 -14 -15 -15 -14 -14 -14 -14 -14 -15 -14
-19 -18 -18 -19 -19 -19 -19 -19 -18 -18 -18 -18 -18 -18 -17 -17 -18 -18 -18 -17 -17 -17 -17 -17 -16 -16 -16 -16 -15 -15 -15 -15 -15 -15 -14 -15 -16 -15 -14 -15 -15 -15 -14 -14 -14
-19 -19 -18 -19 -18 -19 -19 -19 -18 -18 -18 -18 -18 -17 -17 -17 -18 -18 -18 -18 -17 -18 -17 -18 -17 -16 -17 -16 -16 -16 -16 -16 -16 -15 -15 -16 -16 -15 -14 -14 -14 -14 -14 -14 -14
-20 -19 -19 -19 -19 -19 -18 -18 -18 -18 -18 -17 -17 -17 -17 -17 -17 -18 -18 -18 -18 -18 -18 -18 -17 -17 -17 -17 -18 -18 -17 -16 -16 -15 -16 -16 -16 -14 -14 -14 -14 -14 -14 -14 -14

GFSSW_500_temp_141.txt.gz
Temp
-8 -8 -8 -8 -8 -8 -8 -8 -8 -8 -8 -8 -8 -8 -8 -8 -7 -8 -8 -9 -8 -8 -8 -8 -8 -8 -8 -8 -8 -8 -8 -7 -7 -7 -8 -8 -8 -8 -7 -8 -7 -7 -7 -8 -7
-8 -8 -8 -8 -8 -8 -8 -8 -8 -8 -8 -8 -8 -8 -8 -8 -8 -8 -9 -9 -8 -8 -9 -9 -9 -8 -8 -8 -8 -9 -8 -7 -8 -8 -8 -8 -8 -9 -8 -8 -8 -8 -7 -7 -8
-8 -8 -8 -8 -8 -8 -8 -8 -8 -8 -8 -8 -8 -8 -8 -8 -8 -8 -9 -9 -9 -8 -9 -9 -9 -9 -8 -8 -8 -8 -8 -8 -8 -8 -9 -9 -9 -9 -8 -8 -8 -8 -8 -7 -7
-9 -9 -9 -9 -9 -9 -9 -9 -10 -9 -9 -9 -8 -8 -8 -8 -8 -9 -9 -9 -9 -9 -9 -9 -9 -9 -8 -8 -8 -8 -9 -9 -8 -9 -9 -9 -9 -9 -9 -8 -8 -9 -9 -9 -7
-9 -9 -9 -9 -9 -9 -9 -10 -10 -11 -10 -10 -10 -9 -9 -9 -9 -10 -9 -10 -10 -10 -10 -10 -9 -9 -9 -9 -9 -8 -9 -9 -9 -9 -9 -9 -9 -9 -9 -8 -8 -9 -9 -9 -9
-9 -9 -9 -9 -9 -9 -10 -11 -13 -13 -13 -13 -12 -11 -10 -9 -12 -11 -11 -10 -11 -10 -10 -10 -10 -10 -10 -10 -9 -9 -9 -10 -10 -10 -9 -10 -9 -9 -9 -9 -8 -8 -9 -9 -9
-9 -9 -9 -9 -10 -12 -14 -16 -17 -17 -17 -17 -15 -14 -12 -12 -13 -12 -11 -11 -11 -11 -11 -11 -11 -10 -9 -10 -9 -9 -9 -10 -10 -10 -9 -10 -9 -8 -8 -8 -8 -8 -9 -9 -9
-9 -9 -9 -10 -13 -16 -19 -20 -20 -21 -21 -21 -20 -19 -17 -15 -16 -13 -13 -12 -12 -12 -12 -11 -11 -11 -10 -9 -10 -9 -9 -9 -9 -9 -9 -9 -9 -8 -8 -8 -8 -8 -8 -9 -9
-9 -10 -12 -15 -18 -20 -20 -21 -21 -21 -21 -21 -21 -21 -21 -20 -20 -17 -15 -14 -14 -14 -14 -13 -11 -11 -11 -10 -10 -9 -8 -9 -10 -9 -9 -9 -9 -9 -9 -8 -8 -9 -9 -8 -8
-10 -12 -15 -18 -20 -21 -21 -21 -21 -22 -22 -22 -22 -22 -22 -22 -21 -21 -18 -17 -15 -15 -15 -14 -12 -12 -11 -10 -8 -8 -8 -9 -10 -9 -10 -9 -9 -10 -9 -9 -9 -9 -9 -9 -8
-11 -15 -18 -20 -20 -20 -20 -20 -20 -21 -22 -23 -23 -24 -23 -24 -23 -22 -21 -20 -18 -17 -15 -14 -13 -10 -10 -10 -10 -10 -10 -10 -10 -10 -10 -10 -10 -10 -10 -10 -9 -9 -9 -9 -9
-13 -17 -19 -20 -20 -19 -19 -19 -19 -20 -22 -22 -23 -24 -24 -24 -24 -23 -23 -22 -20 -18 -17 -15 -13 -13 -12 -12 -11 -10 -10 -10 -11 -11 -11 -11 -10 -11 -11 -10 -10 -9 -10 -9 -10
-15 -18 -19 -19 -18 -19 -19 -19 -19 -20 -21 -22 -23 -24 -24 -24 -24 -24 -23 -23 -21 -19 -17 -15 -14 -13 -13 -13 -12 -11 -11 -11 -12 -12 -12 -11 -11 -11 -11 -10 -10 -10 -10 -10 -9
-17 -19 -18 -18 -18 -18 -18 -19 -20 -20 -21 -21 -22 -23 -23 -24 -24 -24 -24 -23 -22 -20 -18 -17 -16 -14 -14 -13 -13 -12 -12 -13 -13 -12 -12 -12 -11 -11 -11 -11 -11 -11 -10 -10 -10
-17 -19 -18 -17 -17 -18 -19 -19 -19 -20 -21 -22 -22 -22 -22 -23 -23 -24 -24 -23 -22 -20 -19 -17 -16 -15 -15 -14 -14 -13 -14 -14 -14 -13 -12 -12 -12 -11 -11 -11 -11 -10 -11 -11 -10
-17 -18 -18 -17 -17 -18 -18 -19 -19 -20 -20 -21 -21 -22 -22 -22 -23 -23 -23 -23 -22 -22 -20 -19 -17 -17 -16 -16 -16 -16 -15 -15 -14 -13 -13 -12 -12 -11 -11 -11 -11 -10 -10 -10 -10
-17 -18 -17 -16 -17 -18 -18 -19 -19 -19 -20 -20 -21 -21 -22 -22 -22 -22 -23 -23 -22 -22 -21 -21 -18 -17 -17 -17 -17 -17 -16 -15 -14 -13 -12 -12 -11 -11 -11 -11 -11 -10 -10 -9 -9
-17 -18 -17 -16 -18 -18 -18 -19 -19 -19 -19 -20 -21 -21 -22 -22 -21 -22 -22 -22 -23 -22 -21 -20 -20 -18 -18 -18 -15 -16 -15 -14 -12 -12 -11 -12 -11 -12 -12 -11 -11 -11 -10 -10 -10
-17 -18 -17 -17 -17 -18 -19 -18 -19 -19 -19 -20 -21 -22 -21 -22 -22 -22 -22 -22 -22 -21 -21 -20 -19 -17 -17 -17 -17 -16 -15 -15 -13 -12 -12 -12 -12 -13 -13 -12 -11 -11 -11 -10 -10
-17 -18 -18 -18 -18 -18 -19 -18 -19 -19 -19 -19 -20 -21 -22 -22 -23 -22 -23 -22 -22 -21 -21 -20 -19 -18 -18 -18 -17 -16 -15 -14 -13 -13 -12 -12 -13 -13 -13 -12 -11 -11 -11 -11 -10
-17 -18 -18 -19 -18 -18 -18 -18 -18 -18 -19 -18 -18 -19 -20 -22 -22 -22 -22 -21 -20 -21 -21 -19 -19 -18 -18 -17 -16 -16 -16 -14 -13 -12 -12 -13 -13 -13 -13 -12 -12 -12 -12 -12 -11
-17 -18 -18 -18 -19 -18 -18 -18 -18 -18 -18 -18 -18 -18 -19 -20 -21 -21 -20 -20 -20 -20 -20 -18 -19 -17 -17 -17 -16 -15 -15 -14 -14 -13 -13 -13 -13 -14 -14 -14 -13 -13 -12 -12 -13
-18 -19 -19 -18 -18 -18 -19 -19 -19 -18 -18 -18 -18 -18 -19 -19 -20 -20 -19 -19 -20 -20 -19 -18 -19 -18 -18 -18 -17 -15 -14 -14 -14 -14 -14 -14 -14 -14 -15 -14 -14 -13 -13 -14 -14
-18 -19 -19 -19 -18 -18 -18 -19 -18 -18 -18 -18 -18 -18 -19 -19 -18 -19 -19 -19 -19 -19 -19 -18 -18 -17 -14 -14 -14 -14 -14 -14 -14 -14 -14 -14 -14 -15 -15 -15 -14 -14 -14 -14 -14
-19 -19 -19 -19 -19 -18 -19 -19 -18 -18 -18 -18 -18 -17 -18 -18 -18 -18 -18 -19 -19 -18 -18 -18 -18 -17 -16 -16 -15 -15 -15 -14 -14 -14 -15 -15 -15 -15 -15 -14 -14 -14 -14 -14 -14
-19 -19 -19 -19 -19 -19 -19 -18 -18 -18 -18 -18 -18 -17 -17 -18 -18 -18 -18 -18 -18 -18 -18 -17 -18 -17 -17 -17 -16 -16 -16 -16 -15 -15 -15 -15 -15 -15 -14 -14 -14 -13 -14 -14 -14
-19 -20 -20 -19 -19 -19 -19 -19 -19 -18 -17 -18 -18 -17 -17 -17 -17 -18 -17 -17 -18 -18 -17 -17 -17 -17 -17 -17 -17 -16 -16 -15 -15 -15 -15 -15 -15 -15 -14 -14 -14 -14 -14 -14 -14

GFSSW_500_temp_144.txt.gz
Temp
-8 -8 -8 -8 -8 -8 -8 -8 -8 -8 -8 -8 -8 -8 -8 -8 -9 -8 -8 -8 -8 -7 -8 -8 -8 -8 -8 -8 -8 -8 -8 -8 -7 -7 -8 -8 -8 -8 -8 -8 -7 -7 -7 -8 -8
-8 -9 -9 -9 -9 -9 -9 -9 -9 -9 -9 -8 -8 -8 -8 -8 -8 -8 -9 -9 -8 -8 -8 -8 -8 -8 -8 -8 -8 -7 -7 -8 -8 -8 -8 -8 -8 -8 -8 -8 -8 -7 -7 -7 -8
-9 -9 -9 -9 -9 -9 -9 -9 -9 -9 -9 -9 -9 -8 -8 -8 -8 -9 -9 -9 -9 -8 -9 -9 -9 -9 -8 -8 -8 -8 -7 -9 -9 -8 -8 -8 -8 -8 -8 -8 -8 -8 -7 -7 -7
-9 -10 -9 -9 -9 -9 -9 -9 -9 -9 -9 -9 -10 -10 -9 -9 -9 -9 -10 -10 -9 -9 -9 -9 -9 -9 -9 -8 -8 -8 -8 -9 -8 -9 -9 -9 -9 -8 -9 -9 -8 -8 -8 -7 -7
-10 -10 -9 -9 -9 -9 -10 -11 -12 -13 -14 -15 -14 -13 -11 -10 -11 -10 -10 -11 -10 -10 -10 -10 -10 -10 -9 -9 -9 -9 -9 -9 -9 -9 -10 -9 -9 -9 -9 -9 -8 -9 -8 -8 -7
-10 -9 -9 -9 -9 -10 -14 -17 -18 -19 -19 -19 -18 -17 -16 -13 -14 -12 -12 -11 -12 -11 -11 -10 -10 -10 -10 -9 -9 -9 -9 -9 -9 -9 -10 -9 -9 -9 -9 -8 -8 -9 -9 -9 -8
-10 -10 -9 -10 -11 -15 -18 -19 -19 -19 -20 -20 -20 -21 -20 -19 -17 -15 -14 -14 -12 -12 -11 -11 -11 -11 -10 -10 -10 -9 -9 -9 -9 -9 -10 -10 -9 -9 -9 -8 -8 -9 -9 -10 -9
-10 -10 -10 -11 -14 -17 -17 -17 -18 -18 -19 -19 -20 -21 -20 -21 -21 -20 -17 -15 -14 -13 -12 -12 -11 -11 -11 -11 -10 -10 -10 -9 -9 -9 -9 -10 -9 -9 -9 -8 -8 -8 -9 -9 -10
-11 -11 -11 -15 -17 -17 -17 -17 -18 -18 -18 -19 -19 -20 -22 -22 -21 -21 -21 -18 -16 -15 -14 -13 -12 -12 -11 -11 -11 -10 -9 -9 -9 -9 -9 -9 -9 -9 -9 -9 -8 -8 -9 -9 -9
-11 -11 -12 -17 -17 -17 -17 -17 -17 -18 -18 -19 -20 -20 -22 -23 -22 -21 -21 -21 -18 -17 -16 -14 -13 -13 -12 -11 -9 -9 -10 -10 -10 -9 -9 -10 -10 -9 -9 -9 -9 -8 -9 -9 -9
-11 -12 -15 -17 -17 -17 -17 -17 -17 -18 -19 -19 -20 -20 -22 -23 -23 -23 -22 -21 -20 -19 -17 -15 -14 -11 -11 -11 -12 -12 -11 -11 -11 -9 -10 -10 -10 -9 -9 -9 -9 -9 -9 -9 -9
-12 -13 -17 -17 -17 -17 -18 -17 -18 -19 -19 -19 -20 -21 -21 -23 -24 -24 -23 -23 -21 -19 -18 -17 -14 -14 -14 -13 -13 -12 -11 -11 -11 -10 -11 -11 -11 -10 -10 -9 -9 -9 -9 -9 -9
-12 -14 -17 -17 -17 -17 -18 -18 -19 -18 -19 -20 -20 -21 -21 -22 -23 -23 -24 -24 -23 -21 -19 -17 -15 -15 -14 -13 -13 -12 -12 -11 -12 -11 -12 -11 -11 -11 -10 -10 -10 -9 -9 -9 -9
-12 -14 -18 -17 -17 -17 -17 -18 -18 -18 -19 -20 -20 -21 -21 -22 -22 -23 -24 -24 -23 -21 -20 -18 -17 -16 -14 -14 -14 -13 -13 -13 -13 -12 -11 -11 -11 -11 -11 -10 -10 -9 -9 -9 -9
-13 -15 -18 -18 -17 -17 -18 -17 -18 -18 -19 -20 -21 -21 -22 -22 -22 -23 -24 -23 -23 -22 -22 -20 -19 -17 -15 -14 -15 -14 -14 -13 -13 -13 -12 -12 -12 -10 -11 -10 -10 -10 -9 -9 -9
-14 -16 -18 -18 -17 -17 -18 -17 -18 -18 -19 -20 -21 -21 -21 -22 -22 -23 -23 -23 -23 -23 -22 -21 -19 -17 -16 -16 -16 -15 -15 -15 -15 -14 -12 -11 -12 -11 -10 -10 -10 -10 -9 -9 -9
-15 -16 -18 -18 -17 -18 -18 -18 -18 -19 -19 -20 -21 -21 -22 -22 -22 -22 -23 -23 -23 -22 -22 -23 -21 -20 -18 -17 -18 -16 -16 -16 -16 -14 -13 -12 -12 -14 -10 -10 -10 -10 -9 -9 -9
-15 -17 -18 -18 -18 -18 -18 -18 -18 -19 -19 -20 -21 -22 -22 -22 -21 -22 -22 -23 -23 -23 -22 -23 -21 -20 -18 -17 -14 -13 -14 -14 -13 -14 -13 -12 -12 -11 -10 -10 -10 -9 -9 -9 -10
-15 -17 -19 -18 -18 -18 -18 -18 -18 -18 -19 -19 -20 -21 -22 -22 -22 -22 -22 -22 -23 -22 -22 -23 -20 -19 -18 -17 -17 -16 -17 -17 -16 -16 -13 -12 -12 -11 -10 -10 -10 -10 -10 -10 -10
-15 -18 -19 -19 -19 -18 -19 -18 -18 -18 -18 -18 -18 -20 -21 -22 -22 -22 -22 -22 -22 -22 -22 -22 -20 -19 -19 -18 -18 -16 -16 -15 -15 -15 -16 -13 -12 -12 -11 -11 -10 -10 -10 -10 -10
-16 -17 -19 -19 -19 -19 -18 -18 -18 -18 -18 -18 -19 -19 -20 -21 -22 -22 -22 -22 -22 -21 -20 -19 -19 -20 -20 -18 -16 -18 -16 -16 -16 -16 -15 -13 -14 -12 -12 -11 -10 -10 -10 -10 -10
-16 -17 -19 -19 -19 -18 -18 -18 -18 -18 -18 -18 -19 -20 -20 -20 -21 -21 -21 -21 -21 -20 -20 -18 -19 -18 -16 -16 -17 -16 -16 -15 -14 -14 -15 -14 -13 -12 -12 -11 -11 -11 -11 -11 -10
-16 -18 -19 -19 -19 -18 -19 -18 -18 -18 -18 -18 -19 -19 -19 -20 -20 -20 -20 -20 -19 -20 -19 -19 -19 -19 -20 -19 -18 -17 -16 -16 -15 -15 -15 -14 -13 -13 -12 -11 -11 -12 -11 -11 -11
-16 -18 -19 -19 -18 -18 -18 -18 -18 -18 -18 -18 -18 -18 -18 -19 -19 -19 -19 -19 -19 -19 -17 -18 -18 -16 -15 -14 -13 -14 -15 -15 -15 -16 -15 -14 -13 -13 -12 -12 -12 -12 -12 -13 -13
-16 -18 -19 -19 -19 -18 -18 -18 -18 -18 -18 -18 -17 -18 -18 -17 -18 -18 -18 -18 -19 -19 -18 -18 -19 -18 -18 -17 -16 -15 -15 -16 -16 -16 -16 -15 -15 -14 -13 -13 -13 -13 -13 -13 -13
-16 -17 -19 -19 -19 -19 -18 -18 -18 -18 -18 -17 -17 -17 -18 -18 -18 -18 -18 -18 -18 -18 -18 -18 -18 -18 -17 -16 -16 -16 -15 -15 -16 -16 -15 -16 -15 -15 -15 -15 -14 -13 -14 -14 -13
-16 -18 -19 -19 -19 -19 -18 -18 -18 -18 -18 -17 -17 -17 -18 -18 -18 -18 -18 -18 -18 -18 -18 -18 -17 -18 -17 -17 -17 -17 -16 -16 -16 -16 -16 -16 -16 -15 -15 -15 -14 -14 -13 -14 -13

GFSSW_500_temp_147.txt.gz
Temp
-8 -8 -8 -8 -9 -9 -9 -9 -9 -9 -9 -9 -8 -8 -8 -9 -9 -8 -8 -8 -8 -8 -8 -8 -8 -8 -8 -8 -7 -8 -8 -6 -7 -8 -9 -10 -10 -8 -8 -8 -7 -6 -7 -6 -7
-8 -8 -8 -9 -9 -9 -9 -9 -9 -9 -9 -9 -9 -9 -9 -8 -9 -9 -9 -8 -9 -8 -8 -8 -8 -8 -8 -8 -8 -8 -7 -6 -8 -8 -9 -10 -11 -8 -9 -8 -8 -7 -6 -7 -7
-9 -9 -9 -9 -9 -9 -9 -9 -9 -9 -9 -9 -9 -9 -9 -9 -9 -9 -9 -9 -9 -9 -9 -9 -9 -8 -8 -8 -8 -8 -7 -8 -8 -8 -10 -11 -11 -8 -8 -9 -9 -8 -7 -7 -7
-9 -9 -9 -9 -9 -10 -10 -10 -10 -11 -14 -14 -14 -14 -12 -10 -11 -8 -10 -10 -10 -9 -9 -9 -9 -9 -8 -8 -8 -8 -8 -8 -9 -10 -9 -9 -11 -8 -9 -8 -10 -9 -7 -7 -7
-9 -10 -10 -9 -10 -10 -10 -11 -15 -16 -16 -16 -16 -17 -17 -17 -16 -11 -11 -11 -11 -10 -9 -10 -9 -9 -9 -9 -9 -8 -8 -9 -9 -10 -8 -9 -9 -9 -8 -8 -9 -8 -7 -8 -7
-10 -11 -10 -10 -11 -11 -12 -15 -16 -16 -16 -16 -17 -17 -17 -18 -19 -17 -14 -13 -13 -11 -11 -11 -10 -10 -10 -10 -10 -9 -9 -9 -9 -9 -8 -9 -9 -9 -9 -9 -8 -8 -8 -8 -8
-11 -11 -11 -11 -11 -12 -16 -16 -16 -16 -16 -16 -17 -17 -17 -18 -18 -19 -18 -17 -14 -13 -12 -12 -11 -11 -11 -10 -11 -11 -10 -9 -9 -9 -8 -10 -10 -9 -9 -9 -9 -8 -9 -9 -8
-11 -11 -11 -11 -12 -15 -16 -16 -16 -16 -16 -16 -17 -17 -18 -18 -19 -19 -20 -20 -18 -16 -14 -12 -11 -11 -11 -11 -11 -11 -10 -9 -9 -9 -9 -10 -9 -9 -9 -9 -9 -9 -9 -9 -9
-12 -11 -11 -12 -14 -17 -16 -16 -16 -17 -17 -16 -17 -17 -18 -19 -19 -20 -21 -21 -20 -18 -16 -13 -13 -12 -11 -11 -12 -11 -9 -9 -9 -9 -10 -9 -9 -10 -9 -9 -9 -9 -9 -8 -9
-12 -12 -12 -13 -16 -17 -17 -17 -17 -17 -17 -17 -18 -18 -19 -19 -20 -21 -22 -22 -21 -19 -17 -15 -14 -13 -14 -13 -10 -9 -10 -10 -10 -9 -9 -9 -10 -10 -9 -10 -9 -9 -9 -9 -9
-12 -12 -12 -14 -17 -17 -17 -17 -17 -16 -17 -17 -17 -19 -20 -20 -21 -21 -23 -22 -22 -21 -18 -16 -15 -13 -11 -11 -12 -11 -12 -12 -11 -11 -10 -9 -10 -11 -9 -9 -9 -9 -9 -9 -9
-12 -12 -14 -16 -18 -18 -17 -17 -17 -17 -17 -18 -18 -19 -20 -21 -21 -22 -23 -23 -22 -21 -20 -18 -16 -14 -14 -14 -14 -14 -14 -12 -13 -13 -10 -10 -10 -11 -10 -9 -10 -9 -9 -9 -9
-12 -13 -14 -17 -18 -18 -18 -17 -17 -17 -18 -18 -19 -20 -20 -21 -22 -22 -23 -23 -23 -22 -21 -18 -16 -16 -15 -14 -14 -14 -16 -13 -15 -12 -10 -11 -11 -11 -9 -9 -9 -9 -9 -9 -9
-13 -13 -15 -18 -18 -18 -18 -17 -17 -18 -18 -18 -19 -20 -21 -21 -22 -22 -23 -23 -23 -22 -21 -19 -18 -17 -16 -15 -15 -15 -14 -15 -15 -12 -10 -11 -10 -11 -10 -9 -9 -9 -9 -9 -9
-13 -13 -15 -19 -19 -18 -18 -17 -17 -18 -18 -19 -20 -21 -21 -21 -22 -22 -22 -23 -24 -23 -24 -22 -20 -18 -18 -15 -16 -15 -14 -14 -15 -13 -14 -12 -13 -10 -10 -9 -9 -9 -9 -9 -9
-13 -14 -16 -18 -18 -18 -18 -17 -18 -18 -19 -19 -20 -20 -22 -22 -22 -22 -22 -23 -23 -23 -23 -23 -21 -19 -17 -16 -15 -17 -17 -17 -16 -15 -14 -12 -11 -12 -9 -9 -9 -9 -9 -10 -10
-14 -14 -17 -19 -19 -18 -17 -18 -18 -18 -19 -20 -20 -21 -22 -22 -22 -22 -22 -23 -23 -22 -22 -22 -20 -19 -20 -19 -17 -18 -18 -17 -17 -16 -12 -14 -12 -12 -11 -10 -9 -9 -10 -10 -10
-14 -15 -17 -19 -18 -18 -18 -18 -18 -18 -19 -19 -19 -20 -21 -21 -21 -22 -22 -22 -22 -23 -22 -23 -21 -19 -20 -19 -18 -17 -16 -16 -14 -13 -14 -15 -12 -13 -11 -9 -10 -9 -10 -10 -10
-14 -15 -18 -19 -18 -18 -18 -18 -18 -18 -18 -19 -19 -20 -21 -21 -21 -21 -21 -22 -22 -22 -22 -22 -20 -18 -19 -18 -17 -18 -17 -16 -15 -14 -14 -14 -14 -13 -10 -10 -9 -9 -9 -9 -10
-14 -15 -17 -19 -19 -18 -18 -18 -18 -18 -18 -19 -19 -20 -20 -20 -21 -21 -21 -21 -22 -23 -21 -22 -20 -19 -18 -19 -18 -17 -15 -16 -15 -15 -14 -15 -14 -13 -10 -10 -10 -9 -9 -9 -9
-14 -15 -18 -19 -19 -18 -18 -18 -18 -18 -18 -18 -19 -20 -20 -20 -21 -21 -21 -22 -21 -21 -21 -21 -20 -19 -19 -19 -17 -17 -16 -16 -15 -14 -14 -15 -14 -14 -11 -11 -10 -9 -9 -9 -10
-14 -16 -17 -19 -18 -18 -18 -18 -18 -18 -18 -18 -18 -19 -20 -20 -21 -23 -22 -21 -21 -21 -21 -20 -19 -18 -18 -17 -17 -16 -14 -16 -15 -15 -14 -14 -15 -14 -11 -10 -10 -9 -10 -10 -10
-15 -14 -16 -18 -18 -18 -18 -18 -18 -18 -18 -18 -18 -19 -20 -19 -20 -20 -20 -21 -21 -22 -21 -19 -19 -19 -19 -19 -19 -18 -17 -16 -15 -15 -14 -15 -13 -10 -10 -10 -11 -10 -10 -10 -10
-14 -15 -17 -18 -18 -18 -17 -18 -18 -18 -18 -18 -18 -18 -18 -19 -19 -20 -21 -20 -21 -20 -19 -19 -18 -19 -18 -18 -17 -18 -17 -16 -16 -15 -15 -14 -13 -11 -11 -11 -11 -11 -11 -11 -11
-15 -15 -16 -18 -19 -17 -17 -18 -18 -17 -18 -18 -18 -17 -17 -17 -18 -19 -19 -19 -18 -18 -17 -18 -18 -18 -17 -16 -16 -16 -17 -16 -16 -15 -15 -15 -14 -12 -12 -12 -12 -12 -11 -11 -11
-15 -15 -16 -18 -18 -18 -18 -17 -17 -17 -18 -18 -17 -18 -17 -17 -17 -18 -18 -19 -18 -19 -17 -18 -18 -19 -17 -18 -18 -18 -18 -17 -16 -16 -15 -15 -15 -12 -13 -12 -12 -12 -12 -12 -12
-15 -15 -17 -17 -19 -18 -17 -16 -17 -17 -18 -18 -17 -17 -17 -17 -17 -17 -18 -18 -18 -18 -17 -16 -17 -17 -16 -18 -18 -18 -18 -17 -17 -16 -16 -16 -14 -13 -13 -13 -13 -13 -13 -13 -13